[[[{"header":{"parameterUnit":"kt","parameterCategory":2,"dx":1,"dy":1,"la1":29.587661999999998,"la2":31.0,"lo1":-88.76705300000003,"lo2":-86.6583820000003,"nx":115,"ny":88,"refTime":"2022-09-20T12:00:00:Z","depth":0,"parameterNumber":1,"parameterNumberName":"U-component_of_WINDS"},"data":[-5.3228,-5.1727,-5.1566,-5.1104,-5.0337,-5.0337,-5.0322,-5.0099,-4.8491,-4.7605,-4.7641,-4.7701,-4.7368,-4.6826,-4.3549,-4.1651,-4.0955,-3.8333,-3.694,-3.6598,-3.6418,-3.6239,-3.5894,-3.5578,-3.5021,-3.4252,-3.3664,-3.3678,-3.3692,-3.3692,-3.3692,-3.3678,-3.3678,-3.3496,-3.351,-3.316,-3.2625,-3.1879,-3.1511,-3.1156,-3.0959,-3.0774,-3.08,-3.0917,-3.0943,-3.1008,-3.1073,-3.1086,-3.0327,-2.8547,-2.5173,-2.2411,-2.0503,-1.9141,-1.8221,-1.7879,-1.7628,-1.7138,-1.7079,-1.6964,-1.6699,-1.6772,-1.6877,-1.7016,-1.7082,-1.724,-1.7266,-1.7326,-1.7339,-1.7365,-1.7372,-1.7372,-1.7372,-1.7372,-1.7372,-1.7372,-1.7378,-1.7378,-1.7444,-1.6841,-1.5986,-1.5674,-1.5146,-1.3439,-1.1251,-1.0144,-0.9066,-0.6625,-0.5277,-0.4407,-0.3748,-0.3527,-0.3535,-0.3807,-0.3829,-0.3828,-0.3834,-0.3362,-0.2649,-0.2187,-0.1461,-0.0726,-0.0,-0.0,-0.0,-0.0,-0.0,-0.0,-0.0,-0.0,-0.0,-0.0,-0.0,-0.0,-0.0,-5.3521,-5.2685,-5.1887,-5.1104,-5.0337,-5.0337,-5.0322,-5.0099,-4.8491,-4.7605,-4.7722,-4.7575,-4.6659,-4.5102,-4.3034,-4.1286,-3.9537,-3.7639,-3.6761,-3.6598,-3.6598,-3.6418,-3.6269,-3.5924,-3.4932,-3.4165,-3.365,-3.3678,-3.3692,-3.3692,-3.3692,-3.3692,-3.351,-3.351,-3.3174,-3.3005,-3.2639,-3.2076,-3.1695,-3.1156,-3.0998,-3.0761,-3.1138,-3.1411,-3.1567,-3.18,-3.2099,-3.1649,-2.9864,-2.7135,-2.3735,-2.1432,-1.9856,-1.929,-1.8561,-1.8394,-1.8154,-1.7845,-1.7622,-1.7496,-1.7423,-1.7353,-1.7266,-1.7312,-1.7299,-1.7345,-1.7345,-1.7365,-1.7365,-1.7372,-1.7372,-1.7372,-1.7372,-1.7372,-1.7372,-1.7372,-1.7385,-1.7391,-1.755,-1.7728,-1.758,-1.7678,-1.6685,-1.5663,-1.411,-1.2973,-1.1432,-0.8992,-0.6748,-0.5639,-0.4495,-0.4272,-0.4042,-0.3817,-0.3836,-0.3844,-0.3853,-0.3383,-0.3412,-0.2955,-0.2476,-0.2458,-0.2691,-0.2932,-0.194,-0.0,-0.0,-0.0,-0.0,-0.0,-0.0,-0.0,-0.0,-0.0,-0.0,-5.3024,-5.2047,-5.1266,-5.0662,-5.0337,-5.0337,-5.0443,-4.9994,-4.845,-4.7686,-4.7588,-4.748,-4.5991,-4.3377,-4.146,-3.9888,-3.9377,-3.7492,-3.6901,-3.6659,-3.6598,-3.6675,-3.6254,-3.5924,-3.4796,-3.3926,-3.3635,-3.3749,-3.3692,-3.3721,-3.3749,-3.3692,-3.3692,-3.351,-3.351,-3.3342,-3.2977,-3.23,-3.2076,-3.211,-3.2194,-3.2168,-3.2313,-3.1956,-3.2112,-3.2177,-3.2437,-3.2268,-3.0497,-2.7717,-2.4795,-2.265,-2.001,-1.963,-1.9516,-1.9377,-1.8939,-1.8739,-1.8341,-1.803,-1.7866,-1.7486,-1.7365,-1.7365,-1.7378,-1.7372,-1.7372,-1.7372,-1.7372,-1.7372,-1.7372,-1.7372,-1.7372,-1.7372,-1.7372,-1.7405,-1.7431,-1.7504,-1.7695,-1.7886,-1.8038,-1.8156,-1.79,-1.6865,-1.6235,-1.5083,-1.4489,-1.2257,-0.874,-0.6657,-0.5484,-0.4542,-0.4067,-0.3838,-0.3857,-0.3868,-0.3882,-0.3911,-0.394,-0.3478,-0.325,-0.3984,-0.3964,-0.2951,-0.1953,-0.1211,-0.1203,-0.0,-0.0,-0.1441,-0.1681,-0.1681,-0.0,-0.0,-0.0,-5.2449,-5.173,-5.1089,-5.0697,-5.0676,-5.0443,-5.0422,-5.0179,-4.8777,-4.8087,-4.7511,-4.6458,-4.4533,-4.2214,-4.0809,-3.9734,-3.9161,-3.7903,-3.7123,-3.72,-3.7231,-3.7385,-3.7002,-3.6621,-3.528,-3.4358,-3.4019,-3.4475,-3.4347,-3.4275,-3.4176,-3.419,-3.4261,-3.4347,-3.4332,-3.4133,-3.3975,-3.35,-3.3313,-3.3307,-3.3412,-3.3407,-3.3204,-3.3075,-3.2722,-3.2761,-3.2982,-3.2758,-3.1309,-2.9049,-2.7259,-2.4396,-2.0783,-2.0389,-2.0328,-2.0256,-1.9883,-1.9491,-1.8973,-1.8817,-1.8617,-1.8002,-1.7808,-1.7593,-1.7593,-1.7372,-1.7372,-1.7372,-1.7372,-1.7372,-1.7372,-1.7372,-1.7372,-1.7372,-1.7372,-1.7431,-1.749,-1.7662,-1.7846,-1.8038,-1.8229,-1.8446,-1.8684,-1.835,-1.7731,-1.7087,-1.6201,-1.4316,-1.0491,-0.86,-0.7423,-0.576,-0.5046,-0.387,-0.3882,-0.3901,-0.3935,-0.3964,-0.3999,-0.4017,-0.4035,-0.4043,-0.4048,-0.2995,-0.2456,-0.2429,-0.2412,-0.2405,-0.2641,-0.2882,-0.2882,-0.2161,-0.1681,-0.2176,-0.2925,-5.2917,-5.2906,-5.1993,-5.1653,-5.1547,-5.0825,-5.057,-5.0369,-4.9584,-4.8982,-4.6719,-4.3968,-4.2322,-4.1242,-4.0707,-3.9833,-3.9042,-3.8484,-3.8095,-3.842,-3.8157,-3.8344,-3.8204,-3.7824,-3.6275,-3.5043,-3.4911,-3.5596,-3.5476,-3.5186,-3.51,-3.5427,-3.5285,-3.5157,-3.51,-3.5115,-3.5052,-3.4769,-3.4744,-3.4593,-3.4579,-3.4024,-3.3519,-3.3786,-3.3745,-3.3449,-3.3826,-3.337,-3.2154,-2.9223,-2.6699,-2.4991,-2.2147,-2.0697,-2.0697,-2.0728,-2.05,-2.0097,-1.9693,-1.9509,-1.9295,-1.9088,-1.8881,-1.8674,-1.8238,-1.7795,-1.7587,-1.7587,-1.7587,-1.7587,-1.7418,-1.7431,-1.7464,-1.7484,-1.7563,-1.7668,-1.7728,-1.784,-1.8064,-1.8347,-1.8532,-1.869,-1.8908,-1.8941,-1.8294,-1.809,-1.7176,-1.4796,-1.2421,-1.1023,-0.9366,-0.7464,-0.5583,-0.3922,-0.3935,-0.3959,-0.3992,-0.4025,-0.4062,-0.4084,-0.4093,-0.4109,-0.4126,-0.3804,-0.3485,-0.3435,-0.338,-0.337,-0.3362,-0.3842,-0.3362,-0.2401,-0.2417,-0.2927,-0.3694,-5.3598,-5.299,-5.2693,-5.2566,-5.2502,-5.2162,-5.2777,-5.2373,-4.7053,-4.3722,-4.2042,-4.079,-3.9978,-3.9941,-4.0005,-3.9612,-3.8682,-3.8744,-3.8744,-3.8744,-3.8528,-3.9139,-3.9108,-3.8447,-3.7086,-3.6572,-3.6426,-3.6689,-3.6087,-3.5747,-3.5612,-3.5641,-3.557,-3.5555,-3.5641,-3.5755,-3.583,-3.624,-3.6283,-3.614,-3.5983,-3.5625,-3.5252,-3.5053,-3.4662,-3.4552,-3.4533,-3.4329,-3.1829,-2.8305,-2.747,-2.5383,-2.1832,-2.0784,-2.0784,-2.0784,-2.0784,-2.0578,-2.0151,-2.0143,-1.9723,-1.931,-1.9554,-1.9546,-1.9103,-1.8224,-1.7808,-1.7842,-1.7828,-1.7842,-1.768,-1.7517,-1.7569,-1.7622,-1.7767,-1.7919,-1.7991,-1.8051,-1.8308,-1.8631,-1.8815,-1.8954,-1.902,-1.9059,-1.885,-1.862,-1.7431,-1.5799,-1.4665,-1.2825,-1.0463,-0.8775,-0.6401,-0.3978,-0.4,-0.4024,-0.4049,-0.4078,-0.4113,-0.4135,-0.4154,-0.4162,-0.4158,-0.4105,-0.4033,-0.3943,-0.3615,-0.3848,-0.3852,-0.3842,-0.3602,-0.3157,-0.3441,-0.3712,-0.3748,-5.4254,-5.384,-5.3606,-5.35,-5.35,-5.35,-5.4422,-5.4689,-4.6644,-4.1142,-3.9264,-3.925,-3.9513,-3.9192,-3.9192,-3.9238,-3.9238,-3.9207,-3.9176,-3.9254,-3.9439,-3.9955,-3.9955,-3.9408,-3.8468,-3.7858,-3.75,-3.7438,-3.6738,-3.6362,-3.6195,-3.6082,-3.6309,-3.6252,-3.6238,-3.6153,-3.6707,-3.7134,-3.7276,-3.7089,-3.693,-3.6512,-3.612,-3.5728,-3.5119,-3.4738,-3.4599,-3.4381,-3.1659,-2.8316,-2.747,-2.5383,-2.1415,-2.0784,-2.0776,-2.0776,-2.0784,-2.0578,-2.0357,-2.0143,-2.0143,-1.9952,-2.0197,-2.0403,-1.9738,-1.8867,-1.8258,-1.8578,-1.8634,-1.8781,-1.866,-1.8715,-1.8777,-1.8597,-1.8672,-1.8612,-1.8774,-1.8621,-1.8525,-1.8802,-1.8934,-1.9046,-1.9059,-1.9099,-1.9158,-1.9138,-1.8703,-1.8096,-1.6762,-1.3783,-1.1396,-0.9682,-0.7501,-0.4536,-0.4057,-0.4081,-0.4105,-0.4126,-0.4152,-0.4176,-0.418,-0.418,-0.4186,-0.4141,-0.4056,-0.3963,-0.3876,-0.3868,-0.3882,-0.387,-0.3894,-0.3951,-0.4,-0.4023,-0.4054,-5.4987,-5.5739,-5.4837,-5.4434,-5.4455,-5.4455,-5.5007,-5.525,-4.945,-4.4572,-4.0557,-4.0346,-4.0304,-4.0474,-4.052,-4.0427,-4.0365,-4.0396,-4.0381,-4.0396,-4.0242,-4.0365,-4.0396,-4.0365,-3.9604,-3.916,-3.8777,-3.8356,-3.7506,-3.7292,-3.732,-3.7234,-3.7077,-3.6978,-3.6963,-3.6921,-3.6992,-3.7006,-3.7091,-3.7063,-3.6849,-3.6817,-3.6317,-3.5685,-3.5322,-3.4755,-3.4658,-3.4034,-3.155,-2.9071,-2.7199,-2.4504,-2.2427,-2.0981,-2.0776,-2.0768,-2.076,-2.0776,-2.0784,-2.057,-2.057,-2.0578,-2.0815,-2.0395,-1.9975,-1.9598,-1.9306,-1.9436,-1.9545,-1.9719,-1.9662,-1.9727,-1.9559,-1.9376,-1.9192,-1.9117,-1.9301,-1.9173,-1.8815,-1.8908,-1.904,-1.9145,-1.9165,-1.9178,-1.9251,-1.933,-1.9286,-1.8904,-1.8087,-1.5045,-1.1876,-1.0374,-0.7874,-0.4858,-0.4113,-0.4138,-0.4155,-0.4155,-0.4183,-0.4188,-0.4188,-0.4188,-0.4188,-0.4159,-0.4077,-0.4011,-0.395,-0.3925,-0.3923,-0.3952,-0.3982,-0.4032,-0.4076,-0.4096,-0.4106,-5.4187,-5.4901,-5.4625,-5.4837,-5.5368,-5.5411,-5.5644,-5.5425,-5.3838,-4.8072,-4.1864,-4.061,-4.0674,-4.0674,-4.0674,-4.0674,-4.0674,-4.0674,-4.0674,-4.0674,-4.0674,-4.0674,-4.0674,-4.0628,-4.026,-4.0045,-3.9645,-3.926,-3.8456,-3.8067,-3.7865,-3.7678,-3.7447,-3.7262,-3.6949,-3.6807,-3.6707,-3.6423,-3.6409,-3.6366,-3.6352,-3.6127,-3.5917,-3.5524,-3.4974,-3.4687,-3.453,-3.3605,-3.1964,-2.8683,-2.6578,-2.4842,-2.1674,-2.0255,-2.0334,-2.0349,-2.0444,-2.076,-2.0768,-2.0768,-2.0784,-2.0784,-2.0791,-2.091,-2.0875,-2.0396,-2.0384,-2.0382,-2.0509,-2.0383,-2.003,-1.9593,-1.9656,-1.9504,-1.9343,-1.9254,-1.9162,-1.9148,-1.8993,-1.9007,-1.9106,-1.9251,-1.9343,-1.9343,-1.9442,-1.9673,-1.9903,-2.0061,-1.9719,-1.5845,-1.2121,-1.0578,-0.8276,-0.5698,-0.4418,-0.4439,-0.4182,-0.4188,-0.4188,-0.4188,-0.4188,-0.4188,-0.4188,-0.4175,-0.4114,-0.4056,-0.4009,-0.3987,-0.3986,-0.4008,-0.4054,-0.4101,-0.4147,-0.4158,-0.4159,-5.4413,-5.4965,-5.4965,-5.4965,-5.4965,-5.5262,-5.5252,-5.5166,-5.4672,-4.9827,-4.2058,-4.0625,-4.0674,-4.0674,-4.0674,-4.0674,-4.0674,-4.0674,-4.0674,-4.0674,-4.0674,-4.0674,-4.0674,-4.0659,-4.0459,-4.0045,-3.986,-3.926,-3.8814,-3.8254,-3.7865,-3.7663,-3.7419,-3.712,-3.6665,-3.6224,-3.6053,-3.5641,-3.5541,-3.5555,-3.5584,-3.5627,-3.5462,-3.527,-3.4137,-3.3506,-3.2982,-3.1607,-2.9325,-2.6239,-2.5405,-2.3765,-2.0938,-1.9963,-2.001,-1.9986,-2.0057,-2.0468,-2.061,-2.0744,-2.0768,-2.0784,-2.0791,-2.0886,-2.1084,-2.1123,-2.1195,-2.1215,-2.1315,-2.1306,-2.0974,-2.0566,-2.04,-2.0239,-1.9595,-1.9511,-1.9329,-1.9329,-1.9086,-1.9086,-1.9086,-1.9211,-1.9323,-1.9303,-1.9725,-2.0048,-2.0325,-2.0503,-2.0249,-1.6318,-1.2756,-1.0946,-0.8611,-0.6273,-0.4449,-0.4446,-0.4187,-0.4188,-0.4188,-0.4188,-0.4188,-0.4188,-0.4188,-0.4187,-0.4142,-0.4097,-0.4054,-0.4023,-0.4035,-0.4065,-0.4115,-0.4163,-0.4175,-0.418,-0.4188,-5.5602,-5.5814,-5.5687,-5.4752,-5.3691,-5.4179,-5.4124,-5.3979,-5.4361,-4.9321,-4.1348,-4.0392,-4.0458,-4.0551,-4.0489,-4.0474,-4.0489,-4.0597,-4.0582,-4.0582,-4.0582,-4.0659,-4.0674,-4.0459,-4.0245,-3.9385,-3.92,-3.9,-3.8339,-3.7879,-3.7722,-3.7535,-3.712,-3.6935,-3.6508,-3.5911,-3.5555,-3.5293,-3.5194,-3.4741,-3.4508,-3.4275,-3.3893,-3.3483,-3.2304,-3.1198,-3.0607,-2.9283,-2.743,-2.4821,-2.4051,-2.265,-2.0388,-1.986,-1.9821,-1.9797,-1.9868,-2.0057,-2.0278,-2.0586,-2.0728,-2.0776,-2.0784,-2.0863,-2.1069,-2.1363,-2.1637,-2.1664,-2.1695,-2.1969,-2.2312,-2.2125,-2.1852,-2.1383,-2.0437,-2.003,-1.9801,-1.9801,-1.9558,-1.9322,-1.9322,-1.9106,-1.9211,-1.9435,-1.9969,-2.0352,-2.0694,-2.0555,-2.0253,-1.7441,-1.4061,-1.1726,-0.8874,-0.6534,-0.4449,-0.445,-0.4188,-0.4188,-0.4188,-0.4188,-0.4188,-0.4188,-0.4187,-0.4184,-0.4159,-0.4135,-0.4097,-0.4061,-0.4093,-0.4126,-0.4176,-0.4188,-0.4188,-0.4188,-0.4188,-5.299,-5.3075,-5.367,-5.4328,-5.4965,-5.4427,-5.4427,-5.5164,-5.5147,-4.9868,-4.0746,-3.9927,-3.9694,-3.9856,-3.9964,-3.9979,-4.0118,-4.0396,-4.0319,-4.0288,-4.0412,-4.0643,-4.0674,-4.0612,-4.029,-4.026,-3.983,-3.916,-3.8663,-3.7799,-3.7359,-3.7032,-3.6591,-3.6437,-3.6082,-3.5513,-3.3923,-3.2644,-3.1976,-3.1603,-3.0316,-3.0342,-3.0191,-3.0039,-2.9735,-2.8915,-2.8427,-2.7557,-2.5879,-2.4151,-2.2931,-2.1865,-2.0563,-1.9655,-1.9734,-1.9923,-2.0136,-2.0389,-2.0349,-2.042,-2.0531,-2.0752,-2.0784,-2.0918,-2.1091,-2.1419,-2.1806,-2.1983,-2.2157,-2.237,-2.2765,-2.2398,-2.1913,-2.1905,-2.0972,-2.0501,-2.0508,-2.0272,-2.003,-1.9794,-1.9558,-1.9571,-1.9475,-1.9495,-1.991,-2.016,-2.0556,-2.0575,-2.0311,-1.8227,-1.5102,-1.2249,-0.9652,-0.7054,-0.4449,-0.445,-0.4188,-0.4188,-0.4188,-0.4188,-0.4188,-0.4188,-0.4187,-0.4186,-0.4179,-0.4168,-0.415,-0.413,-0.4154,-0.4183,-0.4186,-0.4188,-0.4188,-0.4188,-0.4188,-5.2502,-5.2821,-5.3012,-5.3351,-5.3755,-5.4038,-5.3928,-5.3729,-5.2988,-4.7561,-3.8974,-3.8952,-3.8852,-3.9238,-3.9439,-3.964,-3.9748,-4.035,-4.0149,-4.0026,-3.9918,-4.0057,-3.9887,-3.984,-4.0072,-4.0257,-3.9482,-3.8816,-3.8471,-3.7579,-3.694,-3.6391,-3.5619,-3.5363,-3.4552,-3.366,-3.1896,-3.0361,-2.9442,-2.9245,-2.7968,-2.7875,-2.804,-2.7898,-2.7767,-2.6984,-2.6796,-2.6092,-2.4656,-2.3167,-2.2714,-2.1633,-2.0365,-2.0147,-2.0163,-1.9813,-2.0042,-2.0247,-2.0255,-2.0436,-2.0555,-2.0768,-2.0791,-2.0855,-2.1005,-2.1308,-2.1659,-2.1802,-2.2007,-2.2204,-2.2631,-2.2313,-2.1913,-2.1678,-2.1442,-2.0972,-2.0979,-2.0744,-2.0501,-2.0265,-2.0265,-1.9801,-1.9781,-1.9762,-1.9983,-2.0002,-2.047,-2.0575,-2.0053,-1.8486,-1.5884,-1.3028,-1.121,-0.8871,-0.4972,-0.445,-0.4188,-0.4188,-0.4188,-0.4188,-0.4188,-0.4188,-0.4188,-0.4188,-0.4184,-0.4179,-0.4179,-0.4186,-0.4188,-0.4187,-0.4187,-0.4188,-0.4188,-0.4188,-0.4188,-5.3585,-5.4243,-5.3351,-5.2141,-5.0952,-5.2932,-5.2457,-5.0809,-4.8669,-4.3811,-3.762,-3.7447,-3.8124,-3.8651,-3.9037,-3.93,-3.947,-4.0211,-3.9856,-3.9547,-3.9501,-3.9061,-3.8815,-3.896,-3.9306,-3.9981,-3.9235,-3.8381,-3.7707,-3.6543,-3.574,-3.5132,-3.396,-3.2955,-3.2234,-3.1777,-3.0354,-2.8948,-2.7886,-2.7651,-2.7187,-2.7189,-2.7425,-2.7322,-2.6448,-2.5523,-2.5135,-2.3698,-2.2596,-2.2254,-2.2026,-2.1394,-2.1011,-2.0773,-2.0561,-2.0183,-2.0351,-2.0255,-2.0389,-2.0586,-2.0752,-2.0776,-2.0791,-2.0831,-2.0997,-2.0894,-2.1068,-2.1557,-2.1944,-2.2157,-2.2211,-2.2174,-2.2125,-2.2155,-2.1928,-2.1693,-2.1693,-2.1457,-2.1215,-2.0972,-2.0501,-2.003,-1.9958,-2.0054,-2.0252,-2.0429,-2.065,-2.089,-2.015,-1.875,-1.6401,-1.457,-1.2756,-0.9392,-0.5231,-0.4188,-0.4188,-0.4188,-0.4188,-0.4188,-0.4188,-0.4188,-0.4188,-0.4188,-0.4188,-0.4188,-0.4188,-0.4188,-0.4188,-0.4188,-0.4188,-0.4188,-0.4188,-0.4188,-0.4188,-5.2842,-5.2438,-5.2184,-5.2226,-5.2375,-5.1571,-5.0898,-5.016,-4.8447,-4.3514,-3.8107,-3.6783,-3.7279,-3.7879,-3.8204,-3.8466,-3.8327,-3.8837,-3.8667,-3.8528,-3.8528,-3.8287,-3.7915,-3.8324,-3.8887,-3.9104,-3.8517,-3.7953,-3.6836,-3.4979,-3.399,-3.3692,-3.21,-3.0607,-3.0201,-2.9813,-2.9161,-2.797,-2.7034,-2.5691,-2.4773,-2.4508,-2.4577,-2.4239,-2.3898,-2.3555,-2.3564,-2.2806,-2.2614,-2.2388,-2.2079,-2.2041,-2.1708,-2.1475,-2.1069,-2.1016,-2.063,-2.0507,-2.0602,-2.0697,-2.076,-2.0784,-2.0791,-2.0926,-2.1091,-2.0976,-2.1156,-2.192,-2.2118,-2.2354,-2.267,-2.2796,-2.2641,-2.2641,-2.2406,-2.2413,-2.2413,-2.2406,-2.217,-2.1685,-2.0972,-2.0501,-2.0419,-2.044,-2.0472,-2.0648,-2.0908,-2.0889,-1.9818,-1.8468,-1.6908,-1.5575,-1.2999,-0.8871,-0.6271,-0.5489,-0.445,-0.4188,-0.4188,-0.4188,-0.4188,-0.4188,-0.4188,-0.4188,-0.4188,-0.4188,-0.4188,-0.4188,-0.4188,-0.4188,-0.4188,-0.4188,-0.4188,-0.4188,-0.4188,-5.2226,-5.1801,-5.2184,-5.2417,-5.2311,-5.1907,-5.1416,-5.0528,-4.8512,-4.3418,-3.7455,-3.6546,-3.7217,-3.8142,-3.8435,-3.8481,-3.8667,-3.9331,-3.9145,-3.8868,-3.8883,-3.8523,-3.7905,-3.797,-3.8437,-3.8453,-3.7986,-3.7474,-3.6745,-3.4675,-3.293,-3.2787,-3.0619,-2.8923,-2.8093,-2.7806,-2.7354,-2.635,-2.5365,-2.4165,-2.3419,-2.3136,-2.3247,-2.3247,-2.343,-2.3513,-2.3531,-2.3495,-2.3289,-2.3083,-2.3083,-2.2804,-2.2537,-2.2197,-2.1608,-2.1628,-2.121,-2.0997,-2.0784,-2.0776,-2.0784,-2.0791,-2.0949,-2.1091,-2.1047,-2.1211,-2.1516,-2.2118,-2.2252,-2.241,-2.2583,-2.2796,-2.2852,-2.2891,-2.2883,-2.2891,-2.2883,-2.2883,-2.268,-2.2178,-2.1708,-2.1269,-2.0997,-2.1388,-2.1703,-2.174,-2.1889,-2.1805,-2.0688,-1.9254,-1.7929,-1.6591,-1.2473,-0.8605,-0.7306,-0.5745,-0.4707,-0.4188,-0.4188,-0.4188,-0.4188,-0.4188,-0.4188,-0.4188,-0.4188,-0.4188,-0.4188,-0.4188,-0.4188,-0.4188,-0.4188,-0.4188,-0.4188,-0.4188,-0.4188,-5.1929,-5.1993,-5.2757,-5.2651,-5.2057,-5.2988,-5.2861,-5.1575,-4.7979,-4.29,-3.6923,-3.6987,-3.759,-3.8416,-3.913,-3.9393,-3.9547,-3.9763,-3.964,-3.9192,-3.943,-3.9201,-3.8856,-3.8203,-3.8189,-3.8034,-3.7181,-3.7002,-3.6528,-3.469,-3.3386,-3.1803,-2.9471,-2.7739,-2.6186,-2.5932,-2.4904,-2.3541,-2.3357,-2.3164,-2.3237,-2.3504,-2.3632,-2.3742,-2.3917,-2.4064,-2.4027,-2.4018,-2.3835,-2.3872,-2.3908,-2.3733,-2.3548,-2.2903,-2.2266,-2.1841,-2.1636,-2.1423,-2.0997,-2.0784,-2.0791,-2.0957,-2.1123,-2.1297,-2.1486,-2.1683,-2.192,-2.192,-2.2236,-2.2496,-2.2599,-2.2741,-2.2844,-2.2891,-2.2891,-2.2891,-2.2915,-2.2946,-2.2812,-2.2339,-2.2515,-2.2299,-2.2028,-2.2357,-2.265,-2.2753,-2.287,-2.2747,-2.2092,-2.0806,-1.9493,-1.6076,-1.2202,-0.8849,-0.7294,-0.5481,-0.4706,-0.4188,-0.4188,-0.4188,-0.4188,-0.4188,-0.419,-0.4192,-0.4188,-0.4188,-0.4188,-0.4188,-0.4188,-0.4188,-0.4188,-0.4188,-0.4188,-0.4188,-0.4188,-5.2821,-5.2821,-5.3033,-5.284,-5.2774,-5.444,-5.4292,-5.1542,-4.5176,-4.0649,-3.8282,-3.8216,-3.8431,-3.8667,-3.8821,-3.8898,-3.8837,-3.9022,-3.9161,-3.9037,-3.9244,-3.9738,-3.958,-3.8858,-3.7702,-3.7672,-3.7401,-3.7632,-3.6586,-3.3904,-3.1754,-3.0077,-2.7829,-2.5816,-2.4904,-2.4611,-2.4345,-2.3935,-2.3945,-2.3945,-2.3945,-2.4018,-2.4064,-2.4101,-2.4128,-2.4174,-2.4174,-2.4174,-2.4174,-2.4174,-2.4174,-2.3963,-2.3963,-2.3548,-2.2912,-2.2487,-2.1841,-2.1423,-2.1013,-2.0815,-2.0989,-2.1194,-2.1289,-2.1707,-2.2161,-2.2265,-2.2346,-2.2623,-2.2749,-2.2749,-2.2741,-2.2844,-2.2883,-2.2907,-2.2915,-2.2915,-2.2986,-2.3128,-2.3008,-2.3156,-2.3359,-2.3302,-2.3226,-2.3525,-2.2665,-2.2529,-2.1593,-2.1732,-2.1064,-2.0291,-1.8462,-1.5307,-1.2437,-0.9344,-0.7011,-0.546,-0.4707,-0.4451,-0.4451,-0.4188,-0.4188,-0.4188,-0.4458,-0.4463,-0.4463,-0.447,-0.4192,-0.4188,-0.4192,-0.4192,-0.419,-0.4188,-0.4188,-0.4188,-0.4188,-5.3372,-5.3776,-5.3776,-5.2882,-5.225,-5.4206,-5.2266,-4.6913,-4.2596,-4.0229,-3.9763,-3.971,-3.9609,-3.9609,-3.9609,-3.9609,-3.9655,-3.9609,-3.9593,-3.9609,-3.9803,-4.0174,-4.0292,-3.9337,-3.844,-3.7968,-3.8081,-3.7652,-3.628,-3.3051,-3.055,-2.8513,-2.6274,-2.4818,-2.4174,-2.4174,-2.4156,-2.4156,-2.4156,-2.4156,-2.4165,-2.4165,-2.4174,-2.4174,-2.4174,-2.4174,-2.4174,-2.4174,-2.4174,-2.4174,-2.4174,-2.4174,-2.3972,-2.376,-2.3336,-2.2946,-2.2452,-2.2123,-2.1484,-2.1218,-2.1328,-2.1557,-2.1754,-2.2137,-2.2353,-2.2616,-2.267,-2.2828,-2.2891,-2.2891,-2.2891,-2.2883,-2.2978,-2.3073,-2.3136,-2.3144,-2.3207,-2.3459,-2.3336,-2.343,-2.3519,-2.3782,-2.3851,-2.2857,-2.2457,-2.177,-2.083,-1.9913,-1.899,-1.7963,-1.6924,-1.4266,-1.2394,-0.9554,-0.747,-0.597,-0.4973,-0.4713,-0.4713,-0.4451,-0.4188,-0.4188,-0.4457,-0.4485,-0.4495,-0.4771,-0.4495,-0.4221,-0.4207,-0.4199,-0.4194,-0.4188,-0.4188,-0.4188,-0.4188,-5.4009,-5.4731,-5.4554,-5.3086,-5.1239,-5.2417,-4.8469,-4.1346,-4.084,-4.0563,-4.0566,-4.0643,-4.0551,-4.0582,-4.0643,-4.0643,-4.0474,-4.0443,-4.0489,-4.0504,-4.0489,-4.0532,-4.0582,-4.002,-3.9547,-3.9021,-3.8529,-3.765,-3.5674,-3.2446,-2.9945,-2.8118,-2.5853,-2.4395,-2.4174,-2.4174,-2.4174,-2.4174,-2.4174,-2.4174,-2.4174,-2.4174,-2.4174,-2.4174,-2.4174,-2.4174,-2.4174,-2.4174,-2.4174,-2.4174,-2.4174,-2.4174,-2.3963,-2.3963,-2.3814,-2.3531,-2.3165,-2.2926,-2.2293,-2.208,-2.2018,-2.196,-2.2118,-2.2299,-2.2473,-2.2694,-2.282,-2.2891,-2.2891,-2.2891,-2.2891,-2.2986,-2.312,-2.3278,-2.3349,-2.3349,-2.3452,-2.3767,-2.3859,-2.2801,-2.3213,-2.358,-2.1945,-2.0635,-2.0137,-1.9376,-1.8894,-1.817,-1.7188,-1.6148,-1.4852,-1.3228,-1.1868,-0.9518,-0.7698,-0.6239,-0.5496,-0.5235,-0.5235,-0.4972,-0.4713,-0.4713,-0.4485,-0.4802,-0.4826,-0.4814,-0.4539,-0.4266,-0.4243,-0.42,-0.4192,-0.419,-0.4188,-0.4188,-0.4188,-5.5559,-5.5687,-5.5166,-5.3649,-5.1192,-4.9019,-4.5406,-4.0919,-4.0625,-4.0597,-4.0674,-4.0674,-4.0674,-4.0674,-4.0674,-4.0674,-4.0674,-4.0674,-4.0674,-4.0674,-4.0674,-4.0566,-4.0703,-4.0443,-4.0319,-4.0198,-3.8769,-3.7202,-3.5362,-3.2907,-2.9598,-2.7742,-2.6083,-2.5029,-2.4174,-2.4174,-2.4174,-2.4174,-2.4174,-2.4174,-2.4174,-2.4174,-2.4174,-2.4174,-2.4174,-2.4174,-2.4174,-2.4174,-2.4174,-2.4174,-2.4174,-2.4174,-2.4174,-2.399,-2.409,-2.3859,-2.3985,-2.3725,-2.3109,-2.2737,-2.2459,-2.226,-2.2346,-2.2489,-2.271,-2.2844,-2.2891,-2.2891,-2.2891,-2.2891,-2.2915,-2.3057,-2.3254,-2.3396,-2.3404,-2.3388,-2.3554,-2.4241,-2.3426,-2.2148,-2.2101,-2.1558,-2.0034,-1.8222,-1.7705,-1.7182,-1.6918,-1.6406,-1.5371,-1.4074,-1.2517,-1.0922,-0.9616,-0.7782,-0.7518,-0.6279,-0.6277,-0.6016,-0.6014,-0.5758,-0.5763,-0.5535,-0.5324,-0.5387,-0.5153,-0.4585,-0.4304,-0.4298,-0.4264,-0.4207,-0.4188,-0.4188,-0.4188,-0.4188,-0.4188,-5.608,-5.5899,-5.5718,-5.3241,-4.9811,-4.8052,-4.4913,-4.1234,-4.0597,-4.0674,-4.0674,-4.0674,-4.0674,-4.0674,-4.0674,-4.0674,-4.0674,-4.0674,-4.0674,-4.0674,-4.0674,-4.0674,-4.0674,-4.0674,-4.0552,-4.0212,-3.8312,-3.5797,-3.3318,-3.0843,-2.8578,-2.6714,-2.5441,-2.4606,-2.4174,-2.4174,-2.4174,-2.4193,-2.4174,-2.4174,-2.4174,-2.4174,-2.4174,-2.4174,-2.4174,-2.4174,-2.4193,-2.4183,-2.4174,-2.4174,-2.4183,-2.4266,-2.4441,-2.433,-2.4309,-2.4608,-2.4827,-2.4347,-2.3981,-2.3629,-2.3107,-2.3071,-2.2863,-2.2749,-2.2836,-2.2891,-2.2891,-2.2891,-2.2891,-2.2891,-2.2907,-2.3081,-2.3349,-2.3523,-2.368,-2.3759,-2.3933,-2.4186,-2.3609,-2.2983,-2.1139,-1.9726,-1.7958,-1.6148,-1.5112,-1.4338,-1.4079,-1.278,-1.1744,-1.1744,-1.0186,-0.9404,-0.8103,-0.7322,-0.7322,-0.7061,-0.7061,-0.6797,-0.6546,-0.6563,-0.6615,-0.6406,-0.6185,-0.5714,-0.5506,-0.4923,-0.4601,-0.4326,-0.4305,-0.4235,-0.4188,-0.4188,-0.4188,-0.4188,-0.4188,-5.608,-5.5899,-5.5697,-5.2832,-4.864,-4.7899,-4.5034,-4.0659,-4.0659,-4.0674,-4.0674,-4.0674,-4.0674,-4.0674,-4.0674,-4.0674,-4.0674,-4.0674,-4.0674,-4.0674,-4.0674,-4.0674,-4.0674,-4.0674,-4.0598,-3.9886,-3.733,-3.4368,-3.1683,-2.9401,-2.7124,-2.5872,-2.4818,-2.4174,-2.4174,-2.4183,-2.4202,-2.4303,-2.433,-2.4395,-2.4477,-2.4514,-2.4523,-2.4514,-2.4505,-2.4441,-2.4349,-2.4229,-2.4266,-2.4413,-2.4542,-2.4744,-2.49,-2.4863,-2.5065,-2.5319,-2.5456,-2.5224,-2.5038,-2.4279,-2.3773,-2.3522,-2.3062,-2.2891,-2.2891,-2.2891,-2.2891,-2.2891,-2.2891,-2.2891,-2.2915,-2.2954,-2.3254,-2.3586,-2.3744,-2.3902,-2.428,-2.3782,-2.2805,-2.191,-2.0098,-1.8732,-1.7694,-1.33,-1.2004,-1.1488,-1.0189,-0.8891,-0.863,-0.8891,-0.863,-0.8888,-0.7847,-0.7847,-0.7847,-0.7847,-0.7585,-0.7585,-0.7096,-0.6866,-0.7259,-0.7071,-0.6857,-0.6362,-0.5853,-0.5239,-0.4899,-0.4616,-0.4584,-0.4248,-0.4188,-0.4188,-0.4188,-0.4188,-0.4188,-5.608,-5.592,-5.4971,-5.2092,-4.8469,-4.7171,-4.4273,-4.1041,-4.0674,-4.0674,-4.0674,-4.0674,-4.0674,-4.0674,-4.0674,-4.0674,-4.0674,-4.0674,-4.0674,-4.0674,-4.0674,-4.0674,-4.0659,-4.0459,-4.0167,-3.97,-3.7315,-3.4368,-3.1476,-2.8776,-2.7124,-2.5931,-2.4653,-2.4202,-2.4321,-2.4266,-2.4404,-2.4679,-2.4744,-2.4872,-2.5074,-2.512,-2.5111,-2.512,-2.512,-2.5001,-2.4734,-2.4486,-2.4523,-2.523,-2.5497,-2.5423,-2.5396,-2.6048,-2.6186,-2.6085,-2.6268,-2.5793,-2.4906,-2.4673,-2.4265,-2.3345,-2.3118,-2.2891,-2.2891,-2.2891,-2.2891,-2.2891,-2.2891,-2.2891,-2.2923,-2.3152,-2.3349,-2.3499,-2.3483,-2.3767,-2.3774,-2.2362,-2.0098,-1.7379,-1.4982,-1.2245,-1.045,-0.9155,-0.8891,-0.9671,-0.9152,-0.8371,-0.8371,-0.8371,-0.8371,-0.8371,-0.8371,-0.8371,-0.8371,-0.8374,-0.8113,-0.8141,-0.7405,-0.7213,-0.7614,-0.7461,-0.7532,-0.7294,-0.6463,-0.5856,-0.5496,-0.5154,-0.484,-0.478,-0.4725,-0.4453,-0.4188,-0.4188,-0.4188,-5.5718,-5.5355,-5.3812,-5.1142,-4.7708,-4.4532,-4.2317,-4.0827,-4.0674,-4.0674,-4.0674,-4.0674,-4.0674,-4.0674,-4.0674,-4.0674,-4.0674,-4.0674,-4.0674,-4.0674,-4.069,-4.0705,-4.0275,-3.92,-3.8441,-3.7547,-3.543,-3.2945,-3.0268,-2.8578,-2.7067,-2.6197,-2.5185,-2.467,-2.4826,-2.4891,-2.4992,-2.5111,-2.5157,-2.5221,-2.5387,-2.5396,-2.5405,-2.5405,-2.5396,-2.535,-2.5184,-2.4982,-2.5019,-2.5322,-2.5506,-2.5625,-2.5772,-2.6112,-2.6296,-2.6397,-2.6507,-2.6133,-2.5425,-2.4958,-2.4265,-2.3571,-2.3118,-2.2891,-2.2891,-2.2891,-2.2891,-2.2891,-2.2891,-2.2891,-2.2915,-2.301,-2.327,-2.3546,-2.3507,-2.3673,-2.4344,-2.2009,-2.0034,-1.8328,-1.5312,-1.2004,-1.0971,-0.9413,-0.8633,-0.8371,-0.8371,-0.8371,-0.8371,-0.8371,-0.8371,-0.8371,-0.8371,-0.8371,-0.8371,-0.8385,-0.839,-0.8472,-0.8005,-0.7811,-0.7953,-0.7543,-0.7314,-0.706,-0.7076,-0.6768,-0.6387,-0.602,-0.5675,-0.5332,-0.5009,-0.4718,-0.4453,-0.4188,-0.4188,-5.5153,-5.422,-5.2482,-4.983,-4.635,-4.2447,-4.062,-4.0643,-4.0674,-4.0674,-4.0674,-4.0674,-4.0674,-4.0674,-4.0674,-4.0674,-4.0674,-4.0674,-4.0674,-4.069,-4.0813,-4.0999,-4.0749,-3.9127,-3.704,-3.4695,-3.3604,-3.1895,-2.9192,-2.7983,-2.7047,-2.6244,-2.5401,-2.5111,-2.535,-2.535,-2.5442,-2.5543,-2.5561,-2.5607,-2.5717,-2.5754,-2.5717,-2.5717,-2.5745,-2.569,-2.557,-2.5561,-2.5589,-2.5699,-2.5717,-2.5873,-2.614,-2.6213,-2.6342,-2.6535,-2.6608,-2.6366,-2.5667,-2.52,-2.4491,-2.3781,-2.3337,-2.3118,-2.2883,-2.2891,-2.2891,-2.2891,-2.2891,-2.2891,-2.2891,-2.2899,-2.3104,-2.3554,-2.3704,-2.3656,-2.2798,-2.0929,-1.8973,-1.8095,-1.4039,-1.1741,-1.045,-0.9413,-0.8371,-0.8371,-0.8371,-0.8371,-0.8371,-0.8371,-0.8371,-0.8371,-0.8371,-0.8371,-0.8382,-0.8401,-0.8451,-0.8541,-0.8639,-0.8451,-0.8046,-0.788,-0.7631,-0.7372,-0.7655,-0.7622,-0.7247,-0.69,-0.6519,-0.5885,-0.5566,-0.5003,-0.4731,-0.4451,-0.4451,-5.4016,-5.2257,-5.1181,-4.8525,-4.4628,-4.1781,-4.0714,-4.0628,-4.0674,-4.0674,-4.0674,-4.0674,-4.0674,-4.0674,-4.0674,-4.0674,-4.0674,-4.0674,-4.0674,-4.0829,-4.1276,-4.1786,-4.2249,-4.1138,-3.7313,-3.2622,-3.247,-3.1361,-2.8913,-2.7621,-2.6448,-2.5803,-2.5599,-2.5405,-2.5506,-2.5432,-2.5662,-2.5947,-2.5993,-2.6158,-2.6443,-2.648,-2.648,-2.647,-2.6443,-2.6296,-2.6039,-2.5993,-2.6149,-2.647,-2.6443,-2.6443,-2.6544,-2.6571,-2.6544,-2.659,-2.6608,-2.6375,-2.59,-2.5434,-2.4958,-2.3781,-2.3563,-2.3563,-2.3118,-2.2891,-2.2891,-2.2891,-2.2891,-2.2891,-2.2891,-2.2923,-2.2954,-2.3088,-2.3728,-2.2943,-2.0868,-1.8292,-1.6014,-1.3383,-1.0622,-0.863,-0.8891,-0.863,-0.8371,-0.8371,-0.8371,-0.8371,-0.8371,-0.8371,-0.8371,-0.8371,-0.8371,-0.8385,-0.843,-0.8456,-0.853,-0.8634,-0.8761,-0.8867,-0.8721,-0.8759,-0.8502,-0.8785,-0.878,-0.8445,-0.8104,-0.7781,-0.742,-0.6762,-0.6153,-0.5573,-0.5012,-0.4723,-0.4453,-5.4199,-5.1534,-4.983,-4.7171,-4.3933,-4.1692,-4.0734,-4.0659,-4.0674,-4.0674,-4.0674,-4.0674,-4.0674,-4.0674,-4.0674,-4.0674,-4.0674,-4.0674,-4.0674,-4.0782,-4.1385,-4.2053,-4.2616,-4.3046,-3.9211,-3.308,-3.0788,-2.9354,-2.7833,-2.7189,-2.6659,-2.5988,-2.5791,-2.5892,-2.614,-2.6158,-2.6213,-2.6351,-2.6397,-2.6461,-2.6581,-2.6608,-2.6608,-2.6608,-2.6608,-2.6535,-2.6415,-2.6397,-2.6461,-2.6571,-2.6608,-2.6608,-2.6608,-2.6608,-2.6608,-2.6608,-2.6608,-2.6366,-2.5667,-2.5667,-2.5192,-2.4015,-2.3789,-2.3563,-2.3118,-2.2891,-2.2891,-2.2891,-2.2891,-2.2891,-2.2923,-2.3057,-2.3191,-2.3207,-2.3783,-2.2898,-2.0371,-1.6517,-1.3758,-1.2198,-0.9891,-0.8624,-0.8371,-0.8371,-0.8371,-0.8371,-0.8371,-0.8371,-0.8371,-0.8371,-0.8371,-0.8371,-0.8374,-0.8411,-0.8464,-0.8536,-0.8607,-0.8734,-0.8867,-0.8981,-0.9047,-0.9063,-0.9068,-0.9068,-0.9068,-0.8736,-0.8721,-0.8393,-0.8338,-0.7679,-0.703,-0.644,-0.5592,-0.5289,-0.4731,-5.3812,-5.1181,-4.8848,-4.6228,-4.3592,-4.1454,-4.0674,-4.0674,-4.0674,-4.0674,-4.0674,-4.0674,-4.0674,-4.0674,-4.0674,-4.0674,-4.0674,-4.069,-4.0921,-4.1354,-4.1802,-4.2503,-4.3287,-4.3485,-3.9819,-3.3427,-2.9948,-2.8225,-2.7582,-2.7142,-2.659,-2.6387,-2.6213,-2.6351,-2.6562,-2.6608,-2.6608,-2.6608,-2.6608,-2.6608,-2.6608,-2.6608,-2.6608,-2.6608,-2.6608,-2.6608,-2.6608,-2.6608,-2.6608,-2.6608,-2.6608,-2.6608,-2.6608,-2.6608,-2.6608,-2.6608,-2.6608,-2.6375,-2.6133,-2.59,-2.5434,-2.4257,-2.4015,-2.3563,-2.3118,-2.2891,-2.2891,-2.2891,-2.2891,-2.2891,-2.2923,-2.3112,-2.3309,-2.3531,-2.3965,-2.3632,-2.1791,-1.7347,-1.3551,-1.1488,-0.9413,-0.8371,-0.8371,-0.8371,-0.8371,-0.8371,-0.8371,-0.8371,-0.8371,-0.8371,-0.8371,-0.8371,-0.8385,-0.8406,-0.8501,-0.8589,-0.8681,-0.8806,-0.8936,-0.9052,-0.9063,-0.9068,-0.9068,-0.9068,-0.9068,-0.9055,-0.9047,-0.901,-0.867,-0.8298,-0.7676,-0.7066,-0.6195,-0.5613,-0.5308,-5.3261,-5.0975,-4.8162,-4.5684,-4.3379,-4.1438,-4.0674,-4.0674,-4.0674,-4.0674,-4.0674,-4.0674,-4.0674,-4.0674,-4.0674,-4.0674,-4.0674,-4.0674,-4.123,-4.2249,-4.2512,-4.3238,-4.4086,-4.2415,-3.8786,-3.3425,-3.0086,-2.8368,-2.8089,-2.7396,-2.672,-2.6571,-2.6553,-2.6553,-2.6608,-2.6608,-2.6608,-2.6608,-2.6608,-2.6608,-2.6608,-2.6608,-2.6608,-2.6608,-2.6608,-2.6608,-2.6608,-2.6608,-2.6608,-2.6608,-2.6608,-2.6608,-2.6608,-2.6608,-2.6608,-2.6608,-2.6608,-2.6608,-2.6608,-2.6608,-2.59,-2.4958,-2.424,-2.3781,-2.311,-2.2891,-2.2891,-2.2891,-2.2891,-2.2891,-2.2899,-2.2994,-2.327,-2.3846,-2.4399,-2.4516,-2.3339,-1.9763,-1.4598,-1.0192,-0.8633,-0.8371,-0.8371,-0.8371,-0.8371,-0.8371,-0.8371,-0.8371,-0.8371,-0.8371,-0.8371,-0.8371,-0.8377,-0.8422,-0.8528,-0.8639,-0.875,-0.8856,-0.8951,-0.8999,-0.8975,-0.9018,-0.901,-0.9023,-0.9023,-0.9068,-0.9057,-0.9049,-0.8991,-0.8675,-0.8346,-0.7725,-0.7099,-0.6483,-0.5902,-5.3036,-4.9434,-4.7972,-4.5102,-4.1637,-4.0873,-4.0674,-4.0674,-4.0674,-4.0674,-4.0674,-4.0674,-4.0674,-4.0674,-4.0674,-4.0674,-4.0674,-4.0674,-4.089,-4.1369,-4.2265,-4.3037,-4.3042,-4.1828,-3.7937,-3.2073,-2.97,-2.8186,-2.7287,-2.7519,-2.7287,-2.6617,-2.6608,-2.6608,-2.6608,-2.6608,-2.6608,-2.6608,-2.6608,-2.6608,-2.6608,-2.6608,-2.6608,-2.6608,-2.6608,-2.6608,-2.6608,-2.6608,-2.6608,-2.6608,-2.6608,-2.6608,-2.6608,-2.6608,-2.6608,-2.6608,-2.6608,-2.6608,-2.6608,-2.6608,-2.6366,-2.5425,-2.4474,-2.4006,-2.3555,-2.311,-2.2891,-2.2891,-2.2891,-2.2891,-2.297,-2.3317,-2.3767,-2.4194,-2.4454,-2.3915,-2.2328,-2.0549,-1.6918,-1.2265,-0.9674,-0.8633,-0.8371,-0.8371,-0.8371,-0.8371,-0.8371,-0.8371,-0.8371,-0.8371,-0.8371,-0.8371,-0.8371,-0.8427,-0.8512,-0.8575,-0.8663,-0.8737,-0.8824,-0.8814,-0.8811,-0.8893,-0.8936,-0.8957,-0.8991,-0.9044,-0.9068,-0.9068,-0.9047,-0.9018,-0.8659,-0.8027,-0.7723,-0.7099,-0.6519,-5.2462,-4.9226,-4.6997,-4.4536,-4.1851,-4.0858,-4.0674,-4.0674,-4.0674,-4.0674,-4.0674,-4.0674,-4.0674,-4.0674,-4.0674,-4.0674,-4.0674,-4.0674,-4.0798,-4.0936,-4.1293,-4.1889,-4.2341,-4.0194,-3.5949,-3.0925,-2.971,-2.8669,-2.7074,-2.7297,-2.7297,-2.6841,-2.6608,-2.6608,-2.6608,-2.6608,-2.6608,-2.6608,-2.6608,-2.6608,-2.6608,-2.6608,-2.6608,-2.6608,-2.6608,-2.6608,-2.6608,-2.6608,-2.6608,-2.6608,-2.6608,-2.6608,-2.6608,-2.6608,-2.6608,-2.6608,-2.6608,-2.6608,-2.6608,-2.6608,-2.6366,-2.5667,-2.52,-2.4742,-2.3789,-2.3337,-2.2891,-2.2915,-2.2978,-2.3152,-2.3317,-2.3759,-2.4194,-2.4399,-2.4533,-2.3961,-2.2563,-2.1321,-1.899,-1.4857,-1.1488,-0.9413,-0.8891,-0.8371,-0.8371,-0.8371,-0.8371,-0.8371,-0.8371,-0.8371,-0.8371,-0.8371,-0.8374,-0.8401,-0.8483,-0.8512,-0.8565,-0.8634,-0.8689,-0.8702,-0.8724,-0.8803,-0.8822,-0.8838,-0.8856,-0.8896,-0.8893,-0.8893,-0.8893,-0.8877,-0.8864,-0.8541,-0.8331,-0.7676,-0.7105,-5.1721,-5.0432,-4.5877,-4.3771,-4.3396,-4.1438,-4.0674,-4.0674,-4.0674,-4.0674,-4.0674,-4.0674,-4.0674,-4.0674,-4.0674,-4.0674,-4.0674,-4.0674,-4.0983,-4.1289,-4.0038,-4.0389,-4.2115,-3.8133,-3.4001,-3.0644,-3.042,-2.9382,-2.7306,-2.7074,-2.6841,-2.6608,-2.6608,-2.6608,-2.6608,-2.6608,-2.6608,-2.6608,-2.6608,-2.6608,-2.6608,-2.6608,-2.6608,-2.6608,-2.6608,-2.6608,-2.6608,-2.6608,-2.6608,-2.6608,-2.6608,-2.6608,-2.6608,-2.6608,-2.6608,-2.6608,-2.6608,-2.6608,-2.6608,-2.6608,-2.6375,-2.5909,-2.6187,-2.5729,-2.4023,-2.3345,-2.2907,-2.2931,-2.327,-2.3594,-2.3886,-2.4225,-2.4454,-2.4501,-2.4754,-2.4904,-2.4695,-2.262,-2.0027,-1.6924,-1.4079,-1.1748,-0.863,-0.8371,-0.8371,-0.8371,-0.8371,-0.8371,-0.8371,-0.8371,-0.8371,-0.8371,-0.8371,-0.8374,-0.8385,-0.8448,-0.8514,-0.8546,-0.8594,-0.8671,-0.8692,-0.8705,-0.8708,-0.8716,-0.875,-0.8758,-0.8726,-0.8724,-0.8747,-0.875,-0.8745,-0.8766,-0.8552,-0.795,-0.766,-4.9849,-4.8353,-4.5456,-4.3166,-4.1438,-4.0858,-4.0674,-4.0674,-4.0674,-4.0674,-4.0674,-4.0674,-4.0674,-4.0674,-4.0674,-4.0674,-4.0674,-4.0674,-4.0782,-4.0782,-3.9845,-3.8755,-3.7742,-3.6282,-3.4049,-3.0979,-3.1162,-3.1227,-3.0526,-2.9844,-2.8457,-2.685,-2.6608,-2.6608,-2.6608,-2.6608,-2.6608,-2.6608,-2.6608,-2.6608,-2.6608,-2.6608,-2.6608,-2.6608,-2.6608,-2.6608,-2.6608,-2.6608,-2.6608,-2.6608,-2.6608,-2.6608,-2.6608,-2.6608,-2.6608,-2.6608,-2.6608,-2.6608,-2.6608,-2.6608,-2.6608,-2.6375,-2.643,-2.5972,-2.4508,-2.3579,-2.2994,-2.3231,-2.3791,-2.4115,-2.4312,-2.4596,-2.4793,-2.4809,-2.4872,-2.4943,-2.4695,-2.4431,-2.1842,-1.7699,-1.5894,-1.3819,-0.9674,-0.8371,-0.8371,-0.8371,-0.8371,-0.8371,-0.8371,-0.8371,-0.8371,-0.8371,-0.8371,-0.8371,-0.8377,-0.8414,-0.8414,-0.8432,-0.8448,-0.8488,-0.8467,-0.8552,-0.8594,-0.8602,-0.8676,-0.8697,-0.8668,-0.8689,-0.8716,-0.8713,-0.871,-0.8724,-0.8758,-0.8742,-0.8192,-4.7189,-4.6035,-4.3933,-4.2001,-4.0659,-4.0674,-4.0674,-4.0674,-4.0674,-4.0674,-4.0674,-4.0674,-4.0674,-4.0674,-4.0674,-4.0674,-4.0674,-4.0674,-4.0674,-4.0506,-3.8632,-3.7222,-3.5622,-3.4542,-3.3131,-3.1995,-3.1348,-3.1238,-3.1227,-3.0075,-2.8457,-2.6841,-2.6608,-2.6608,-2.6608,-2.6608,-2.6608,-2.6608,-2.6608,-2.6608,-2.6608,-2.6608,-2.6608,-2.6608,-2.6608,-2.6608,-2.6608,-2.6608,-2.6608,-2.6608,-2.6608,-2.6608,-2.6608,-2.6608,-2.6608,-2.6608,-2.6608,-2.6608,-2.6608,-2.6366,-2.6142,-2.6133,-2.5945,-2.5478,-2.4257,-2.3466,-2.316,-2.3396,-2.3744,-2.4067,-2.4209,-2.4533,-2.473,-2.45,-2.3835,-2.3134,-2.3134,-2.3141,-2.1064,-1.6148,-1.5894,-1.4598,-0.9931,-0.8371,-0.8371,-0.8371,-0.8371,-0.8371,-0.8371,-0.8371,-0.8371,-0.8371,-0.8371,-0.8371,-0.8371,-0.8371,-0.8374,-0.8374,-0.8371,-0.8371,-0.8387,-0.8443,-0.8477,-0.848,-0.852,-0.8554,-0.8583,-0.8573,-0.8575,-0.8562,-0.857,-0.8594,-0.8642,-0.8647,-0.862,-4.4071,-4.3522,-4.1368,-4.0504,-4.0551,-4.0643,-4.0674,-4.0674,-4.0674,-4.0643,-4.0551,-4.0597,-4.0597,-4.0659,-4.0674,-4.0674,-4.0674,-4.0459,-4.0459,-4.026,-3.7231,-3.5685,-3.561,-3.2291,-3.1783,-3.3049,-3.1424,-3.0473,-3.0316,-2.9141,-2.7983,-2.6841,-2.6608,-2.6608,-2.6608,-2.6608,-2.6608,-2.6608,-2.6608,-2.6608,-2.6608,-2.6608,-2.6608,-2.6608,-2.6608,-2.6599,-2.6535,-2.6553,-2.6535,-2.6498,-2.648,-2.6489,-2.648,-2.6489,-2.6489,-2.647,-2.648,-2.6525,-2.6553,-2.6124,-2.5667,-2.5667,-2.5218,-2.4516,-2.3805,-2.3397,-2.3133,-2.3404,-2.3428,-2.3398,-2.3633,-2.3689,-2.3609,-2.3115,-2.1552,-2.0484,-2.0471,-2.051,-1.8451,-1.3036,-1.4598,-1.4334,-0.941,-0.8371,-0.8371,-0.8371,-0.8371,-0.8371,-0.8371,-0.8371,-0.8371,-0.8371,-0.8371,-0.8371,-0.8371,-0.8371,-0.8371,-0.8371,-0.8371,-0.8371,-0.8371,-0.8377,-0.8374,-0.8406,-0.8401,-0.8406,-0.8398,-0.8374,-0.839,-0.8422,-0.8419,-0.8414,-0.8499,-0.8533,-0.8501,-4.0784,-4.0007,-3.926,-3.9393,-3.9918,-4.0443,-4.0674,-4.0674,-4.0659,-4.0625,-4.0629,-4.0582,-4.0636,-4.0643,-4.0674,-4.0674,-4.0459,-3.946,-3.946,-4.026,-3.7216,-3.5672,-3.5531,-3.3186,-3.1612,-3.109,-3.0387,-2.9961,-3.0054,-2.891,-2.8205,-2.7983,-2.7074,-2.6608,-2.6608,-2.6608,-2.6608,-2.6608,-2.6608,-2.6608,-2.6608,-2.6608,-2.6608,-2.6608,-2.6599,-2.647,-2.6176,-2.6158,-2.6011,-2.5699,-2.5671,-2.5671,-2.568,-2.5671,-2.5671,-2.5671,-2.5671,-2.5818,-2.6131,-2.6424,-2.6142,-2.5667,-2.4967,-2.4499,-2.3814,-2.3659,-2.3636,-2.342,-2.357,-2.2783,-2.1365,-2.0964,-2.027,-1.828,-1.7592,-1.7468,-1.7374,-1.7413,-1.6198,-1.3275,-1.304,-1.2261,-0.9413,-0.8371,-0.8371,-0.8371,-0.8371,-0.8371,-0.8371,-0.8371,-0.8371,-0.8371,-0.8371,-0.8371,-0.8371,-0.8371,-0.8371,-0.8371,-0.8371,-0.8371,-0.8371,-0.8371,-0.8371,-0.8371,-0.8371,-0.8371,-0.8371,-0.8371,-0.8371,-0.8371,-0.8371,-0.8382,-0.8419,-0.8422,-0.8401,-3.9187,-3.8794,-3.8605,-3.8837,-3.9192,-3.9803,-4.0215,-4.0457,-3.9266,-3.9067,-3.9654,-4.0324,-4.0478,-4.018,-3.9391,-3.916,-3.946,-3.7837,-3.7635,-3.824,-3.5797,-3.5181,-3.5306,-3.217,-3.0192,-2.9804,-2.9161,-2.9072,-2.9078,-2.8579,-2.7974,-2.7538,-2.7035,-2.6985,-2.7141,-2.6985,-2.6893,-2.6884,-2.5641,-2.5038,-2.486,-2.3665,-2.3093,-2.2931,-2.3093,-2.3076,-2.2672,-2.2663,-2.257,-2.2359,-2.235,-2.2941,-2.3939,-2.3965,-2.4344,-2.5368,-2.5396,-2.5506,-2.5726,-2.5938,-2.582,-2.5144,-2.4613,-2.3716,-2.2853,-2.327,-2.3159,-2.2678,-2.189,-2.0873,-1.9562,-1.8485,-1.7396,-1.6044,-1.5168,-1.4522,-1.4623,-1.4647,-1.3473,-1.1085,-1.1633,-1.1404,-0.8624,-0.8371,-0.8371,-0.8371,-0.8371,-0.8371,-0.8371,-0.8371,-0.8371,-0.8371,-0.8371,-0.8371,-0.8371,-0.8371,-0.8371,-0.8371,-0.8371,-0.8371,-0.8371,-0.8371,-0.8371,-0.8371,-0.8371,-0.8371,-0.8371,-0.8371,-0.8371,-0.8371,-0.8371,-0.8371,-0.8371,-0.8371,-0.8371,-3.8312,-3.8327,-3.8327,-3.8389,-3.867,-3.8717,-3.9407,-3.9943,-3.7514,-3.7453,-3.8701,-3.9816,-3.9991,-3.9485,-3.7917,-3.7682,-3.8095,-3.64,-3.5606,-3.5674,-3.4034,-3.3894,-3.4638,-3.0704,-2.8792,-2.8653,-2.7903,-2.7661,-2.7533,-2.7923,-2.7472,-2.6887,-2.7031,-2.7426,-2.7756,-2.7481,-2.7205,-2.6712,-2.4495,-2.3213,-2.3475,-2.1252,-1.9711,-1.9027,-1.9367,-1.921,-1.8711,-1.8802,-1.8749,-1.856,-1.8552,-1.9414,-2.1243,-2.1458,-2.2273,-2.4138,-2.4228,-2.4527,-2.4909,-2.4698,-2.4771,-2.4497,-2.3922,-2.2741,-2.1138,-2.1962,-2.2306,-2.0914,-1.9151,-1.7848,-1.7391,-1.5765,-1.4775,-1.425,-1.273,-1.1616,-1.1619,-1.1647,-1.0744,-0.8626,-1.0198,-1.0541,-0.884,-0.8358,-0.8371,-0.8371,-0.8371,-0.8371,-0.8371,-0.8371,-0.8371,-0.8371,-0.8371,-0.8371,-0.8371,-0.8371,-0.8371,-0.8371,-0.8371,-0.8371,-0.8371,-0.8371,-0.8371,-0.8371,-0.8371,-0.8371,-0.8371,-0.8371,-0.8371,-0.8371,-0.8371,-0.8371,-0.8371,-0.8329,-0.8313,-3.6953,-3.6953,-3.6953,-3.7292,-3.7817,-3.7355,-3.7196,-3.7182,0.0,0.0,0.0,-3.8467,-3.8609,-3.879,-3.86,-3.7991,-3.7186,-3.5343,-3.4586,-3.5035,-3.3436,-3.1967,-3.0638,-3.0885,-2.926,-2.6149,-2.6393,-2.6485,-2.5961,-2.6382,-2.6517,-2.6617,-2.7031,-2.7435,-2.7784,-2.7747,-2.6575,-2.4174,-2.318,-2.3786,-2.5781,-2.5619,-2.402,-2.1333,-2.1749,-2.0614,-1.7948,-1.8204,-1.7999,-1.6925,-1.7037,-1.7091,-1.757,-1.7578,-1.8008,-1.8937,-1.8431,-1.9205,-2.1936,-2.1558,-2.2367,-2.5101,-2.4586,-2.183,-1.6402,-1.9706,-2.0343,-1.6386,-1.5923,-1.4583,-1.2589,-1.2172,-1.106,-0.9027,-0.859,-0.8424,-0.8292,-0.8393,-0.8263,-0.7903,-0.8567,-0.8714,-0.8226,-0.8308,-0.8371,-0.8371,-0.8371,-0.8371,-0.8371,-0.8366,-0.8363,-0.8369,-0.8371,-0.8371,-0.8371,-0.8371,-0.8371,-0.8371,-0.8371,-0.8371,-0.8371,-0.8371,-0.8371,-0.8363,-0.8371,-0.8363,-0.8369,-0.8356,-0.8371,-0.8371,-0.8371,-0.8371,-0.8356,-0.8223,-0.8128,-3.6598,-3.6598,-3.6598,-3.6798,0.0,-3.6682,-3.6622,-3.6467,-3.6468,-3.701,-3.7564,-3.7335,-3.7509,-3.8126,-3.7362,-3.6367,-3.5412,-3.354,-3.2605,-3.2101,-3.1581,-3.0638,-2.9325,-2.9534,-2.8445,-2.6533,-2.5963,-2.5553,-2.512,-2.5506,-2.5598,-2.5387,-2.5122,-2.4878,-2.4497,-2.4174,-2.3002,-2.1452,-2.2471,-2.3717,-2.4727,-2.3527,-2.1841,-2.0195,-2.0646,0.0,0.0,0.0,0.0,0.0,0.0,0.0,0.0,0.0,0.0,-1.8447,-1.6243,-1.5823,-1.7751,-1.7233,-1.7666,-1.9657,-1.9362,-1.6177,-0.955,-1.4402,-1.6772,-1.4169,-1.2932,-1.1948,-1.1002,-0.9702,-0.8611,-0.7546,-0.7325,-0.7347,-0.7407,-0.7466,-0.7545,-0.7664,-0.7826,-0.7985,-0.8091,-0.821,-0.8303,-0.8361,-0.8371,-0.8371,-0.8369,-0.8324,-0.8311,-0.8363,-0.8371,-0.8371,-0.8371,-0.8371,-0.8371,-0.8371,-0.8371,-0.8371,-0.8371,-0.8371,-0.8353,-0.8295,-0.8287,-0.826,-0.8213,-0.8194,-0.8194,-0.8194,-0.8194,-0.8194,-0.8186,-0.8101,-0.804,-3.6212,-3.6227,-3.635,-3.6397,-3.6397,-3.6258,-3.6212,-3.6227,-3.6366,-3.6606,-3.6622,-3.6177,-3.6348,-3.6512,-3.5218,-3.4223,-3.326,-3.1778,-3.0447,-2.9248,-2.9647,-2.9634,-2.9256,-2.8187,-2.7407,-2.6791,-2.5556,-2.4914,-2.4707,-2.5102,-2.5028,-2.4551,-2.3844,-2.2871,-2.1741,0.0,0.0,0.0,-2.1789,-2.3409,-2.3441,-2.1277,-1.99,-1.8857,-1.9197,0.0,-1.7986,-1.8068,-1.7919,-1.7469,-1.7439,0.0,0.0,0.0,0.0,0.0,0.0,0.0,0.0,0.0,0.0,0.0,-1.3126,-1.0009,-0.4124,-0.9062,-1.2278,-1.1569,-1.042,-0.9747,-0.9791,-0.7962,-0.6984,-0.7137,-0.7161,-0.719,-0.7256,-0.728,-0.7328,-0.7426,-0.7561,-0.772,-0.7892,-0.8046,-0.8162,-0.8236,-0.8289,-0.8297,-0.8265,-0.8199,-0.8199,-0.8284,-0.8287,-0.83,-0.8305,-0.8297,-0.8284,-0.8305,-0.8305,-0.8297,-0.8295,-0.8297,-0.826,-0.8186,-0.8165,-0.813,-0.8046,-0.8019,-0.8032,-0.8022,-0.8024,-0.7998,-0.7934,-0.7921,-0.7937,-3.4806,-3.4868,-3.5455,-3.5702,-3.5671,-3.5053,-3.4806,-3.4853,-3.6054,-3.6542,-3.6398,-3.5264,-3.4085,-3.2905,-3.2722,-3.211,-3.1088,-3.0428,-2.9563,-2.8697,-2.8767,-2.9054,-2.9379,-2.8619,-2.6926,-2.4626,-2.5306,-2.5114,-2.4275,-2.4689,-2.5194,-2.5791,-2.5956,-2.5206,-2.3543,-2.0563,-1.8877,-1.8582,-2.1317,-2.386,-2.561,-2.5258,-2.3717,-2.0743,-2.1073,-1.9865,-1.7212,-1.7477,-1.7365,-1.6675,-1.6785,-1.7009,-1.7063,-1.4011,-1.2575,0.0,-0.9093,0.0,0.0,0.0,0.0,0.0,0.0,0.0,0.0,-0.6234,-0.7899,-0.6156,-0.7918,-0.83,-0.6529,-0.615,-0.6213,-0.6526,-0.6568,-0.6687,-0.6981,-0.7111,-0.718,-0.7193,-0.7392,-0.7532,-0.7566,-0.7757,-0.7887,-0.7924,-0.7725,-0.7707,-0.7682,-0.7713,-0.7764,-0.8059,-0.8064,-0.8064,-0.8067,-0.8067,-0.8067,-0.8064,-0.8064,-0.8064,-0.8064,-0.8064,-0.8059,-0.804,-0.8024,-0.8024,-0.8024,-0.8006,-0.8006,-0.7985,-0.7979,-0.7895,-0.7664,-0.759,-0.7635,-3.4528,-3.4559,-3.4884,-3.4343,-3.3308,-3.2624,-3.2266,-3.246,-3.3741,-3.5119,-3.6536,-3.5926,-3.4614,-3.2822,-3.2089,-3.1298,-3.0327,-3.0111,-2.9032,-2.7422,-2.7505,-2.7448,-2.6924,-2.6392,-2.5457,-2.4224,-2.4478,-2.4279,-2.388,-2.4266,-2.4413,-2.4339,-2.4085,-2.2675,-2.0658,-1.9236,-1.9344,-2.0791,-2.2065,-2.3869,-2.5993,-2.6029,-2.5173,-2.3476,-2.354,-2.3001,-2.1342,-2.1616,-2.1462,-2.0762,-2.0719,-2.0042,-1.8266,-1.4851,-1.244,0.0,0.0,0.0,0.0,0.0,0.0,0.0,0.0,0.0,0.0,0.0,-0.6533,-0.4658,-0.6097,-0.6723,-0.5781,-0.5731,-0.5866,-0.5961,-0.5855,-0.594,-0.6348,-0.6499,-0.6544,-0.6483,-0.6796,-0.7045,-0.7106,-0.7256,-0.745,-0.7717,-0.6016,-0.4931,-0.4989,-0.5797,-0.6377,-0.6435,-0.726,-0.7831,-0.7831,-0.7831,-0.7831,-0.7831,-0.7831,-0.7831,-0.7831,-0.7829,-0.7807,-0.7749,-0.7733,-0.7715,-0.7648,-0.7635,-0.7635,-0.7635,-0.7635,-0.7577,-0.7439,-0.7405,-0.745,-3.3725,-3.3494,-3.2042,-3.0898,-2.9944,-2.8469,-2.87,-3.0014,-3.1082,-3.3092,-3.5515,-3.5125,-3.344,-3.0683,-2.8972,-2.8116,-2.7922,-2.7991,-2.7417,-2.6367,-2.6463,-2.5976,-2.4918,-2.4616,-2.4229,-2.384,-2.3357,-2.3366,-2.3449,-2.3056,-2.274,-2.219,-2.1449,-1.9935,-1.782,-1.8672,-2.0348,-2.2689,-2.3273,-2.4406,-2.614,-2.5974,-2.5635,-2.5129,-2.5111,-2.4964,-2.4679,-2.4661,-2.4477,-2.4064,-2.3255,-2.1693,-1.9169,-1.504,0.0,0.0,0.0,0.0,0.0,0.0,0.0,0.0,0.0,-0.7485,-0.9095,0.0,-0.6399,0.0,-0.5857,-0.5914,-0.5547,-0.5403,0.0,0.0,-0.5225,-0.5238,-0.567,-0.5874,-0.5943,-0.5855,-0.621,-0.6496,-0.6578,-0.6481,-0.6478,-0.6819,-0.4707,-0.3057,-0.2687,-0.408,-0.4867,-0.467,-0.5667,-0.6469,-0.6251,-0.6767,-0.7054,-0.7585,-0.7595,-0.7595,-0.7595,-0.7593,-0.7569,-0.7484,-0.746,-0.7426,-0.7354,-0.7325,-0.7317,-0.7256,-0.7243,-0.7249,-0.7278,-0.7286,-0.732,-3.1363,-3.0302,-2.4619,-2.3832,-2.5855,-2.1705,-2.3258,-2.8506,-2.8584,-3.0288,-3.27,-3.1282,-2.7817,-2.2894,-2.0358,0.0,-2.2428,-2.2361,-2.3812,-2.6231,-2.5815,-2.5363,-2.4875,-2.4176,-2.3624,-2.3055,-2.2672,-2.2668,-2.2953,-2.0806,-1.9874,-1.9984,-2.0018,-1.907,-1.7342,-2.0,-2.1701,-2.23,-2.5015,-2.6489,-2.6544,-2.5837,-2.5074,-2.4312,-2.4275,-2.4266,-2.4229,-2.4229,-2.4046,-2.3416,-2.1032,-1.9003,-1.8002,0.0,0.0,0.0,0.0,0.0,0.0,0.0,0.0,0.0,0.0,0.0,0.0,0.0,0.0,-0.8741,-0.7795,0.0,-0.4902,-0.4592,0.0,0.0,0.0,-0.4735,-0.5087,-0.5421,-0.5625,-0.5614,0.0,0.0,-0.5993,-0.5143,-0.4471,-0.4777,-0.4684,-0.4267,-0.271,-0.3877,-0.4432,-0.3076,-0.2863,-0.3089,-0.3376,-0.4309,-0.552,-0.6799,-0.7357,-0.7336,-0.7331,-0.7341,-0.7352,-0.7333,-0.7341,-0.7328,-0.7325,-0.7288,-0.7259,-0.7023,-0.6992,-0.7026,-0.7106,-0.7129,-0.7166,-2.5841,-2.303,-2.0369,-2.0004,-2.1199,-1.9213,-1.9964,-2.3013,-2.675,-2.954,-3.1068,-2.7705,-2.3593,-1.916,-1.8103,0.0,0.0,0.0,-2.015,-2.1856,-2.1755,-2.1605,-2.1588,-2.2092,-2.2244,-2.2282,-2.2366,-2.2466,-2.2622,-2.1982,-1.8941,-1.3742,0.0,0.0,-1.3473,-1.678,-1.9506,-2.1967,-2.4617,-2.6011,-2.6241,-2.5469,-2.4771,-2.4202,-2.4174,-2.4174,-2.4174,-2.3954,-2.2894,-2.1006,-2.1078,-1.8509,0.0,0.0,0.0,0.0,0.0,0.0,0.0,0.0,0.0,0.0,0.0,-0.5564,-0.5494,0.0,0.0,0.0,-0.5043,-0.434,-0.3938,-0.4145,0.0,0.0,0.0,0.0,0.0,0.0,0.0,-0.3817,-0.4464,-0.5012,-0.4902,-0.3494,-0.2632,-0.2687,-0.1427,-0.0177,0.0349,0.0,-0.1908,-0.2333,-0.2318,-0.2723,-0.3643,-0.3613,-0.3585,-0.4246,-0.5197,-0.5519,-0.5097,-0.6265,-0.7029,-0.7084,-0.7055,-0.7029,-0.71,-0.688,-0.6655,-0.6573,-0.6555,-0.6568,-0.661,-0.6684,-0.6788,-1.9389,0.0,0.0,0.0,0.0,-1.5303,-1.5173,-1.6239,-2.4641,-2.8259,-2.7647,-2.3024,0.0,0.0,0.0,0.0,0.0,0.0,-1.7228,-1.8175,-1.92,-1.9058,-1.7964,-1.9339,-2.0754,-2.1645,-2.0538,-2.0015,-2.0083,-1.998,-1.6192,-0.9331,0.0,0.0,0.0,0.0,-1.7143,-2.019,-2.3307,-2.5258,-2.5671,-2.5001,-2.4486,-2.4183,-2.3963,-2.3834,-2.3825,-2.2713,-2.1051,-1.8727,-1.7615,0.0,0.0,0.0,0.0,0.0,0.0,0.0,0.0,0.0,0.0,0.0,0.0,0.0,0.0,0.0,0.0,0.0,0.0,0.0,-0.3096,-0.3469,-0.3702,0.0,0.0,0.0,0.0,0.0,0.0,0.0,0.0,0.0,-0.3,-0.224,-0.1635,0.0,0.0,0.0992,0.1802,0.0515,-0.0536,-0.0729,-0.0908,0.0,-0.2292,-0.2062,-0.1657,-0.2223,-0.3483,-0.439,-0.357,-0.4435,-0.5125,-0.4952,-0.5366,-0.5574,-0.5187,-0.4757,-0.4771,-0.4584,-0.4572,-0.4752,-0.459,-0.4467,-0.4563,0.0,0.0,0.0,0.0,0.0,0.0,0.0,0.0,-2.2203,-2.561,0.0,-1.6748,0.0,0.0,0.0,0.0,-1.0747,-1.3322,0.0,0.0,-1.9327,-1.8655,-1.4322,-1.6372,-1.891,-2.139,-1.7004,-1.4713,-1.4579,-1.3142,0.0,0.0,0.0,0.0,0.0,0.0,-1.5426,-1.6308,-2.1438,-2.4431,-2.4826,-2.4422,-2.4183,-2.4147,-2.343,-2.3008,-2.2943,-2.0139,-1.8291,-1.7491,-0.9001,0.0,0.0,0.0,0.0,0.0,0.0,0.0,0.0,0.0,0.0,0.0,0.0,0.0,0.0,0.0,0.0,0.0,0.0,0.0,0.0,-0.2298,0.0,0.0,0.0,0.0,0.0,0.0,0.0,0.0,0.0,0.0,-0.0667,-0.1177,-0.1928,-0.1845,0.0,0.0,0.0,0.0,-0.09,0.1838,0.2512,0.2545,0.2383,0.1054,-0.0362,-0.1659,0.0,0.0,-0.3633,-0.2256,-0.1111,-0.0363,-0.2059,-0.2471,-0.0559,-0.0894,-0.1226,-0.0535,-0.1056,-0.1055,-0.0358,-0.0543,-0.0369,0.0,0.0,0.0,0.0,0.0,0.0,0.0,0.0,0.0,-1.244,0.0,-0.9135,0.0,0.0,0.0,0.0,0.0,0.0,0.0,0.0,-1.3374,-1.3509,-1.2241,-1.487,-1.6652,0.0,-1.4621,-1.156,0.0,0.0,0.0,0.0,0.0,0.0,0.0,0.0,-1.4353,-1.563,-2.0586,-2.3596,-2.3981,-2.3605,-2.3393,-2.3384,-2.3109,-2.1955,-1.991,-1.6842,-1.4075,0.0,0.0,0.0,0.0,0.0,0.0,0.0,0.0,0.0,0.0,0.0,0.0,0.0,0.0,0.0,0.0,0.0,0.0,0.0,0.0,0.0,0.0,0.0,-0.2287,0.0,0.0,0.0,0.0,0.0,0.0,0.0,0.0,0.0,-0.0371,-0.055,-0.09,-0.1731,-0.1454,-0.1146,-0.098,0.0,0.0,0.0,0.0,0.0,0.0,0.0,0.1474,0.0947,0.0794,0.0325,-0.1009,-0.1044,-0.089,-0.0717,0.0,0.0,0.1534,0.0295,-0.0734,-0.03,-0.0592,-0.0737,-0.0306,-0.0156,-0.0316,0.0,0.0,0.0,0.0,0.0,0.0,0.0,0.0,0.0,-0.4563,-0.5237,0.0,0.0,0.0,0.0,0.0,0.0,0.0,0.0,0.0,0.0,0.0,-0.9246,-1.2244,0.0,0.0,0.0,0.0,0.0,0.0,0.0,0.0,0.0,0.0,0.0,0.0,-1.3567,-1.4587,-1.9734,-2.2769,-2.3173,-2.2916,-2.2778,-2.2769,-2.2778,-2.1178,-1.8028,0.0,0.0,0.0,0.0,0.0,0.0,0.0,0.0,0.0,0.0,0.0,0.0,0.0,0.0,0.0,0.0,0.0,0.0,0.0,0.0,0.0,0.0,0.0,0.0,0.0,-0.155,0.0,0.0,0.0,0.0,0.0,0.0,0.0,0.0,0.0,0.0,0.0,-0.0409,-0.1167,-0.1067,-0.1264,-0.1627,-0.1644,-0.1517,0.0,0.0,0.0,0.0,0.0,0.0,0.0,0.0,0.0,0.0,0.0,0.0,0.0,0.0,0.2743,0.366,0.2246,0.0995,0.1407,0.0,0.0,0.0,0.0,0.0,0.0,0.0,0.0,0.0,0.0,0.0,0.0,0.0,0.0,0.0,-0.3875,0.0,0.0,-0.389,0.0,0.0,0.0,0.0,0.0,0.0,0.0,0.0,0.0,0.0,0.0,0.0,0.0,0.0,0.0,0.0,0.0,0.0,0.0,0.0,0.0,0.0,-1.2815,-1.3105,-1.8856,-2.1961,-2.2374,-2.2374,-2.2374,-2.2374,-2.2337,-2.0624,-1.711,0.0,0.0,0.0,0.0,0.0,0.0,0.0,0.0,0.0,0.0,0.0,0.0,0.0,0.0,0.0,0.0,0.0,0.0,0.0,0.0,0.0,0.0,0.0,0.0,0.0,0.0,0.0661,0.0265,-0.0457,0.0,0.0,0.0,0.0,0.0,0.0,0.0,0.0,0.0,-0.0134,-0.2271,-0.3257,-0.1795,-0.1663,-0.1178,0.0338,0.1632,0.2553,0.2604,0.2566,0.2039,0.0,0.0,0.0,0.0,0.0,0.0,0.0,0.0,0.0,0.0,0.0,0.0,0.0,0.0,0.0,0.0,0.0,0.0,0.0,0.0,0.0,0.0,0.0,0.0,0.0,0.0,0.0,0.0,0.0,0.0,0.0,0.0,0.0,0.0,0.0,0.0,0.0,0.0,0.0,0.0,0.0,0.0,0.0,0.0,0.0,0.0,0.0,0.0,0.0,0.0,0.0,0.0,0.0,0.0,-1.2449,-1.3482,-1.8575,-2.1557,-2.1942,-2.1951,-2.1951,-2.1924,-1.9803,-1.7335,0.0,0.0,0.0,0.0,0.0,0.0,0.0,0.0,0.0,0.0,0.0,0.0,0.0,0.0,0.0,0.0,0.0,0.0,0.0,0.0,0.0,0.0,0.0,0.0,0.0,0.0,0.0,0.0,-0.0765,-0.0782,-0.0366,0.0,0.0,0.0,0.0,0.0,0.0,0.0,0.0,0.0,0.0,-0.1821,-0.0323,-0.0971,-0.065,0.1678,0.2304,0.2868,0.3825,0.311,0.2777,0.3285,0.0,0.0,0.0,0.0,0.0,0.0,0.0,0.0,0.0,0.0,0.0,0.0,0.0,0.0,0.0,0.0,0.0,0.0,0.0,0.0,0.0,0.0,0.0,0.0,0.0,0.0,0.0,0.0,0.0,0.0,0.0,0.0,0.0,0.0,0.0,0.0,0.0,0.0,0.0,0.0,0.0,0.0,0.0,0.0,0.0,0.0,0.0,0.0,0.0,0.0,0.0,0.0,0.0,-1.2162,-1.3277,-1.8399,-2.1051,-2.1281,-2.1299,-2.1299,-2.1299,-1.8645,-1.5568,0.0,0.0,0.0,0.0,0.0,0.0,0.0,0.0,0.0,0.0,0.0,0.0,0.0,0.0,0.0,0.0,0.0,0.0,0.0,0.0,0.0,0.0,0.0,0.0,0.0,0.0,0.0,0.0,-0.0263,-0.0275,0.0443,0.0,0.0,0.0,0.0,0.0,0.0,0.0,0.0,0.0,0.0,-0.0141,0.0906,0.0455,0.0,0.0,0.2801,0.3431,0.4215,0.3301,0.2979,0.4293,0.4479,0.0,0.0,0.0,0.0,0.0,0.0,0.0,0.0,0.0,0.0,0.0,0.0,0.0,0.0,0.0,0.0,0.0,0.0,0.0,0.0,0.0,0.0,0.0,0.0,0.0,0.0,0.0,0.0,0.0,0.0,0.0,0.0,0.0,0.0,0.0,0.0,0.0,0.0,0.0,0.0,0.0,0.0,0.0,0.0,0.0,0.0,0.0,0.0,0.0,0.0,0.0,0.0,0.0,-1.2592,-1.7846,-2.0528,-2.0546,-2.0546,-2.0546,-2.0537,-1.7923,-1.4895,0.0,0.0,0.0,0.0,0.0,0.0,0.0,0.0,0.0,0.0,0.0,0.0,0.0,0.0,0.0,0.0,0.0,0.0,0.0,0.0,0.0,0.0,0.0,0.0,0.0,0.0,0.0,0.0,0.0,0.0,0.0,0.0,0.0,0.0,0.0,0.0,0.0,0.0,0.0,0.0,0.0,0.184,0.2033,0.2082,0.2151,0.0,0.3354,0.4121,0.4318,0.3306,0.2829,0.4187,0.0,0.0,0.0,0.0,0.0,0.0,0.0,0.0,0.0,0.0,0.0,0.0,0.0,0.0,0.0,0.0,0.0,0.0,0.0,0.0,0.0,0.0,0.0,0.0,0.0,0.0,0.0,0.0,0.0,0.0,0.0,0.0,0.0,0.0,0.0,0.0,0.0,0.0,0.0,0.0,0.0,0.0,0.0,0.0,0.0,0.0,0.0,0.0,0.0,0.0,0.0,0.0,0.0,0.0,-1.2562,-1.7591,-2.0252,-2.0537,-2.0546,-2.0546,-2.0519,-1.6016,0.0,0.0,0.0,0.0,0.0,0.0,0.0,0.0,0.0,0.0,0.0,0.0,0.0,0.0,0.0,0.0,0.0,0.0,0.0,0.0,0.0,0.0,0.0,0.0,0.0,0.0,0.0,0.177,0.0,0.0,0.0,0.0,0.0,0.0,0.0,0.0,0.0,0.0,0.0,0.0,0.0,0.0,0.2718,0.5128,0.4282,0.388,0.0,0.0,0.5717,0.6833,0.524,0.4441,0.0,0.0,0.0,0.0,0.0,0.0,0.0,0.0,0.0,0.0,0.0,0.0,0.0,0.0,0.0,0.0,0.0,0.0,0.0,0.0,0.0,0.0,0.0,0.0,0.0,0.0,0.0,0.0,0.0,0.0,0.0,0.0,0.0,0.0,0.0,0.0,0.0,0.0,0.0,0.0,0.0,0.0,0.0,0.0,0.0,0.0,0.0,0.0,0.0,0.0,0.0,0.0,0.0,0.0,-1.012,-1.2194,-1.5972,-1.8593,-1.9986,-2.0207,-2.0032,-2.0032,-1.4851,-1.1893,0.0,0.0,0.0,0.0,0.0,0.0,0.0,0.0,0.0,0.0,0.0,0.0,0.0,0.0,0.0,0.0,0.0,0.0,0.0,0.0,0.0,0.0,0.0,0.0,0.0,0.0,0.0,0.0,0.0,0.0,0.0,0.0,0.0,0.0,0.0,0.0,0.0,0.0,0.0,0.0,0.0,0.0,0.6109,0.5828,0.0,0.0,0.0,0.5864,0.6871,0.0,0.0,0.0,0.0,0.0,0.0,0.0,0.0,0.0,0.0,0.0,0.0,0.0,0.0,0.0,0.0,0.0,0.0,0.0,0.0,0.0,0.0,0.0,0.0,0.0,0.0,0.0,0.0,0.0,0.0,0.0,0.0,0.0,0.0,0.0,0.0,0.0,0.0,0.0,0.0,0.0,0.0,0.0,0.0,0.0,0.0,0.0,0.0,0.0,0.0,0.0,0.0,0.0,0.0,0.0,0.0,0.0,-1.1636,-1.3963,-1.6483,-1.9187,-1.9484,-1.9512,-1.9315,-1.4682,-1.1762,0.0,0.0,0.0,0.0,0.0,0.0,0.0,0.0,0.0,0.0,0.0,0.0,0.0,0.0,0.0,0.0,0.0,0.0,0.0,0.0,0.0,0.0,0.0,0.0,0.0,0.0,0.0,0.0,0.0,0.0,0.0,0.0,0.0,0.0,0.0,0.0,0.0,0.0,0.0,0.0,0.0,0.7387,0.6056,0.6616,0.7318,0.0,0.0,0.5409,0.5898,0.5046,0.0,0.0,0.0,0.0,0.0,0.0,0.0,0.0,0.0,0.0,0.0,0.0,0.0,0.0,0.0,0.0,0.0,0.0,0.0,0.0,0.0,0.0,0.0,0.0,0.0,0.0,0.0,0.0,0.0,0.0,0.0,0.0,0.0,0.0,0.0,0.0,0.0,0.0,0.0,0.0,0.0,0.0,0.0,0.0,0.0,0.0,0.0,0.0,0.0,0.0,0.0,0.0,0.0,0.0,0.0,0.0,-1.0649,-1.3672,-1.6463,-1.8655,-1.9178,-1.9512,-1.9315,-1.6089,-1.3354,0.0,0.0,0.0,0.0,0.0,0.0,0.0,0.0,0.0,0.0,0.0,0.0,0.0,0.0,0.0,0.0,0.0,0.0,0.0,0.0,0.0,0.0,0.0,0.0,0.0,0.0,0.0,0.0,0.0,0.0,0.0,0.0,0.0,0.0,0.0,0.0,0.0,0.0,0.0,0.0,0.0,0.6705,0.5783,0.627,0.0,0.0,0.0,0.0,0.6715,0.667,0.0,0.0,0.0,0.0,0.0,0.0,0.0,0.0,0.0,0.0,0.0,0.0,0.0,0.0,0.0,0.0,0.0,0.0,0.0,0.0,0.0,0.0,0.0,0.0,0.0,0.0,0.0,0.0,0.0,0.0,0.0,0.0,0.0,0.0,0.0,0.0,0.0,0.0,0.0,0.0,0.0,0.0,0.0,0.0,0.0,0.0,0.0,0.0,0.0,0.0,0.0,0.0,0.0,0.0,0.0,0.0,-1.0937,-1.2332,-1.5054,-1.8719,-1.8817,-1.8755,-1.8728,-1.6029,-1.3541,0.0,0.0,0.0,0.0,0.0,0.0,0.0,0.0,0.0,0.0,0.0,0.0,0.0,0.0,0.0,0.0,0.0,0.0,0.0,0.0,0.0,0.0,0.0,0.0,0.0,0.0,0.0,0.0,0.0,0.0,0.0,0.0,0.0,0.0,0.0,0.0,0.0,0.0,0.0,0.0,0.7593,0.8113,0.7386,0.0,0.0,0.0,0.0,0.0,0.0,0.7123,0.7091,0.0,0.0,0.0,0.0,0.0,0.0,0.0,0.0,0.0,0.0,0.0,0.0,0.0,0.0,0.0,0.0,0.0,0.0,0.0,0.0,0.0,0.0,0.0,0.0,0.0,0.0,0.0,0.0,0.0,0.0,0.0,0.0,0.0,0.0,0.0,0.0,0.0,0.0,0.0,0.0,0.0,0.0,0.0,0.0,0.0,0.0,0.0,0.0,0.0,0.0,0.0,0.0,0.0,0.0,0.0,-1.0874,-1.0998,-1.3517,-1.8384,-1.8493,-1.8438,-1.8252,-1.5757,-1.3182,-1.0632,0.0,0.0,0.0,0.0,0.0,0.0,0.0,0.0,0.0,0.0,0.0,0.0,0.0,0.0,0.0,0.0,0.0,0.0,0.0,0.0,0.0,0.0,0.0,0.0,0.0,0.0,0.0,0.0,0.0,0.0,0.0,0.0,0.0,0.0,0.0,0.0,0.0,0.0,0.0,0.8408,0.9678,0.0,0.0,0.0,0.0,0.0,0.0,0.0,0.0,0.7582,0.0,0.0,0.0,0.0,0.0,0.0,0.0,0.0,0.0,0.0,0.0,0.0,0.0,0.0,0.0,0.0,0.0,0.0,0.0,0.0,0.0,0.0,0.0,0.0,0.0,0.0,0.0,0.0,0.0,0.0,0.0,0.0,0.0,0.0,0.0,0.0,0.0,0.0,0.0,0.0,0.0,0.0,0.0,0.0,0.0,0.0,0.0,0.0,0.0,0.0,0.0,0.0,0.0,0.0,0.0,0.0,-1.0465,-1.3417,-1.5953,-1.8654,-1.9713,-1.9071,-1.6483,-1.362,-1.0164,0.0,0.0,0.0,0.0,0.0,0.0,0.0,0.0,0.0,0.0,0.0,0.0,0.0,0.0,0.0,0.0,0.0,0.0,0.0,0.0,0.0,0.0,0.0,0.0,0.0,0.0,0.0,0.0,0.0,0.0,0.0,0.0,0.0,0.0,0.0,0.0,0.0,0.0,0.5772,0.7823,0.0,0.0,0.0,0.0,0.0,0.0,0.0,0.0,0.8633,0.0,0.0,0.0,0.0,0.0,0.0,0.0,0.0,0.0,0.0,0.0,0.0,0.0,0.0,0.0,0.0,0.0,0.0,0.0,0.0,0.0,0.0,0.0,0.0,0.0,0.0,0.0,0.0,0.0,0.0,0.0,0.0,0.0,0.0,0.0,0.0,0.0,0.0,0.0,0.0,0.0,0.0,0.0,0.0,0.0,0.0,0.0,0.0,0.0,0.0,0.0,0.0,0.0,0.0,0.0,0.0,0.0,0.0,-1.2807,-1.5386,-1.7557,-1.8404,-1.789,-1.4863,-1.2172,0.0,0.0,0.0,0.0,0.0,0.0,0.0,0.0,0.0,0.0,0.0,0.0,0.0,0.0,0.0,0.0,0.0,0.0,0.0,0.0,0.0,0.0,0.0,0.0,0.0,0.0,0.0,0.0,0.0,0.0,0.0,0.0,0.0,0.0,0.0,0.0,0.0,0.0,0.0,0.0,0.0,0.0,0.0,0.0,0.0,0.0,0.0,0.0,0.0,0.0,0.0,0.0,0.0,0.0,0.0,0.0,0.0,0.0,0.0,0.0,0.0,0.0,0.0,0.0,0.0,0.0,0.0,0.0,0.0,0.0,0.0,0.0,0.0,0.0,0.0,0.0,0.0,0.0,0.0,0.0,0.0,0.0,0.0,0.0,0.0,0.0,0.0,0.0,0.0,0.0,0.0,0.0,0.0,0.0,0.0,0.0,0.0,0.0,0.0,0.0,0.0,0.0,0.0,0.0,0.0,0.0,0.0,0.0,-1.2408,-1.4863,-1.6691,-1.7648,-1.7353,-1.3034,-1.0164,0.0,0.0,0.0,0.0,0.0,0.0,0.0,0.0,0.0,0.0,0.0,0.0,0.0,0.0,0.0,0.0,0.0,0.0,0.0,0.0,0.0,0.0,0.0,0.0,0.0,0.0,0.0,0.0,0.0,0.0,0.0,0.0,0.0,0.0,0.0,0.0,0.0,0.0,0.0,0.0,0.0,0.0,0.0,0.0,0.0,0.0,0.0,0.0,0.9801,0.0,0.0,0.0,0.0,0.0,0.0,0.0,0.0,0.0,0.0,0.0,0.0,0.0,0.0,0.0,0.0,0.0,0.0,0.0,0.0,0.0,0.0,0.0,0.0,0.0,0.0,0.0,0.0,0.0,0.0,0.0,0.0,0.0,0.0,0.0,0.0,0.0,0.0,0.0,0.0,0.0,0.0,0.0,0.0,0.0,0.0,0.0,0.0,0.0,0.0,0.0,0.0,0.0,0.0,0.0,0.0,0.0,0.0,0.0,-1.2406,-1.3033,-1.7626,-1.9705,-1.891,-1.2633,-0.7869,0.0,0.0,0.0,0.0,0.0,0.0,0.0,0.0,0.0,0.0,0.0,0.0,0.0,0.0,0.0,0.0,0.0,0.0,0.0,0.0,0.0,0.0,0.0,0.0,0.0,0.0,0.0,0.0,0.0,0.0,0.0,0.0,0.0,0.0,0.0,0.0,0.0,0.0,0.0,0.0,0.0,0.0,0.0,0.0,0.0,0.0,0.0,0.0,0.0,0.0,0.0,0.0,0.0,0.0,0.0,0.0,0.0,0.0,0.0,0.0,0.0,0.0,0.0,0.0,0.0,0.0,0.0,0.0,0.0,0.0,0.0,0.0,0.0,0.0,0.0,0.0,0.0,0.0,0.0,0.0,0.0,0.0,0.0,0.0,0.0,0.0,0.0,0.0,0.0,0.0,0.0,0.0,0.0,0.0,0.0,0.0,0.0,0.0,0.0,0.0,0.0,0.0,0.0,0.0,0.0,0.0,0.0,0.0,-1.0816,-1.1705,-1.5304,-1.5926,-1.3253,-0.8671,-0.5587,0.0,0.0,0.0,0.0,0.0,0.0,0.0,0.0,0.0,0.0,0.0,0.0,0.0,0.0,0.0,0.0,0.0,0.0,0.0,0.0,0.0,0.0,0.0,0.0,0.0,0.0,0.0,0.0,0.0,0.0,0.0,0.0,0.0,0.0,0.0,0.0,0.0,0.0,0.0,0.0,0.0,0.0,0.0,0.0,0.0,0.0,0.0,0.0,0.0,0.0,0.0,0.0,0.0,0.0,0.0,0.0,0.0,0.0,0.0,0.0,0.0,0.0,0.0,0.0,0.0,0.0,0.0,0.0,0.0,0.0,0.0,0.0,0.0,0.0,0.0,0.0,0.0,0.0,0.0,0.0,0.0,0.0,0.0,0.0,0.0,0.0,0.0,0.0,0.0,0.0,0.0,0.0,0.0,0.0,0.0,0.0,0.0,0.0,0.0,0.0,0.0,0.0,0.0,0.0,0.0,0.0,0.0,0.0,0.0,-1.015,-1.1621,-1.0803,-0.7683,-0.5514,-0.3881,0.0,0.0,0.0,0.0,0.0,0.0,0.0,0.0,0.0,0.0,0.0,0.0,0.0,0.0,0.0,0.0,0.0,0.0,0.0,0.0,0.0,0.0,0.0,0.0,0.0,0.0,0.0,0.0,0.0,0.0,0.0,0.0,0.0,0.0,0.0,0.0,0.0,0.0,0.0,0.0,0.0,0.0,0.0,0.0,0.0,0.0,0.0,0.0,0.0,0.0,0.0,0.0,0.0,0.0,0.0,0.0,0.0,0.0,0.0,0.0,0.0,0.0,0.0,0.0,0.0,0.0,0.0,0.0,0.0,0.0,0.0,0.0,0.0,0.0,0.0,0.0,0.0,0.0,0.0,0.0,0.0,0.0,0.0,0.0,0.0,0.0,0.0,0.0,0.0,0.0,0.0,0.0,0.0,0.0,0.0,0.0,0.0,0.0,0.0,0.0,0.0,0.0,0.0,0.0,0.0,0.0,0.0,0.0,0.0,-0.7954,-0.6602,-0.5484,-0.4574,-0.4462,-0.2799,0.0,0.0,0.0,0.0,0.0,0.0,0.0,0.0,0.0,0.0,0.0,0.0,0.0,0.0,0.0,0.0,0.0,0.0,0.0,0.0,0.0,0.0,0.0,0.0,0.0,0.0,0.0,0.0,0.0,0.0,0.0,0.0,0.0,0.0,0.0,0.0,0.0,0.0,0.0,0.0,0.0,0.0,0.0,0.0,0.0,0.0,0.0,0.0,0.0,0.0,0.0,0.0,0.0,0.0,0.0,0.0,0.0,0.0,0.0,0.0,0.0,0.0,0.0,0.0,0.0,0.0,0.0,0.0,0.0,0.0,0.0,0.0,0.0,0.0,0.0,0.0,0.0,0.0,0.0,0.0,0.0,0.0,0.0,0.0,0.0,0.0,0.0,0.0,0.0,0.0,0.0,0.0,0.0,0.0,0.0,0.0,0.0,0.0,0.0,0.0,0.0,0.0,0.0,0.0,0.0,0.0,0.0,0.0,0.0,-0.2043,-0.1586,-0.1118,-0.0673,-0.0752,-0.0076,0.1433,0.0,0.0,0.0,0.0,0.0,0.0,0.0,0.0,0.0,0.0,0.0,0.0,0.0,0.0,0.0,0.0,0.0,0.0,0.0,0.0,0.0,0.0,0.0,0.0,0.0,0.0,0.0,0.0,0.0,0.0,0.0,0.0,0.0,0.0,0.0,0.0,0.0,0.0,0.0,0.0,0.0,0.0,0.0,0.0,0.0,0.0,0.0,0.0,0.0,0.0,0.0,0.0,0.0,0.0,0.0,0.0,0.0,0.0,0.0,0.0,0.0,0.0,0.0,0.0,0.0,0.0,0.0,0.0,0.0,0.0,0.0,0.0,0.0,0.0,0.0,0.0,0.0,0.0,0.0,0.0,0.0,0.0,0.0,0.0,0.0,0.0,0.0,0.0,0.0,0.0,0.0,0.0,0.0,0.0,0.0,0.0,0.0,0.0,0.0,0.0,0.0,0.0,0.0,0.0,0.0,0.0,0.0,0.0,0.1519,0.1519,0.1473,0.1453,0.1495,0.1523,0.0,0.0,0.0,0.0,0.0,0.0,0.0,0.0,0.0,0.0,0.0,0.0,0.0,0.0,0.0,0.0,0.0,0.0,0.0,0.0,0.0,0.0,0.0,0.0,0.0,0.0,0.0,0.0,0.0,0.0,0.0,0.0,0.0,0.0,0.0,0.0,0.0,0.0,0.0,0.0,0.0,0.0,0.0,0.0,0.0,0.0,0.0,0.0,0.0,0.0,0.0,0.0,0.0,0.0,0.0,0.0,0.0,0.0,0.0,0.0,0.0,0.0,0.0,0.0,0.0,0.0,0.0,0.0,0.0,0.0,0.0,0.0,0.0,0.0,0.0,0.0,0.0,0.0,0.0,0.0,0.0,0.0,0.0,0.0,0.0,0.0,0.0,0.0,0.0,0.0,0.0,0.0,0.0,0.0,0.0,0.0,0.0,0.0,0.0,0.0,0.0,0.0,0.0,0.0,0.0,0.0,0.0,0.0,0.2161,0.1959,0.2057,0.1868,0.1294,0.1708,0.1652,0.0,0.0,0.0,0.0,0.0,0.0,0.0,0.0,0.0,0.0,0.0,0.0,0.0,0.0,0.0,0.0,0.0,0.0,0.0,0.0,0.0,0.0,0.0,0.0,0.0,0.0,0.0,0.0,0.0,0.0,0.0,0.0,0.0,0.0,0.0,0.0,0.0,0.0,0.0,0.0,0.0,0.0,0.0,0.0,0.0,0.0,0.0,0.0,0.0,0.0,0.0,0.0,0.0,0.0,0.0,0.0,0.0,0.0,0.0,0.0,0.0,0.0,0.0,0.0,0.0,0.0,0.0,0.0,0.0,0.0,0.0,0.0,0.0,0.0,0.0,0.0,0.0,0.0,0.0,0.0,0.0,0.0,0.0,0.0,0.0,0.0,0.0,0.0,0.0,0.0,0.0,0.0,0.0,0.0,0.0,0.0,0.0,0.0,0.0,0.0,0.0,0.0,0.0,0.0,0.0,0.0,0.0,0.0,0.0,0.2221,0.0,0.3286,0.0,0.3218,0.2766,0.0,0.0,0.0,0.0,0.0,0.0,0.0,0.0,0.0,0.0,0.0,0.0,0.0,0.0,0.0,0.0,0.0,0.0,0.0,0.0,0.0,0.0,0.0,0.0,0.0,0.0,0.0,0.0,0.0,0.0,0.0,0.0,0.0,0.0,0.0,0.0,0.0,0.0,0.0,0.0,0.0,0.0,0.0,0.0,0.0,0.0,0.0,0.0,0.0,0.0,0.0,0.0,0.0,0.0,0.0,0.0,0.0,0.0,0.0,0.0,0.0,0.0,0.0,0.0,0.0,0.0,0.0,0.0,0.0,0.0,0.0,0.0,0.0,0.0,0.0,0.0,0.0,0.0,0.0,0.0,0.0,0.0,0.0,0.0,0.0,0.0,0.0,0.0,0.0,0.0,0.0,0.0,0.0,0.0,0.0,0.0,0.0,0.0,0.0,0.0,0.0,0.0,0.0,0.0,0.0,0.0,0.0,0.0,0.0,0.3169,0.3292,0.3859,0.4947,0.4099,0.3713,0.0,0.0,0.0,0.0,0.0,0.0,0.0,0.0,0.0,0.0,0.0,0.0,0.0,0.0,0.0,0.0,0.0,0.0,0.0,0.0,0.0,0.0,0.0,0.0,0.0,0.0,0.0,0.0,0.0,0.0,0.0,0.0,0.0,0.0,0.0,0.0,0.0,0.0,0.0,0.0,0.0,0.0,0.0,0.0,0.0,0.0,0.0,0.0,0.0,0.0,0.0,0.0,0.0,0.0,0.0,0.0,0.0,0.0,0.0,0.0,0.0,0.0,0.0,0.0,0.0,0.0,0.0,0.0,0.0,0.0,0.0,0.0,0.0,0.0,0.0,0.0,0.0,0.0,0.0,0.0,0.0,0.0,0.0,0.0,0.0,0.0,0.0,0.0,0.0,0.0,0.0,0.0,0.0,0.0,0.0,0.0,0.0,0.0,0.0,0.0,0.0,0.0,0.0,0.0,0.0,0.0,0.0,0.0,0.0,0.0,0.4094,0.3819,0.383,0.4494,0.4454,0.0,0.0,0.0,0.0,0.0,0.0,0.0,0.0,0.0,0.0,0.0,0.0,0.0,0.0,0.0,0.0,0.0,0.0,0.0,0.0,0.0,0.0,0.0,0.0,0.0,0.0,0.0,0.0,0.0,0.0,0.0,0.0,0.0,0.0,0.0,0.0,0.0,0.0,0.0,0.0,0.0,0.0,0.0,0.0,0.0,0.0,0.0,0.0,0.0,0.0,0.0,0.0,0.0,0.0,0.0,0.0,0.0,0.0,0.0,0.0,0.0,0.0,0.0,0.0,0.0,0.0,0.0,0.0,0.0,0.0,0.0,0.0,0.0,0.0,0.0,0.0,0.0,0.0,0.0,0.0,0.0,0.0,0.0,0.0,0.0,0.0,0.0,0.0,0.0,0.0,0.0,0.0,0.0,0.0,0.0,0.0,0.0,0.0,0.0,0.0,0.0,0.0,0.0,0.0,0.0,0.0,0.0,0.0,0.0,0.0,0.5343,0.0,0.4822,0.4734,0.4871,0.5172,0.0,0.0,0.0,0.0,0.0,0.0,0.0,0.0,0.0,0.0,0.0,0.0,0.0,0.0,0.0,0.0,0.0,0.0,0.0,0.0,0.0,0.0,0.0,0.0,0.0,0.0,0.0,0.0,0.0,0.0,0.0,0.0,0.0,0.0,0.0,0.0,0.0,0.0,0.0,0.0,0.0,0.0,0.0,0.0,0.0,0.0,0.0,0.0,0.0,0.0,0.0,0.0,0.0,0.0,0.0,0.0,0.0,0.0,0.0,0.0,0.0,0.0,0.0,0.0,0.0,0.0,0.0,0.0,0.0,0.0,0.0,0.0,0.0,0.0,0.0,0.0,0.0,0.0,0.0,0.0,0.0,0.0,0.0,0.0,0.0,0.0,0.0,0.0,0.0,0.0,0.0,0.0,0.0,0.0,0.0,0.0,0.0,0.0,0.0,0.0,0.0,0.0,0.0,0.0,0.0,0.0,0.0,0.0,0.0,0.0,0.0,0.5468,0.5247,0.5335,0.0,0.0,0.0,0.0,0.0,0.0,0.0,0.0,0.0,0.0,0.0,0.0,0.0,0.0,0.0,0.0,0.0,0.0,0.0,0.0,0.0,0.0,0.0,0.0,0.0,0.0,0.0,0.0,0.0,0.0,0.0,0.0,0.0,0.0,0.0,0.0,0.0,0.0,0.0,0.0,0.0,0.0,0.0,0.0,0.0,0.0,0.0,0.0,0.0,0.0,0.0,0.0,0.0,0.0,0.0,0.0,0.0,0.0,0.0,0.0,0.0,0.0,0.0,0.0,0.0,0.0,0.0,0.0,0.0,0.0,0.0,0.0,0.0,0.0,0.0,0.0,0.0,0.0,0.0,0.0,0.0,0.0,0.0,0.0,0.0,0.0,0.0,0.0,0.0,0.0,0.0,0.0,0.0,0.0,0.0,0.0,0.0,0.0,0.0,0.0,0.0,0.0,0.0,0.0,0.0,0.0,0.0,0.0,0.0,0.0,0.0,0.5529,0.5811,0.6027,0.0,0.5656,0.0,0.0,0.0,0.0,0.0,0.0,0.0,0.0,0.0,0.0,0.0,0.0,0.0,0.0,0.0,0.0,0.0,0.0,0.0,0.0,0.0,0.0,0.0,0.0,0.0,0.0,0.0,0.0,0.0,0.0,0.0,0.0,0.0,0.0,0.0,0.0,0.0,0.0,0.0,0.0,0.0,0.0,0.0,0.0,0.0,0.0,0.0,0.0,0.0,0.0,0.0,0.0,0.0,0.0,0.0,0.0,0.0,0.0,0.0,0.0,0.0,0.0,0.0,0.0,0.0,0.0,0.0,0.0,0.0,0.0,0.0,0.0,0.0,0.0,0.0,0.0,0.0,0.0,0.0,0.0,0.0,0.0,0.0,0.0,0.0,0.0,0.0,0.0,0.0,0.0,0.0,0.0,0.0,0.0,0.0,0.0,0.0,0.0,0.0,0.0,0.0,0.0,0.0,0.0,0.0,0.0,0.0,0.0,0.0,0.0,0.0,0.0,0.7309,0.7394,0.5597,0.0,0.0,0.0,0.0,0.0,0.0,0.0,0.0,0.0,0.0,0.0,0.0,0.0,0.0,0.0,0.0,0.0,0.0,0.0,0.0,0.0,0.0,0.0,0.0,0.0,0.0,0.0,0.0,0.0,0.0,0.0,0.0,0.0,0.0,0.0,0.0,0.0,0.0,0.0,0.0,0.0,0.0,0.0,0.0,0.0,0.0,0.0,0.0,0.0,0.0,0.0,0.0,0.0,0.0,0.0,0.0,0.0,0.0,0.0,0.0,0.0,0.0,0.0,0.0,0.0,0.0,0.0,0.0,0.0,0.0,0.0,0.0,0.0,0.0,0.0,0.0,0.0,0.0,0.0,0.0,0.0,0.0,0.0,0.0,0.0,0.0,0.0,0.0,0.0,0.0,0.0,0.0,0.0,0.0,0.0,0.0,0.0,0.0,0.0,0.0,0.0,0.0,0.0,0.0,0.0,0.0,0.0,0.0,0.0,0.0,0.7336,0.5978,0.7604,0.7738,0.5959,0.0,0.0,0.0,0.0,0.0,0.0,0.0,0.0,0.0,0.0,0.0,0.0,0.0,0.0,0.0,0.0,0.0,0.0,0.0,0.0,0.0,0.0,0.0,0.0,0.0,0.0,0.0,0.0,0.0,0.0,0.0,0.0,0.0,0.0,0.0,0.0,0.0,0.0,0.0,0.0,0.0,0.0,0.0,0.0,0.0,0.0,0.0,0.0,0.0,0.0,0.0,0.0,0.0,0.0,0.0,0.0,0.0,0.0,0.0,0.0,0.0,0.0,0.0,0.0,0.0,0.0,0.0,0.0,0.0,0.0,0.0,0.0,0.0,0.0,0.0,0.0,0.0,0.0,0.0,0.0,0.0,0.0,0.0,0.0,0.0,0.0,0.0,0.0,0.0,0.0,0.0,0.0,0.0,0.0,0.0,0.0,0.0,0.0,0.0,0.0,0.0,0.0,0.0,0.0,0.0,0.0,0.0,0.0,0.0,0.0,0.0,0.0,0.0,0.0,0.6743,0.0,0.0,0.0,0.0,0.0,0.0,0.0,0.0,0.0,0.0,0.0,0.0,0.0,0.0,0.0,0.0,0.0,0.0,0.0,0.0,0.0,0.0,0.0,0.0,0.0,0.0,0.0,0.0,0.0,0.0,0.0,0.0,0.0,0.0,0.0,0.0,0.0,0.0,0.0,0.0,0.0,0.0,0.0,0.0,0.0,0.0,0.0,0.0,0.0,0.0,0.0,0.0,0.0,0.0,0.0,0.0,0.0,0.0,0.0,0.0,0.0,0.0,0.0,0.0,0.0,0.0,0.0,0.0,0.0,0.0,0.0,0.0,0.0,0.0,0.0,0.0,0.0,0.0,0.0,0.0,0.0,0.0,0.0,0.0,0.0,0.0,0.0,0.0,0.0,0.0,0.0,0.0,0.0,0.0,0.0,0.0,0.0,0.0,0.0,0.0,0.0,0.0,0.0,0.0,0.0,0.0,0.0,0.0,0.0,0.0,0.0,0.0,0.0,0.0,0.0,0.0,0.0,0.0,0.0,0.0,0.0,0.0,0.0,0.0,0.0,0.0,0.0,0.0,0.0,0.0,0.0,0.0,0.0,0.0,0.0,0.0,0.0,0.0,0.0,0.0,0.0,0.0,0.0,0.0,0.0,0.0,0.0,0.0,0.0,0.0,0.0,0.0,0.0,0.0,0.0,0.0,0.0,0.0,0.0,0.0,0.0,0.0,0.0,0.0,0.0,0.0,0.0,0.0,0.0,0.0,0.0,0.0,0.0,0.0,0.0,0.0,0.0,0.0,0.0,0.0,0.0,0.0,0.0,0.0,0.0,0.0,0.0,0.0,0.0,0.0,0.0,0.0,0.0,0.0,0.0,0.0,0.0,0.0,0.0,0.0,0.0,0.0,0.0,0.0,0.0,0.0,0.0,0.0,0.0,0.0,0.0,0.0,0.0,0.0,0.0,0.0,0.0,0.0,0.0,0.0,0.0,0.0,0.0,0.0,0.0,0.0,0.0,0.0,0.0,0.0,0.0,0.0,0.0,0.0,0.0,0.0,0.0,0.0,0.0,0.0,0.0,0.0,0.0,0.0,0.0,0.0,0.0,0.0,0.0,0.0,0.0,0.0,0.0,0.0,0.0,0.0,0.0,0.0,0.0,0.0,0.0,0.0,0.0,0.0,0.0,0.0,0.0,0.0,0.0,0.0,0.0,0.0,0.0,0.0,0.0,0.0,0.0,0.0,0.0,0.0,0.0,0.0,0.0,0.0,0.0,0.0,0.0,0.0,0.0,0.0,0.0,0.0,0.0,0.0,0.0,0.0,0.0,0.0,0.0,0.0,0.0,0.0,0.0,0.0,0.0,0.0,0.0,0.0,0.0,0.0,0.0,0.0,0.0,0.0,0.0,0.0,0.0,0.0,0.0,0.0,0.0,0.0,0.0,0.0,0.0,0.0,0.0,0.0,0.0,0.0,0.0,0.0,0.0,0.0,0.0,0.0,0.0,0.0,0.0,0.0,0.0,0.0,0.0,0.0,0.0,0.0,0.0,0.0,0.0,0.0,0.0,0.0,0.0,0.0,0.0,0.0,0.0,0.0,0.0,0.0,0.0,0.0,0.0,0.0,0.0,0.0,0.0,0.0,0.0,0.0,0.0,0.0,0.0,0.0,0.0,0.0,0.0,0.0,0.0,0.0,0.0,0.0,0.0,0.0,0.0,0.0,0.0,0.0,0.0,0.0,0.0,0.0,0.0,0.0,0.0,0.0,0.0,0.0,0.0,0.0,0.0,0.0,0.0,0.0,0.0,0.0,0.0,0.0,0.0,0.0,0.0,0.0,0.0,0.0,0.0,0.0,0.0,0.0,0.0,0.0,0.0,0.0,0.0,0.0,0.0,0.0,0.0,0.0,0.0,0.0,0.0,0.0,0.0,0.0,0.0,0.0,0.0,0.0,0.0,0.0,0.0,0.0,0.0,0.0,0.0,0.0,0.0,0.0,0.0,0.0,0.0,0.0,0.0,0.0,0.0,0.0,0.0,0.0,0.0,0.0,0.0,0.0,0.0,0.0,0.0,0.0,0.0,0.0,0.0,0.0,0.0,0.0,0.0,0.0,0.0,0.0,0.0,0.0,0.0,0.0,0.0,0.0,0.0,0.0,0.0,0.0,0.0,0.0,0.0,0.0,0.0,0.0,0.0,0.0,0.0,0.0,0.0,0.0,0.0,0.0,0.0,0.0,0.0,0.0,0.0,0.0,0.0,0.0,0.0,0.0,0.0,0.0,0.0,0.0,0.0,0.0,0.0,0.0,0.0,0.0,0.0,0.0,0.0,0.0,0.0,0.0,0.0,0.0,0.0,0.0,0.0,0.0,0.0,0.0,0.0,0.0,0.0,0.0,0.0,0.0,0.0,0.0,0.0,0.0,0.0,0.0,0.0,0.0,0.0,0.0,0.0,0.0,0.0,0.0,0.0,0.0,0.0,0.0,0.0,0.0,0.0,0.0,0.0,0.0,0.0,0.0,0.0,0.0,0.0,0.0,0.0,0.0,0.0,0.0,0.0,0.0,0.0,0.0,0.0,0.0,0.0,0.0,0.0,0.0,0.0,0.0,0.0,0.0,0.0,0.0,0.0,0.0,0.0,0.0,0.0,0.0,0.0,0.0,0.0,0.0,0.0,0.0,0.0,0.0,0.0,0.0,0.0,0.0,0.0,0.0,0.0,0.0,0.0,0.0,0.0,0.0,0.0,0.0,0.0,0.0,0.0,0.0,0.0,0.0,0.0,0.0,0.0,0.0,0.0,0.0,0.0,0.0,0.0,0.0,0.0,0.0,0.0,0.0,0.0,0.0,0.0,0.0,0.0,0.0,0.0,0.0,0.0,0.0,0.0,0.0,0.0,0.0,0.0,0.0,0.0,0.0,0.0,0.0,0.0,0.0,0.0,0.0,0.0,0.0,0.0,0.0,0.0,0.0,0.0,0.0,0.0,0.0,0.0,0.0,0.0,0.0,0.0,0.0,0.0,0.0,0.0,0.0,0.0,0.0,0.0,0.0,0.0,0.0,0.0,0.0,0.0,0.0,0.0,0.0,0.0,0.0,0.0,0.0,0.0,0.0,0.0,0.0,0.0,0.0,0.0,0.0,0.0,0.0,0.0,0.0,0.0,0.0,0.0,0.0,0.0,0.0,0.0,0.0,0.0,0.0,0.0,0.0,0.0,0.0,0.0,0.0,0.0,0.0,0.0,0.0,0.0,0.0,0.0,0.0,0.0,0.0,0.0,0.0,0.0,0.0,0.0,0.0,0.0,0.0,0.0,0.0,0.0,0.0,0.0,0.0,0.0,0.0,0.0,0.0,0.0,0.0,0.0,0.0,0.0,0.0,0.0,0.0,0.0,0.0,0.0,0.0,0.0,0.0,0.0,0.0,0.0,0.0,0.0,0.0,0.0,0.0,0.0,0.0,0.0,0.0,0.0,0.0,0.0,0.0,0.0,0.0,0.0,0.0,0.0,0.0,0.0,0.0,0.0,0.0,0.0,0.0,0.0,0.0,0.0,0.0,0.0,0.0,0.0,0.0,0.0,0.0,0.0,0.0,0.0,0.0,0.0,0.0,0.0,0.0,0.0,0.0,0.0,0.0,0.0,0.0,0.0,0.0,0.0,0.0,0.0,0.0,0.0,0.0,0.0,0.0,0.0,0.0,0.0,0.0,0.0,0.0,0.0,0.0,0.0,0.0,0.0,0.0,0.0,0.0,0.0,0.0,0.0,0.0,0.0,0.0,0.0,0.0,0.0,0.0,0.0,0.0,0.0,0.0,0.0,0.0,0.0,0.0,0.0,0.0,0.0,0.0,0.0,0.0,0.0,0.0,0.0,0.0,0.0,0.0,0.0,0.0,0.0,0.0,0.0,0.0,0.0,0.0,0.0,0.0,0.0,0.0,0.0,0.0,0.0,0.0,0.0,0.0,0.0,0.0,0.0,0.0,0.0,0.0,0.0,0.0,0.0,0.0,0.0,0.0,0.0,0.0,0.0,0.0,0.0,0.0,0.0,0.0,0.0,0.0,0.0,0.0,0.0,0.0,0.0,0.0,0.0,0.0,0.0,0.0,0.0,0.0,0.0,0.0,0.0,0.0,0.0,0.0,0.0,0.0,0.0,0.0,0.0,0.0,0.0,0.0,0.0,0.0,0.0,0.0,0.0,0.0,0.0,0.0,0.0,0.0,0.0,0.0,0.0,0.0,0.0,0.0,0.0,0.0,0.0,0.0,0.0,0.0,0.0,0.0,0.0,0.0,0.0,0.0,0.0,0.0,0.0,0.0,0.0,0.0,0.0,0.0,0.0,0.0,0.0,0.0,0.0,0.0,0.0,0.0,0.0,0.0,0.0,0.0]}],[{"header":{"parameterUnit":"kt","parameterCategory":2,"dx":1,"dy":1,"la1":29.587661999999998,"la2":31.0,"lo1":-88.76705300000003,"lo2":-86.6583820000003,"nx":115,"ny":88,"refTime":"2022-09-20T12:00:00:Z","depth":0,"parameterNumber":2,"parameterNumberName":"V-component_of_WINDS"},"data":[-7.2593,-7.3531,-7.3644,-7.4011,-7.4627,-7.4627,-7.4957,-7.5334,-7.5388,-7.5816,-7.6242,-7.6338,-7.6546,-7.6789,-7.8564,-7.9587,-7.9947,-8.1279,-8.2004,-8.2199,-8.2279,-8.2358,-8.2551,-8.2811,-8.3007,-8.3204,-8.3321,-8.3356,-8.3391,-8.3391,-8.3391,-8.3356,-8.3356,-8.343,-8.3465,-8.3645,-8.3896,-8.4142,-8.428,-8.4453,-8.4485,-8.4552,-8.4624,-8.4945,-8.5016,-8.5194,-8.5373,-8.5408,-8.5641,-8.657,-8.8519,-8.9884,-9.0611,-9.1025,-9.1601,-9.1978,-9.1755,-9.2466,-9.3288,-9.381,-9.4706,-9.5117,-9.5715,-9.6501,-9.6874,-9.7772,-9.7921,-9.8258,-9.8333,-9.8482,-9.852,-9.852,-9.852,-9.852,-9.852,-9.852,-9.8557,-9.8557,-9.8931,-9.9305,-9.9523,-10.038,-10.1344,-10.2082,-10.2728,-10.2996,-10.363,-10.4575,-10.507,-10.625,-10.7339,-10.7727,-10.7992,-10.9009,-10.9654,-10.9616,-10.9806,-11.0049,-11.0372,-11.137,-11.1609,-11.0857,-11.048,-11.086,-11.0746,-11.0214,-11.0062,-11.0062,-11.0062,-11.0062,-11.0062,-11.0062,-11.0024,-11.0062,-11.0062,-7.233,-7.2848,-7.3418,-7.4011,-7.4627,-7.4627,-7.4957,-7.5334,-7.5388,-7.5816,-7.6371,-7.6507,-7.6891,-7.7727,-7.8848,-7.9734,-8.0615,-8.1644,-8.2085,-8.2199,-8.2199,-8.2279,-8.2428,-8.262,-8.2797,-8.2994,-8.3286,-8.3356,-8.3391,-8.3391,-8.3391,-8.3391,-8.3465,-8.3465,-8.3681,-8.3788,-8.3931,-8.4108,-8.4211,-8.4453,-8.4592,-8.4516,-8.5551,-8.63,-8.6728,-8.7371,-8.8191,-8.8757,-8.9253,-9.016,-9.0957,-9.1917,-9.2426,-9.2739,-9.3314,-9.354,-9.3394,-9.3994,-9.5079,-9.5566,-9.6351,-9.7173,-9.7921,-9.8183,-9.8108,-9.837,-9.837,-9.8482,-9.8482,-9.852,-9.852,-9.852,-9.852,-9.852,-9.852,-9.852,-9.8594,-9.8632,-9.9529,-10.0539,-10.0988,-10.155,-10.2448,-10.3262,-10.3678,-10.3788,-10.4389,-10.5427,-10.6508,-10.7599,-10.8375,-10.8726,-10.8924,-10.9312,-10.9844,-11.0071,-11.0337,-11.0732,-11.1681,-11.2833,-11.3452,-11.2655,-11.2118,-11.196,-11.1146,-11.048,-11.0252,-11.0062,-11.0062,-11.0062,-11.0062,-11.0062,-11.0062,-11.0062,-11.0062,-7.2648,-7.3305,-7.3899,-7.4407,-7.4627,-7.4627,-7.4784,-7.5176,-7.5324,-7.5945,-7.6901,-7.7101,-7.769,-7.8659,-7.9644,-8.0442,-8.0736,-8.1795,-8.2397,-8.2338,-8.2199,-8.2373,-8.2393,-8.262,-8.2978,-8.2927,-8.3251,-8.3532,-8.3391,-8.3462,-8.3532,-8.3391,-8.3391,-8.3465,-8.3465,-8.3573,-8.3718,-8.4144,-8.4108,-8.5313,-8.7267,-8.7195,-8.7587,-8.7799,-8.8227,-8.8405,-8.9119,-8.9261,-8.9841,-9.0658,-9.1736,-9.2563,-9.414,-9.4375,-9.4864,-9.5241,-9.5213,-9.5291,-9.6605,-9.7282,-9.7582,-9.7921,-9.8482,-9.8482,-9.8557,-9.852,-9.852,-9.852,-9.852,-9.852,-9.852,-9.852,-9.852,-9.852,-9.852,-9.8707,-9.8856,-9.9267,-10.0352,-10.1436,-10.2296,-10.2969,-10.417,-10.4996,-10.5479,-10.565,-10.6461,-10.7582,-10.8039,-10.8834,-10.9203,-10.9513,-10.9607,-10.9919,-11.0451,-11.0754,-11.1172,-11.2006,-11.2841,-11.3844,-11.4572,-11.4093,-11.3524,-11.2681,-11.1868,-11.0967,-11.0322,-11.01,-11.0062,-11.0053,-11.005,-11.005,-11.0062,-11.0062,-11.0746,-7.3531,-7.4917,-7.5034,-7.5162,-7.5131,-7.4784,-7.4753,-7.5099,-7.6197,-7.7708,-7.8683,-7.9265,-7.9928,-8.1092,-8.185,-8.2377,-8.2567,-8.3653,-8.3379,-8.3552,-8.3621,-8.3968,-8.3598,-8.4222,-8.4134,-8.3982,-8.4201,-8.4795,-8.5011,-8.4835,-8.4588,-8.4623,-8.4799,-8.5011,-8.4975,-8.5015,-8.516,-8.5592,-8.5665,-8.6767,-8.8189,-8.876,-8.9403,-8.9653,-8.9904,-9.0011,-9.0617,-9.0617,-9.0928,-9.1436,-9.2025,-9.3492,-9.5721,-9.5922,-9.6672,-9.7386,-9.6649,-9.6883,-9.7605,-9.7945,-9.806,-9.8329,-9.848,-9.8519,-9.8519,-9.852,-9.852,-9.852,-9.852,-9.852,-9.852,-9.852,-9.852,-9.852,-9.852,-9.8856,-9.9193,-10.0165,-10.1212,-10.2296,-10.338,-10.4614,-10.596,-10.6789,-10.7394,-10.7882,-10.8403,-10.8744,-10.8951,-10.9269,-10.9583,-10.9912,-11.0061,-11.083,-11.1172,-11.1703,-11.2689,-11.3524,-11.451,-11.5042,-11.5535,-11.5763,-11.5914,-11.4389,-11.2579,-11.1327,-11.053,-11.0226,-11.0031,-11.0063,-11.0063,-11.0041,-11.005,-11.08,-11.1695,-7.4875,-7.8068,-7.7082,-7.6579,-7.6421,-7.5351,-7.4973,-7.5383,-7.8967,-8.152,-8.2576,-8.3129,-8.3511,-8.4092,-8.4395,-8.4937,-8.5178,-8.5431,-8.5564,-8.6292,-8.5702,-8.5619,-8.5807,-8.6472,-8.598,-8.6736,-8.6953,-8.6469,-8.7257,-8.7088,-8.6876,-8.7686,-8.7334,-8.7017,-8.6876,-8.6912,-8.7305,-8.7704,-8.8204,-8.8385,-8.8921,-8.9216,-8.965,-9.0969,-9.147,-9.1901,-9.2936,-9.3585,-9.4049,-9.4842,-9.5465,-9.5769,-9.6895,-9.7371,-9.7371,-9.7519,-9.749,-9.769,-9.7888,-9.808,-9.8122,-9.8201,-9.828,-9.8358,-9.8402,-9.8406,-9.8481,-9.8481,-9.8481,-9.8481,-9.8781,-9.8856,-9.9043,-9.9155,-9.9604,-10.0202,-10.0539,-10.1174,-10.2445,-10.4053,-10.51,-10.5997,-10.7231,-10.7418,-10.7877,-10.8104,-10.8445,-10.8718,-10.9015,-10.9471,-10.9816,-11.019,-11.1175,-11.231,-11.2689,-11.3372,-11.4321,-11.5269,-11.6332,-11.6939,-11.7204,-11.766,-11.8153,-11.6188,-11.4071,-11.244,-11.0618,-11.0315,-11.0049,-11.0033,-11.0049,-11.0036,-11.0757,-11.177,-11.2849,-7.6902,-7.8561,-7.8121,-7.7932,-7.7837,-7.7334,-7.7514,-7.8382,-8.0281,-8.2229,-8.3865,-8.4566,-8.5246,-8.6143,-8.6281,-8.642,-8.6882,-8.702,-8.702,-8.702,-8.6535,-8.6885,-8.6816,-8.6862,-8.7369,-8.7215,-8.7399,-8.803,-8.7663,-8.7925,-8.8144,-8.8214,-8.8038,-8.8003,-8.8214,-8.8496,-8.9243,-9.0265,-9.0943,-9.1163,-9.1348,-9.161,-9.1835,-9.2521,-9.2708,-9.3033,-9.3607,-9.3682,-9.444,-9.5556,-9.5799,-9.6412,-9.7472,-9.7779,-9.7779,-9.7779,-9.7779,-9.7861,-9.795,-9.7913,-9.8037,-9.8197,-9.8303,-9.8266,-9.8276,-9.8327,-9.848,-9.8667,-9.8592,-9.8667,-9.9005,-9.9342,-9.9641,-9.994,-10.0763,-10.1623,-10.2034,-10.2371,-10.3829,-10.5661,-10.6708,-10.7493,-10.7867,-10.8091,-10.8282,-10.836,-10.852,-10.8961,-10.9541,-11.0421,-11.1204,-11.1502,-11.2728,-11.3903,-11.4548,-11.5231,-11.5952,-11.6787,-11.7774,-11.8419,-11.895,-11.9177,-11.9064,-11.7546,-11.5497,-11.2917,-11.0421,-11.0185,-11.0299,-11.0033,-11.0041,-11.127,-11.2629,-11.3381,-11.4481,-7.8572,-7.982,-7.9474,-7.9317,-7.9317,-7.9317,-7.993,-8.1079,-8.2444,-8.3888,-8.5661,-8.6627,-8.7716,-8.8026,-8.8026,-8.813,-8.813,-8.8061,-8.7992,-8.8165,-8.8581,-8.8183,-8.8183,-8.8512,-8.8469,-8.8649,-8.8884,-8.928,-8.9243,-8.9437,-8.9587,-8.9305,-8.9868,-8.9728,-8.9692,-8.9481,-9.0854,-9.191,-9.2262,-9.2378,-9.2565,-9.269,-9.2884,-9.3076,-9.3308,-9.3531,-9.3785,-9.3825,-9.4618,-9.5592,-9.5799,-9.6412,-9.7604,-9.7779,-9.7742,-9.7742,-9.7779,-9.7861,-9.7869,-9.7913,-9.7913,-9.8068,-9.8173,-9.8092,-9.8112,-9.8206,-9.8514,-9.9033,-9.9332,-10.0115,-10.0679,-10.0977,-10.1313,-10.1578,-10.1989,-10.2926,-10.3823,-10.4274,-10.5063,-10.6633,-10.7381,-10.8016,-10.8091,-10.8315,-10.8652,-10.854,-10.8847,-10.9604,-11.0507,-11.2257,-11.3173,-11.3523,-11.4449,-11.544,-11.618,-11.6863,-11.7546,-11.8153,-11.8912,-11.9595,-11.9709,-11.9709,-11.986,-11.857,-11.6142,-11.3486,-11.0982,-11.0754,-11.1172,-11.083,-11.1513,-11.3145,-11.4548,-11.5193,-11.6104,-7.9635,-8.2248,-8.13,-8.0702,-8.0733,-8.0733,-8.1552,-8.308,-8.565,-8.7478,-8.8994,-9.0089,-9.0523,-9.0905,-9.1009,-9.0801,-9.0662,-9.0732,-9.0697,-9.0732,-9.0385,-9.0662,-9.0732,-9.0662,-9.0542,-9.1148,-9.1353,-9.0913,-9.2251,-9.1723,-9.1794,-9.2157,-9.1769,-9.1523,-9.1488,-9.1382,-9.1558,-9.1593,-9.1805,-9.1734,-9.178,-9.2283,-9.2195,-9.236,-9.2621,-9.2957,-9.3318,-9.3507,-9.4294,-9.5087,-9.564,-9.6483,-9.7142,-9.7659,-9.7742,-9.7705,-9.7668,-9.7742,-9.7779,-9.7824,-9.7824,-9.7861,-9.7928,-9.8055,-9.818,-9.8527,-9.9319,-9.999,-10.0549,-10.1444,-10.2344,-10.268,-10.3021,-10.3287,-10.3553,-10.4416,-10.5425,-10.6027,-10.6708,-10.7231,-10.7979,-10.8577,-10.8689,-10.8764,-10.9175,-10.9624,-11.0788,-11.147,-11.2605,-11.4278,-11.5414,-11.5673,-11.625,-11.7137,-11.7774,-11.8494,-11.8988,-11.8988,-11.9784,-11.9936,-11.9936,-11.9936,-11.9936,-11.9102,-11.6749,-11.4852,-11.3107,-11.2386,-11.2348,-11.3182,-11.4017,-11.5459,-11.6711,-11.728,-11.7584,-7.9585,-8.1394,-8.0985,-8.13,-8.2087,-8.215,-8.2496,-8.3738,-8.6158,-8.8079,-8.9268,-9.0678,-9.1356,-9.1356,-9.1356,-9.1356,-9.1356,-9.1356,-9.1356,-9.1356,-9.1356,-9.1356,-9.1356,-9.1252,-9.1498,-9.1551,-9.1724,-9.1931,-9.2271,-9.2473,-9.2555,-9.2673,-9.2685,-9.2227,-9.1452,-9.11,-9.0854,-9.015,-9.0115,-9.0009,-8.9974,-8.9983,-9.0026,-9.0182,-9.0519,-9.0954,-9.1744,-9.233,-9.283,-9.3817,-9.4237,-9.4356,-9.4822,-9.5291,-9.5662,-9.5737,-9.6182,-9.7668,-9.7705,-9.7705,-9.7779,-9.7779,-9.7816,-9.8373,-9.9273,-9.914,-10.0189,-10.1313,-10.1945,-10.2474,-10.3046,-10.4444,-10.478,-10.5233,-10.5649,-10.6475,-10.7302,-10.7227,-10.7717,-10.7792,-10.8353,-10.9175,-10.9699,-10.9699,-11.026,-11.1568,-11.2877,-11.3774,-11.4759,-11.643,-11.7793,-11.7941,-11.8354,-11.862,-11.9054,-11.9623,-11.9747,-11.9936,-11.9936,-11.9936,-11.9936,-11.9936,-11.9936,-11.9557,-11.7811,-11.6142,-11.4814,-11.4169,-11.4131,-11.4776,-11.6104,-11.7432,-11.876,-11.9064,-11.9102,-8.067,-8.1489,-8.1489,-8.1489,-8.1489,-8.1929,-8.2302,-8.2953,-8.5406,-8.7622,-8.9176,-9.0713,-9.1356,-9.1356,-9.1356,-9.1356,-9.1356,-9.1356,-9.1356,-9.1356,-9.1356,-9.1356,-9.1356,-9.1321,-9.141,-9.1551,-9.1673,-9.1931,-9.1997,-9.2354,-9.2555,-9.2638,-9.2614,-9.1875,-9.0748,-8.9657,-8.9235,-8.8214,-8.7968,-8.8003,-8.8073,-8.8179,-8.8327,-8.8404,-8.8929,-8.9615,-9.0617,-9.1146,-9.2304,-9.382,-9.3184,-9.3576,-9.4443,-9.3917,-9.414,-9.4028,-9.4363,-9.6294,-9.6962,-9.7593,-9.7705,-9.7779,-9.7816,-9.8262,-9.919,-9.9376,-10.0796,-10.1995,-10.2478,-10.3565,-10.4253,-10.5804,-10.6184,-10.6602,-10.703,-10.7895,-10.8236,-10.8236,-10.8241,-10.8241,-10.8241,-10.8951,-10.9587,-10.9475,-11.1867,-11.3699,-11.527,-11.6279,-11.6324,-11.7975,-11.8871,-11.9128,-11.9396,-11.9693,-11.9889,-11.9813,-11.9898,-11.9936,-11.9936,-11.9936,-11.9936,-11.9936,-11.9936,-11.9898,-11.8608,-11.7318,-11.6104,-11.5193,-11.5535,-11.6408,-11.7849,-11.9215,-11.9557,-11.9709,-11.9936,-8.2433,-8.2748,-8.2559,-8.1174,-7.96,-8.0324,-8.1002,-8.1554,-8.3709,-8.6294,-8.8671,-9.0193,-9.087,-9.1078,-9.094,-9.0905,-9.094,-9.1182,-9.1148,-9.1148,-9.1148,-9.1321,-9.1356,-9.141,-9.1463,-9.1671,-9.1792,-9.1877,-9.199,-9.2016,-9.2204,-9.2321,-9.1875,-9.1417,-9.0361,-8.8883,-8.8003,-8.7904,-8.7657,-8.7634,-8.7603,-8.7572,-8.7721,-8.7797,-8.8157,-8.8715,-8.9523,-9.0124,-9.1141,-9.2633,-9.2169,-9.2563,-9.3903,-9.3434,-9.3248,-9.3137,-9.3471,-9.4363,-9.5402,-9.6851,-9.7519,-9.7742,-9.7779,-9.815,-9.8068,-9.8392,-9.9654,-10.3026,-10.3174,-10.4475,-10.6109,-10.7544,-10.7406,-10.7501,-10.7646,-10.807,-10.8151,-10.8151,-10.8156,-10.8199,-10.8199,-10.8353,-10.8951,-11.0222,-11.3251,-11.5419,-11.7364,-11.8082,-11.7864,-11.8467,-11.88,-11.9054,-11.9414,-11.9679,-11.9889,-11.9927,-11.9936,-11.9936,-11.9936,-11.9936,-11.9936,-11.9936,-11.9898,-11.9822,-11.9102,-11.8419,-11.7318,-11.6294,-11.7204,-11.8153,-11.9595,-11.9936,-11.9936,-11.9936,-11.9936,-7.8561,-7.8687,-7.9569,-8.0544,-8.1489,-8.1072,-8.1072,-8.14,-8.2144,-8.3821,-8.6395,-8.7612,-8.8634,-8.9518,-8.976,-8.9795,-9.0107,-9.0732,-9.0558,-9.0489,-9.0766,-9.1287,-9.1356,-9.1217,-9.1028,-9.1498,-9.1603,-9.1148,-9.0535,-9.0694,-9.0752,-9.0517,-9.0,-9.0185,-8.9305,-8.7897,-8.612,-8.5598,-8.5525,-8.5664,-8.6208,-8.628,-8.6453,-8.6626,-8.6972,-8.7688,-8.8805,-8.9436,-9.0252,-9.0926,-9.1124,-9.1073,-9.1804,-9.2469,-9.284,-9.3731,-9.4734,-9.5922,-9.5737,-9.6071,-9.6591,-9.7631,-9.7779,-9.841,-9.9227,-9.9701,-10.0433,-10.3424,-10.4241,-10.5243,-10.71,-10.7682,-10.7704,-10.7667,-10.7891,-10.7982,-10.8019,-10.8063,-10.807,-10.8113,-10.8156,-10.8231,-10.9058,-11.0559,-11.2914,-11.4335,-11.6578,-11.8194,-11.8201,-11.8425,-11.8711,-11.9039,-11.9316,-11.9612,-11.9889,-11.9927,-11.9936,-11.9936,-11.9936,-11.9936,-11.9936,-11.9936,-11.9898,-11.986,-11.9671,-11.9367,-11.8836,-11.8267,-11.895,-11.9784,-11.986,-11.9936,-11.9936,-11.9936,-11.9936,-7.7837,-7.831,-7.8593,-7.9096,-7.9695,-7.9365,-7.9577,-8.0032,-8.1206,-8.2795,-8.4541,-8.597,-8.7263,-8.813,-8.8581,-8.9032,-8.9275,-9.0628,-9.0177,-8.9899,-8.9656,-8.9969,-8.9587,-8.9483,-9.0003,-9.0419,-9.0802,-9.0346,-8.9543,-9.0168,-8.9734,-8.84,-8.7608,-8.808,-8.8279,-8.7119,-8.5879,-8.5145,-8.4905,-8.4933,-8.5442,-8.5791,-8.6297,-8.6502,-8.6744,-8.8262,-8.9033,-8.9518,-9.0436,-9.1221,-9.11,-9.187,-9.282,-9.279,-9.2864,-9.3211,-9.4288,-9.5254,-9.5291,-9.6145,-9.6702,-9.7705,-9.7816,-9.8113,-9.8819,-9.9181,-10.0814,-10.257,-10.3535,-10.4464,-10.6469,-10.7273,-10.7704,-10.7752,-10.7799,-10.7891,-10.7928,-10.7974,-10.7982,-10.8026,-10.8026,-10.8151,-10.9389,-11.0666,-11.1899,-11.3438,-11.6092,-11.8194,-11.8245,-11.8385,-11.8647,-11.8956,-11.9141,-11.9376,-11.9868,-11.9927,-11.9936,-11.9936,-11.9936,-11.9936,-11.9936,-11.9936,-11.9936,-11.9936,-11.9822,-11.9671,-11.9671,-11.986,-11.9936,-11.9898,-11.9898,-11.9936,-11.9936,-11.9936,-11.9936,-7.9443,-8.0418,-7.9096,-7.7302,-7.554,-7.6301,-7.7043,-7.7867,-8.0999,-8.2396,-8.303,-8.5104,-8.6133,-8.6812,-8.7679,-8.8269,-8.8651,-9.0315,-8.9518,-8.8824,-8.872,-8.825,-8.7695,-8.7506,-8.7767,-8.8754,-8.9169,-8.9334,-8.9373,-8.9323,-8.846,-8.6413,-8.7328,-8.6982,-8.7373,-8.7904,-8.6919,-8.6517,-8.6466,-8.6382,-8.6887,-8.7563,-8.8324,-8.8674,-9.0008,-9.126,-9.1407,-9.1634,-9.2342,-9.3596,-9.2635,-9.2666,-9.3805,-9.3702,-9.371,-9.3947,-9.4727,-9.5291,-9.5922,-9.6851,-9.7631,-9.7742,-9.7816,-9.8002,-9.8782,-9.8299,-9.9116,-10.1418,-10.3238,-10.4241,-10.5626,-10.6604,-10.7544,-10.7693,-10.7778,-10.7826,-10.7826,-10.7873,-10.7882,-10.7891,-10.7982,-10.807,-10.901,-10.9533,-11.0616,-11.2976,-11.5636,-11.6982,-11.7266,-11.8382,-11.8577,-11.8663,-11.8871,-11.9337,-11.9819,-11.9936,-11.9936,-11.9936,-11.9936,-11.9936,-11.9936,-11.9936,-11.9936,-11.9936,-11.9936,-11.9936,-11.9936,-11.9936,-11.9936,-11.9936,-11.9936,-11.9936,-11.9936,-11.9936,-11.9936,-7.8341,-7.7743,-7.7365,-7.7428,-7.7649,-7.7182,-7.7264,-7.761,-7.9447,-8.0142,-8.0798,-8.2616,-8.4223,-8.5078,-8.5807,-8.6396,-8.6084,-8.7229,-8.6847,-8.6535,-8.6535,-8.7015,-8.6681,-8.6584,-8.6832,-8.7317,-8.7536,-8.7286,-8.731,-8.8234,-8.9716,-9.0112,-8.8797,-8.9523,-9.0261,-8.975,-8.9086,-8.8711,-8.912,-8.9595,-9.009,-9.0673,-9.093,-9.1256,-9.1582,-9.1906,-9.1942,-9.2329,-9.2415,-9.3251,-9.2857,-9.3607,-9.4971,-9.4907,-9.5036,-9.5787,-9.6026,-9.6479,-9.6925,-9.7371,-9.7668,-9.7779,-9.7816,-9.8447,-9.9227,-9.9756,-10.0611,-10.3127,-10.4055,-10.5169,-10.6655,-10.7249,-10.767,-10.767,-10.7719,-10.7756,-10.7756,-10.7719,-10.7768,-10.7789,-10.7891,-10.7982,-10.8847,-10.8959,-11.0459,-11.2782,-11.4201,-11.5516,-11.686,-11.8272,-11.8429,-11.8305,-11.8692,-11.9376,-11.9655,-11.9732,-11.9927,-11.9936,-11.9936,-11.9936,-11.9936,-11.9936,-11.9936,-11.9936,-11.9936,-11.9936,-11.9936,-11.9936,-11.9936,-11.9936,-11.9936,-11.9936,-11.9936,-11.9936,-11.9936,-7.7428,-7.6799,-7.7365,-7.7712,-7.792,-7.8053,-7.8423,-7.9313,-8.034,-8.1229,-8.2188,-8.355,-8.4582,-8.5668,-8.6327,-8.6431,-8.6847,-8.8338,-8.7922,-8.7298,-8.7333,-8.7035,-8.6146,-8.5786,-8.5827,-8.5862,-8.582,-8.5672,-8.6565,-8.8027,-8.9261,-9.0082,-9.0201,-9.1038,-9.1178,-9.0948,-9.0887,-9.1143,-9.1462,-9.1786,-9.2214,-9.2795,-9.3237,-9.3237,-9.3973,-9.4305,-9.4379,-9.4231,-9.4282,-9.4333,-9.4333,-9.4986,-9.5713,-9.6144,-9.6472,-9.7557,-9.7687,-9.7733,-9.7779,-9.7742,-9.7779,-9.7816,-9.8559,-9.9227,-10.0091,-10.0871,-10.232,-10.4055,-10.4686,-10.5429,-10.6246,-10.7249,-10.7509,-10.7694,-10.7657,-10.7694,-10.7657,-10.7657,-10.7856,-10.7805,-10.79,-10.9419,-11.0593,-11.1329,-11.297,-11.4509,-11.5292,-11.6235,-11.7326,-11.8224,-11.8202,-11.8052,-11.8672,-11.932,-11.9444,-11.9606,-11.9803,-11.9936,-11.9936,-11.9936,-11.9936,-11.9936,-11.9936,-11.9936,-11.9936,-11.9936,-11.9936,-11.9936,-11.9936,-11.9936,-11.9936,-11.9936,-11.9936,-11.9936,-11.9936,-7.6988,-7.7082,-7.8215,-7.8058,-7.7542,-7.8929,-8.0244,-8.1347,-8.2685,-8.4197,-8.4918,-8.609,-8.645,-8.6792,-8.7888,-8.8477,-8.8824,-8.931,-8.9032,-8.8026,-8.8045,-8.7024,-8.5263,-8.4808,-8.5273,-8.5425,-8.551,-8.6125,-8.7645,-8.8633,-8.9295,-9.0434,-9.138,-9.1445,-9.2849,-9.2723,-9.2139,-9.2693,-9.2818,-9.2905,-9.32,-9.4268,-9.4784,-9.5226,-9.5926,-9.6515,-9.6368,-9.6331,-9.6494,-9.6641,-9.6789,-9.6988,-9.715,-9.7265,-9.7413,-9.7509,-9.7594,-9.7641,-9.7733,-9.7779,-9.7816,-9.8596,-9.9376,-10.0193,-10.1084,-10.2013,-10.3127,-10.3127,-10.4612,-10.5838,-10.632,-10.6989,-10.7472,-10.7694,-10.7694,-10.7694,-10.7806,-10.7954,-10.8487,-10.8586,-10.9441,-11.0841,-11.2017,-11.3694,-11.5184,-11.5705,-11.6301,-11.7022,-11.7765,-11.7999,-11.8069,-11.8123,-11.8586,-11.9074,-11.9255,-11.9542,-11.9765,-11.9936,-11.9936,-11.9936,-11.9936,-11.9936,-11.9974,-12.005,-11.9936,-11.9936,-11.9936,-11.9936,-11.9936,-11.9936,-11.9936,-11.9936,-11.9936,-11.9936,-11.9936,-7.831,-7.831,-7.8624,-7.8708,-7.8981,-8.0331,-8.1254,-8.2086,-8.4077,-8.5223,-8.548,-8.6341,-8.6827,-8.6847,-8.7194,-8.7367,-8.7229,-8.7645,-8.7957,-8.7679,-8.7629,-8.7197,-8.6351,-8.6262,-8.6194,-8.6124,-8.6532,-8.759,-8.9428,-9.0681,-9.222,-9.3259,-9.4707,-9.5511,-9.5439,-9.5162,-9.5857,-9.6,-9.6036,-9.6036,-9.6036,-9.6331,-9.6515,-9.6663,-9.6773,-9.6957,-9.6957,-9.6957,-9.6957,-9.6957,-9.6957,-9.701,-9.701,-9.715,-9.7302,-9.7401,-9.7509,-9.7641,-9.7808,-9.7928,-9.8745,-9.971,-10.0156,-10.1037,-10.2065,-10.3635,-10.5132,-10.6432,-10.7026,-10.7026,-10.6989,-10.7472,-10.7657,-10.7769,-10.7806,-10.7806,-10.814,-10.8808,-10.9416,-11.0122,-11.1088,-11.2031,-11.2899,-11.435,-11.5258,-11.5904,-11.6507,-11.7253,-11.7954,-11.8089,-11.8235,-11.8264,-11.8332,-11.8731,-11.8892,-11.9087,-11.9803,-11.9965,-11.9965,-11.9936,-11.9936,-11.9936,-12.0154,-12.0268,-12.0268,-12.0458,-12.005,-11.9936,-12.005,-12.005,-11.9974,-11.9936,-11.9936,-11.9936,-11.9936,-7.9128,-7.9726,-7.9726,-8.0276,-8.1231,-8.2677,-8.4051,-8.551,-8.6853,-8.7766,-8.827,-8.8668,-8.8963,-8.8963,-8.8963,-8.8963,-8.9067,-8.8963,-8.8928,-8.8963,-8.8876,-8.8667,-8.7904,-8.7837,-8.7362,-8.732,-8.8636,-9.0343,-9.1516,-9.2691,-9.4024,-9.5494,-9.637,-9.6834,-9.6957,-9.6957,-9.6884,-9.6884,-9.6884,-9.6884,-9.692,-9.692,-9.6957,-9.6957,-9.6957,-9.6957,-9.6957,-9.6957,-9.6957,-9.6957,-9.6957,-9.6957,-9.7047,-9.7099,-9.7201,-9.745,-9.8227,-9.8769,-9.8949,-9.9822,-10.0341,-10.1418,-10.2347,-10.3041,-10.4044,-10.5269,-10.6655,-10.7397,-10.7694,-10.7694,-10.7694,-10.7657,-10.8103,-10.8548,-10.8846,-10.8883,-10.918,-11.0368,-11.0976,-11.1422,-11.3071,-11.4335,-11.467,-11.4911,-11.5531,-11.6049,-11.6645,-11.7422,-11.8228,-11.8427,-11.8542,-11.8317,-11.7917,-11.8105,-11.7913,-11.8872,-11.9906,-11.9955,-11.9955,-11.9965,-11.9936,-11.9936,-12.0117,-12.0875,-12.1141,-12.1434,-12.1141,-12.0885,-12.0467,-12.024,-12.0088,-11.9936,-11.9936,-11.9936,-11.9936,-8.0072,-8.1142,-8.1262,-8.2138,-8.3614,-8.5119,-8.6992,-8.9174,-8.9616,-9.0574,-9.1113,-9.1287,-9.1078,-9.1148,-9.1287,-9.1287,-9.0905,-9.0836,-9.094,-9.0974,-9.094,-9.0505,-8.9566,-8.9361,-8.8824,-8.8683,-9.0221,-9.2028,-9.2934,-9.423,-9.4975,-9.569,-9.6484,-9.6941,-9.6957,-9.6957,-9.6957,-9.6957,-9.6957,-9.6957,-9.6957,-9.6957,-9.6957,-9.6957,-9.6957,-9.6957,-9.6957,-9.6957,-9.6957,-9.6957,-9.6957,-9.6957,-9.701,-9.701,-9.732,-9.8014,-9.9349,-10.03,-10.0559,-10.1694,-10.2485,-10.3312,-10.4055,-10.4909,-10.5726,-10.6766,-10.736,-10.7694,-10.7694,-10.7694,-10.7694,-10.814,-10.8771,-10.9514,-10.9848,-10.9848,-11.0331,-11.1816,-11.3466,-11.3335,-11.5382,-11.7205,-11.6982,-11.7027,-11.7191,-11.7358,-11.7628,-11.805,-11.8542,-11.865,-11.8819,-11.8399,-11.7857,-11.7651,-11.7441,-11.9049,-11.9883,-11.9895,-11.9895,-11.9868,-11.9955,-11.9955,-12.0875,-12.2231,-12.2838,-12.2534,-12.2317,-12.2175,-12.1492,-12.0278,-12.005,-11.9974,-11.9936,-11.9936,-11.9936,-8.237,-8.2559,-8.2953,-8.3807,-8.5197,-8.664,-8.816,-8.9788,-9.0713,-9.1182,-9.1356,-9.1356,-9.1356,-9.1356,-9.1356,-9.1356,-9.1356,-9.1356,-9.1356,-9.1356,-9.1356,-9.1113,-9.0886,-9.0836,-9.0558,-9.0819,-9.1892,-9.266,-9.3337,-9.4231,-9.5322,-9.5958,-9.6501,-9.6779,-9.6957,-9.6957,-9.6957,-9.6957,-9.6957,-9.6957,-9.6957,-9.6957,-9.6957,-9.6957,-9.6957,-9.6957,-9.6957,-9.6957,-9.6957,-9.6957,-9.6957,-9.6957,-9.6957,-9.712,-9.7526,-9.938,-10.0872,-10.1752,-10.2127,-10.2561,-10.3438,-10.4723,-10.5132,-10.58,-10.684,-10.7472,-10.7694,-10.7694,-10.7694,-10.7694,-10.7806,-10.8474,-10.9403,-11.0071,-11.0108,-11.0034,-11.0814,-11.4045,-11.5145,-11.5282,-11.6411,-11.7748,-11.8133,-11.8387,-11.8466,-11.8504,-11.8504,-11.8614,-11.8753,-11.8914,-11.9088,-11.8863,-11.8862,-11.873,-11.867,-11.9807,-11.9769,-11.9782,-11.9745,-11.9871,-11.9985,-12.0718,-12.1943,-12.3385,-12.4231,-12.3569,-12.3237,-12.3085,-12.2099,-12.0467,-11.9936,-11.9936,-11.9936,-11.9936,-11.9936,-8.2751,-8.2873,-8.2995,-8.4381,-8.6275,-8.7137,-8.8625,-9.0479,-9.1182,-9.1356,-9.1356,-9.1356,-9.1356,-9.1356,-9.1356,-9.1356,-9.1356,-9.1356,-9.1356,-9.1356,-9.1356,-9.1356,-9.1356,-9.1356,-9.1618,-9.1933,-9.2495,-9.3253,-9.4087,-9.4927,-9.5712,-9.6328,-9.6633,-9.6888,-9.6957,-9.6957,-9.6957,-9.7031,-9.6957,-9.6957,-9.6957,-9.6957,-9.6957,-9.6957,-9.6957,-9.6957,-9.7031,-9.6994,-9.6957,-9.6957,-9.6994,-9.7326,-9.8026,-9.7584,-9.841,-10.0565,-10.2427,-10.34,-10.3875,-10.4423,-10.5317,-10.6258,-10.6419,-10.7026,-10.7434,-10.7694,-10.7694,-10.7694,-10.7694,-10.7694,-10.7769,-10.8586,-10.9848,-11.0665,-11.1408,-11.1779,-11.2596,-11.3785,-11.4759,-11.5544,-11.6899,-11.7877,-11.8389,-11.865,-11.8786,-11.892,-11.8951,-11.9098,-11.9243,-11.9243,-11.9424,-11.9488,-11.9621,-11.971,-11.971,-11.9725,-11.9725,-11.9703,-11.9907,-12.021,-12.1158,-12.2233,-12.3157,-12.4624,-12.6116,-12.5304,-12.3986,-12.3882,-12.3275,-12.1264,-11.9936,-11.9936,-11.9936,-11.9936,-11.9936,-8.2751,-8.2873,-8.2964,-8.4548,-8.6853,-8.7308,-8.8862,-9.1321,-9.1321,-9.1356,-9.1356,-9.1356,-9.1356,-9.1356,-9.1356,-9.1356,-9.1356,-9.1356,-9.1356,-9.1356,-9.1356,-9.1356,-9.1356,-9.1356,-9.1722,-9.2282,-9.2977,-9.3789,-9.469,-9.5423,-9.6174,-9.6557,-9.6834,-9.6957,-9.6957,-9.6994,-9.7068,-9.7473,-9.7584,-9.7841,-9.8173,-9.832,-9.8357,-9.832,-9.8283,-9.8026,-9.7657,-9.7178,-9.7326,-9.7915,-9.8431,-9.9241,-9.9867,-9.972,-10.0531,-10.2502,-10.4032,-10.5065,-10.5304,-10.6222,-10.7231,-10.7208,-10.7347,-10.7694,-10.7694,-10.7694,-10.7694,-10.7694,-10.7694,-10.7694,-10.7806,-10.7991,-10.9403,-11.0962,-11.1705,-11.2448,-11.423,-11.4335,-11.465,-11.5404,-11.6966,-11.8269,-11.8391,-11.9041,-11.9217,-11.9306,-11.9462,-11.9641,-11.9661,-11.9641,-11.9661,-11.9604,-11.9715,-11.9715,-11.9715,-11.9715,-11.9731,-11.9731,-12.0332,-12.0916,-12.3098,-12.4516,-12.5593,-12.6684,-12.7658,-12.6317,-12.4697,-12.4404,-12.3531,-12.1644,-11.9936,-11.9936,-11.9936,-11.9936,-11.9936,-8.2751,-8.2905,-8.3447,-8.5006,-8.6992,-8.7789,-8.9286,-9.1108,-9.1356,-9.1356,-9.1356,-9.1356,-9.1356,-9.1356,-9.1356,-9.1356,-9.1356,-9.1356,-9.1356,-9.1356,-9.1356,-9.1356,-9.1321,-9.141,-9.1829,-9.2404,-9.2942,-9.3789,-9.4759,-9.5613,-9.6174,-9.6777,-9.7072,-9.7068,-9.7547,-9.7326,-9.7878,-9.8983,-9.9241,-9.9757,-10.0567,-10.0752,-10.0715,-10.0752,-10.0752,-10.0273,-9.9204,-9.821,-9.8357,-10.1194,-10.2262,-10.1967,-10.1857,-10.4472,-10.5025,-10.462,-10.5356,-10.6412,-10.6817,-10.6872,-10.7237,-10.7519,-10.7607,-10.7694,-10.7694,-10.7694,-10.7694,-10.7694,-10.7694,-10.7694,-10.7843,-10.892,-10.9848,-11.0554,-11.048,-11.1816,-11.4298,-11.64,-11.6966,-11.6288,-11.7769,-11.9001,-11.9439,-11.966,-11.9641,-11.9543,-11.9622,-11.9717,-11.9717,-11.9717,-11.9717,-11.9717,-11.9717,-11.9717,-11.9717,-11.9755,-11.9773,-12.019,-12.1074,-12.2303,-12.4484,-12.6509,-12.7722,-12.8459,-12.8693,-12.7734,-12.5888,-12.4269,-12.3179,-12.1662,-12.0258,-12.0003,-11.9936,-11.9936,-11.9936,-8.2995,-8.3238,-8.4063,-8.5537,-8.7412,-8.835,-8.9726,-9.1163,-9.1356,-9.1356,-9.1356,-9.1356,-9.1356,-9.1356,-9.1356,-9.1356,-9.1356,-9.1356,-9.1356,-9.1356,-9.1391,-9.1425,-9.1532,-9.1792,-9.2236,-9.2931,-9.3515,-9.4339,-9.5271,-9.5712,-9.6781,-9.7767,-9.8268,-9.8947,-9.9573,-9.9831,-10.0236,-10.0715,-10.0899,-10.1157,-10.182,-10.1857,-10.1894,-10.1894,-10.1857,-10.1673,-10.1009,-10.0199,-10.0346,-10.1562,-10.2299,-10.2778,-10.3367,-10.473,-10.5467,-10.5872,-10.6314,-10.6798,-10.6929,-10.7039,-10.7237,-10.7431,-10.7607,-10.7694,-10.7694,-10.7694,-10.7694,-10.7694,-10.7694,-10.7694,-10.7806,-10.8251,-10.9477,-11.0777,-11.0591,-11.1371,-11.4527,-11.5926,-11.6592,-11.7372,-11.8301,-11.9217,-11.9392,-11.9602,-11.9698,-11.9717,-11.9717,-11.9717,-11.9717,-11.9717,-11.9717,-11.9717,-11.9717,-11.9717,-11.9717,-11.9906,-11.9982,-12.1156,-12.2139,-12.3293,-12.5528,-12.7912,-12.88,-12.9308,-12.9611,-12.9134,-12.7176,-12.5332,-12.379,-12.2133,-12.0779,-12.0069,-12.0003,-11.9936,-11.9936,-8.3326,-8.3891,-8.481,-8.6308,-8.8097,-8.8992,-9.0174,-9.1287,-9.1356,-9.1356,-9.1356,-9.1356,-9.1356,-9.1356,-9.1356,-9.1356,-9.1356,-9.1356,-9.1356,-9.1391,-9.1668,-9.2084,-9.261,-9.3307,-9.4032,-9.468,-9.5556,-9.602,-9.6995,-9.7587,-9.8363,-9.968,-10.0015,-10.0715,-10.1673,-10.1673,-10.2041,-10.2446,-10.252,-10.2704,-10.3146,-10.3293,-10.3146,-10.3146,-10.3257,-10.3036,-10.2557,-10.252,-10.263,-10.3072,-10.3146,-10.3772,-10.4841,-10.5135,-10.5651,-10.6425,-10.6719,-10.674,-10.6911,-10.7022,-10.7147,-10.7268,-10.7482,-10.7607,-10.7657,-10.7694,-10.7694,-10.7694,-10.7694,-10.7694,-10.7694,-10.7732,-10.8697,-11.0814,-11.1519,-11.25,-11.4613,-11.574,-11.65,-11.7562,-11.8612,-11.9205,-11.9439,-11.9602,-11.9717,-11.9717,-11.9717,-11.9717,-11.9717,-11.9717,-11.9717,-11.9717,-11.9717,-11.9717,-11.9868,-12.0134,-12.0853,-12.2141,-12.3542,-12.4773,-12.7006,-12.8842,-12.939,-12.9823,-12.9807,-12.9238,-12.7625,-12.6389,-12.4395,-12.2526,-12.14,-12.0627,-12.041,-11.9965,-11.9965,-8.3977,-8.486,-8.5602,-8.7092,-8.9024,-8.96,-9.0381,-9.1252,-9.1356,-9.1356,-9.1356,-9.1356,-9.1356,-9.1356,-9.1356,-9.1356,-9.1356,-9.1356,-9.1356,-9.1703,-9.2709,-9.3853,-9.4894,-9.5752,-9.6575,-9.7498,-9.8469,-9.9465,-10.0006,-10.0449,-10.1353,-10.1598,-10.1727,-10.1894,-10.2299,-10.2004,-10.2925,-10.4067,-10.4251,-10.4914,-10.6056,-10.6204,-10.6204,-10.6167,-10.6056,-10.5467,-10.4435,-10.4251,-10.4877,-10.6167,-10.6056,-10.6056,-10.6461,-10.6572,-10.6461,-10.6646,-10.6719,-10.6777,-10.6854,-10.6966,-10.7039,-10.7268,-10.7394,-10.7394,-10.7607,-10.7694,-10.7694,-10.7694,-10.7694,-10.7694,-10.7694,-10.7843,-10.7991,-10.8623,-11.1631,-11.4042,-11.5404,-11.7147,-11.7672,-11.7465,-11.8433,-11.9661,-11.9641,-11.9661,-11.9717,-11.9717,-11.9717,-11.9717,-11.9717,-11.9717,-11.9717,-11.9717,-11.9717,-11.9906,-12.055,-12.0929,-12.1989,-12.3466,-12.5284,-12.6799,-12.875,-12.9318,-12.9716,-12.9697,-12.9621,-12.8845,-12.7916,-12.7213,-12.5827,-12.3849,-12.2513,-12.1552,-12.0855,-12.022,-12.0003,-8.3859,-8.5345,-8.6308,-8.7789,-8.958,-9.0436,-9.0955,-9.1321,-9.1356,-9.1356,-9.1356,-9.1356,-9.1356,-9.1356,-9.1356,-9.1356,-9.1356,-9.1356,-9.1356,-9.1599,-9.2951,-9.39,-9.4604,-9.6118,-9.7663,-9.8866,-9.9922,-10.0708,-10.1218,-10.1471,-10.2161,-10.3274,-10.3441,-10.3846,-10.4841,-10.4914,-10.5135,-10.5688,-10.5872,-10.613,-10.6609,-10.6719,-10.6719,-10.6719,-10.6719,-10.6425,-10.5946,-10.5872,-10.613,-10.6572,-10.6719,-10.6719,-10.6719,-10.6719,-10.6719,-10.6719,-10.6719,-10.674,-10.6911,-10.6911,-10.6985,-10.7216,-10.7305,-10.7394,-10.7607,-10.7694,-10.7694,-10.7694,-10.7694,-10.7694,-10.7843,-10.8474,-10.9106,-10.918,-11.1891,-11.3818,-11.5532,-11.7526,-11.8454,-11.8548,-11.903,-11.9585,-11.9717,-11.9717,-11.9717,-11.9717,-11.9717,-11.9717,-11.9717,-11.9717,-11.9717,-11.9717,-11.9755,-12.0285,-12.1043,-12.2065,-12.3088,-12.4906,-12.6799,-12.8428,-12.9375,-12.9602,-12.9678,-12.9678,-12.9678,-12.8977,-12.875,-12.8049,-12.7216,-12.5546,-12.3796,-12.2878,-12.1969,-12.1147,-12.041,-8.4063,-8.5602,-8.678,-8.8332,-8.9874,-9.0963,-9.1356,-9.1356,-9.1356,-9.1356,-9.1356,-9.1356,-9.1356,-9.1356,-9.1356,-9.1356,-9.1356,-9.1391,-9.1911,-9.2882,-9.3888,-9.4905,-9.6093,-9.7668,-9.9178,-10.0631,-10.1919,-10.2646,-10.2938,-10.3094,-10.3748,-10.4857,-10.5135,-10.5688,-10.6535,-10.6719,-10.6719,-10.6719,-10.6719,-10.6719,-10.6719,-10.6719,-10.6719,-10.6719,-10.6719,-10.6719,-10.6719,-10.6719,-10.6719,-10.6719,-10.6719,-10.6719,-10.6719,-10.6719,-10.6719,-10.6719,-10.6719,-10.6777,-10.6798,-10.6854,-10.6966,-10.72,-10.7216,-10.7394,-10.7607,-10.7694,-10.7694,-10.7694,-10.7694,-10.7694,-10.7843,-10.8734,-10.9663,-11.0702,-11.2745,-11.487,-11.6161,-11.7828,-11.8936,-11.9306,-11.9602,-11.9717,-11.9717,-11.9717,-11.9717,-11.9717,-11.9717,-11.9717,-11.9717,-11.9717,-11.9717,-11.9717,-11.9906,-12.0209,-12.1573,-12.2823,-12.4148,-12.5928,-12.7784,-12.945,-12.9602,-12.9678,-12.9678,-12.9678,-12.9678,-12.9488,-12.9375,-12.8844,-12.7993,-12.6609,-12.5508,-12.4441,-12.3347,-12.2424,-12.1564,-8.4413,-8.5681,-8.7336,-8.8701,-8.9934,-9.0928,-9.1356,-9.1356,-9.1356,-9.1356,-9.1356,-9.1356,-9.1356,-9.1356,-9.1356,-9.1356,-9.1356,-9.1356,-9.2604,-9.4894,-9.5483,-9.7113,-9.9603,-10.0532,-10.1703,-10.287,-10.4923,-10.5872,-10.575,-10.5932,-10.6182,-10.6572,-10.6498,-10.6498,-10.6719,-10.6719,-10.6719,-10.6719,-10.6719,-10.6719,-10.6719,-10.6719,-10.6719,-10.6719,-10.6719,-10.6719,-10.6719,-10.6719,-10.6719,-10.6719,-10.6719,-10.6719,-10.6719,-10.6719,-10.6719,-10.6719,-10.6719,-10.6719,-10.6719,-10.6719,-10.6854,-10.7039,-10.7126,-10.7268,-10.757,-10.7694,-10.7694,-10.7694,-10.7694,-10.7694,-10.7732,-10.8177,-10.9477,-11.2188,-11.4787,-11.6586,-11.7331,-11.8101,-11.8889,-11.95,-11.9698,-11.9717,-11.9717,-11.9717,-11.9717,-11.9717,-11.9717,-11.9717,-11.9717,-11.9717,-11.9717,-11.9717,-11.9793,-12.0437,-12.1952,-12.3542,-12.5133,-12.6648,-12.8011,-12.8693,-12.8352,-12.8958,-12.8844,-12.9034,-12.9034,-12.9678,-12.9526,-12.9413,-12.8579,-12.8068,-12.7329,-12.6303,-12.5009,-12.3712,-12.2867,-8.4465,-8.6492,-8.7441,-8.8998,-9.0838,-9.1267,-9.1356,-9.1356,-9.1356,-9.1356,-9.1356,-9.1356,-9.1356,-9.1356,-9.1356,-9.1356,-9.1356,-9.1356,-9.1841,-9.2917,-9.4928,-9.6662,-9.8403,-10.0983,-10.2832,-10.4094,-10.5309,-10.6117,-10.6469,-10.641,-10.6469,-10.6756,-10.6719,-10.6719,-10.6719,-10.6719,-10.6719,-10.6719,-10.6719,-10.6719,-10.6719,-10.6719,-10.6719,-10.6719,-10.6719,-10.6719,-10.6719,-10.6719,-10.6719,-10.6719,-10.6719,-10.6719,-10.6719,-10.6719,-10.6719,-10.6719,-10.6719,-10.6719,-10.6719,-10.6719,-10.674,-10.6929,-10.7073,-10.7179,-10.7357,-10.757,-10.7694,-10.7694,-10.7694,-10.7694,-10.8066,-10.97,-11.1816,-11.3822,-11.5047,-11.6246,-11.7605,-11.8044,-11.8504,-11.919,-11.9581,-11.9698,-11.9717,-11.9717,-11.9717,-11.9717,-11.9717,-11.9717,-11.9717,-11.9717,-11.9717,-11.9717,-11.9717,-12.0512,-12.1724,-12.2633,-12.3883,-12.4943,-12.6193,-12.6042,-12.6004,-12.7178,-12.7784,-12.8087,-12.8579,-12.9337,-12.9678,-12.9678,-12.9375,-12.8958,-12.7841,-12.6703,-12.6266,-12.5009,-12.4395,-8.4778,-8.6566,-8.7926,-8.9325,-9.0781,-9.1232,-9.1356,-9.1356,-9.1356,-9.1356,-9.1356,-9.1356,-9.1356,-9.1356,-9.1356,-9.1356,-9.1356,-9.1356,-9.1633,-9.2486,-9.4403,-9.6338,-9.7963,-10.0746,-10.2941,-10.4401,-10.5345,-10.6066,-10.6602,-10.6506,-10.6506,-10.6661,-10.6719,-10.6719,-10.6719,-10.6719,-10.6719,-10.6719,-10.6719,-10.6719,-10.6719,-10.6719,-10.6719,-10.6719,-10.6719,-10.6719,-10.6719,-10.6719,-10.6719,-10.6719,-10.6719,-10.6719,-10.6719,-10.6719,-10.6719,-10.6719,-10.6719,-10.6719,-10.6719,-10.6719,-10.674,-10.6911,-10.7022,-10.7167,-10.7305,-10.7482,-10.7694,-10.7806,-10.8103,-10.892,-10.97,-11.1779,-11.3822,-11.4787,-11.5419,-11.6469,-11.7444,-11.7907,-11.8228,-11.8857,-11.9306,-11.9602,-11.9641,-11.9717,-11.9717,-11.9717,-11.9717,-11.9717,-11.9717,-11.9717,-11.9717,-11.9717,-11.9755,-12.0134,-12.1308,-12.1724,-12.2482,-12.3466,-12.4262,-12.4451,-12.4754,-12.589,-12.6155,-12.6383,-12.6648,-12.7216,-12.7178,-12.7178,-12.7178,-12.6951,-12.6761,-12.6099,-12.7102,-12.5508,-12.5123,-8.5233,-8.6045,-8.8601,-8.9744,-8.9969,-9.0928,-9.1356,-9.1356,-9.1356,-9.1356,-9.1356,-9.1356,-9.1356,-9.1356,-9.1356,-9.1356,-9.1356,-9.1356,-9.205,-9.3284,-9.4323,-9.6318,-9.9216,-10.0651,-10.2361,-10.4287,-10.5222,-10.595,-10.6543,-10.6602,-10.6661,-10.6719,-10.6719,-10.6719,-10.6719,-10.6719,-10.6719,-10.6719,-10.6719,-10.6719,-10.6719,-10.6719,-10.6719,-10.6719,-10.6719,-10.6719,-10.6719,-10.6719,-10.6719,-10.6719,-10.6719,-10.6719,-10.6719,-10.6719,-10.6719,-10.6719,-10.6719,-10.6719,-10.6719,-10.6719,-10.6777,-10.6891,-10.7019,-10.7169,-10.7253,-10.7519,-10.7769,-10.788,-10.9477,-11.0999,-11.2373,-11.397,-11.5047,-11.527,-11.6458,-11.7164,-11.7441,-11.7742,-11.8095,-11.8542,-11.8951,-11.928,-11.9661,-11.9717,-11.9717,-11.9717,-11.9717,-11.9717,-11.9717,-11.9717,-11.9717,-11.9717,-11.9717,-11.9755,-11.9906,-12.0815,-12.1762,-12.2217,-12.2898,-12.3997,-12.43,-12.4489,-12.4527,-12.4641,-12.5133,-12.5246,-12.4792,-12.4754,-12.5095,-12.5133,-12.5057,-12.536,-12.625,-12.5491,-12.5242,-8.6341,-8.7231,-8.8732,-8.9995,-9.0928,-9.1232,-9.1356,-9.1356,-9.1356,-9.1356,-9.1356,-9.1356,-9.1356,-9.1356,-9.1356,-9.1356,-9.1356,-9.1356,-9.1599,-9.2139,-9.3869,-9.5923,-9.8322,-10.0365,-10.2505,-10.4583,-10.5202,-10.5421,-10.5586,-10.582,-10.6202,-10.6698,-10.6719,-10.6719,-10.6719,-10.6719,-10.6719,-10.6719,-10.6719,-10.6719,-10.6719,-10.6719,-10.6719,-10.6719,-10.6719,-10.6719,-10.6719,-10.6719,-10.6719,-10.6719,-10.6719,-10.6719,-10.6719,-10.6719,-10.6719,-10.6719,-10.6719,-10.6719,-10.6719,-10.6719,-10.6719,-10.6777,-10.6998,-10.7149,-10.7221,-10.7468,-10.8177,-10.9291,-11.1928,-11.345,-11.4379,-11.5716,-11.6644,-11.6718,-11.7015,-11.735,-11.7441,-11.7457,-11.785,-11.8428,-11.8722,-11.8982,-11.9581,-11.9717,-11.9717,-11.9717,-11.9717,-11.9717,-11.9717,-11.9717,-11.9717,-11.9717,-11.9717,-11.9717,-11.9793,-12.0323,-12.0323,-12.0588,-12.0815,-12.1383,-12.108,-12.2292,-12.2898,-12.3012,-12.4072,-12.4375,-12.3959,-12.4262,-12.4641,-12.4603,-12.4565,-12.4754,-12.5246,-12.5019,-12.498,-8.7823,-8.8433,-8.958,-9.0586,-9.1321,-9.1356,-9.1356,-9.1356,-9.1356,-9.1356,-9.1356,-9.1356,-9.1356,-9.1356,-9.1356,-9.1356,-9.1356,-9.1356,-9.1356,-9.1514,-9.3266,-9.5103,-9.7211,-9.9611,-10.1967,-10.384,-10.4989,-10.5457,-10.5421,-10.5755,-10.6202,-10.6661,-10.6719,-10.6719,-10.6719,-10.6719,-10.6719,-10.6719,-10.6719,-10.6719,-10.6719,-10.6719,-10.6719,-10.6719,-10.6719,-10.6719,-10.6719,-10.6719,-10.6719,-10.6719,-10.6719,-10.6719,-10.6719,-10.6719,-10.6719,-10.6719,-10.6719,-10.6719,-10.6719,-10.674,-10.6834,-10.6798,-10.7039,-10.7151,-10.72,-10.8076,-10.8957,-11.0071,-11.1705,-11.3228,-11.3896,-11.5419,-11.6347,-11.6512,-11.7154,-11.7642,-11.7642,-11.768,-11.7954,-11.865,-11.8722,-11.8889,-11.9521,-11.9717,-11.9717,-11.9717,-11.9717,-11.9717,-11.9717,-11.9717,-11.9717,-11.9717,-11.9717,-11.9717,-11.9717,-11.9717,-11.9755,-11.9755,-11.9717,-11.9717,-11.9944,-12.074,-12.1232,-12.127,-12.1838,-12.233,-12.2747,-12.2595,-12.2633,-12.2444,-12.2557,-12.2898,-12.358,-12.3656,-12.3277,-8.8878,-8.9232,-9.0251,-9.0974,-9.1078,-9.1287,-9.1356,-9.1356,-9.1356,-9.1287,-9.1078,-9.1182,-9.1182,-9.1321,-9.1356,-9.1356,-9.1356,-9.141,-9.141,-9.1498,-9.2731,-9.4189,-9.588,-9.8648,-10.0804,-10.2473,-10.4411,-10.5404,-10.5726,-10.5977,-10.6288,-10.6661,-10.6719,-10.6719,-10.6719,-10.6719,-10.6719,-10.6719,-10.6719,-10.6719,-10.6719,-10.6719,-10.6719,-10.6719,-10.6719,-10.6683,-10.6425,-10.6498,-10.6425,-10.6277,-10.6204,-10.624,-10.6204,-10.624,-10.624,-10.6167,-10.6204,-10.6388,-10.6498,-10.6761,-10.6911,-10.6911,-10.7095,-10.7258,-10.7379,-10.8906,-11.001,-11.0108,-11.022,-11.1274,-11.2388,-11.3889,-11.4759,-11.4898,-11.6283,-11.767,-11.7595,-11.782,-11.816,-11.9032,-11.8889,-11.8883,-11.9564,-11.9717,-11.9717,-11.9717,-11.9717,-11.9717,-11.9717,-11.9717,-11.9717,-11.9717,-11.9717,-11.9717,-11.9717,-11.9717,-11.9717,-11.9717,-11.9717,-11.9717,-11.9717,-11.9793,-11.9755,-12.0209,-12.0134,-12.0209,-12.0096,-11.9755,-11.9982,-12.0437,-12.0399,-12.0323,-12.1535,-12.2027,-12.1573,-8.6965,-8.7283,-8.7663,-8.8477,-8.9656,-9.0836,-9.1356,-9.1356,-9.1321,-9.0713,-8.967,-8.9566,-9.0208,-9.1287,-9.1356,-9.1356,-9.141,-9.1846,-9.1846,-9.1498,-9.2696,-9.4154,-9.5667,-9.7067,-9.9505,-10.2489,-10.3412,-10.4485,-10.5682,-10.604,-10.619,-10.6288,-10.6602,-10.6719,-10.6719,-10.6719,-10.6719,-10.6719,-10.6719,-10.6719,-10.6719,-10.6719,-10.6719,-10.6719,-10.6683,-10.6167,-10.4988,-10.4914,-10.4325,-10.3072,-10.2962,-10.2962,-10.2999,-10.2962,-10.2962,-10.2962,-10.2962,-10.3551,-10.4804,-10.5983,-10.6834,-10.6911,-10.7076,-10.7184,-10.7416,-10.8966,-11.002,-11.0182,-11.0888,-11.1982,-11.2532,-11.311,-11.3506,-11.3805,-11.4297,-11.5161,-11.625,-11.6513,-11.711,-11.8814,-11.907,-11.9152,-11.9602,-11.9717,-11.9717,-11.9717,-11.9717,-11.9717,-11.9717,-11.9717,-11.9717,-11.9717,-11.9717,-11.9717,-11.9717,-11.9717,-11.9717,-11.9717,-11.9717,-11.9717,-11.9717,-11.9717,-11.9717,-11.9717,-11.9717,-11.9717,-11.9717,-11.9717,-11.9717,-11.9717,-11.9717,-11.9868,-12.0399,-12.0437,-12.0134,-8.6488,-8.6624,-8.6708,-8.7229,-8.8026,-8.8876,-8.9274,-8.9289,-8.9239,-8.8787,-8.8028,-8.7973,-8.8821,-9.0246,-9.0593,-9.1148,-9.1846,-9.2485,-9.2567,-9.2319,-9.3253,-9.4095,-9.5062,-9.6848,-9.8754,-10.0616,-10.2542,-10.3947,-10.4852,-10.5737,-10.6252,-10.6483,-10.7434,-10.823,-10.8856,-10.823,-10.7861,-10.7824,-10.5784,-10.4289,-10.3551,-10.1493,-10.0028,-9.9325,-10.0028,-9.9954,-9.919,-9.9153,-9.8746,-9.782,-9.7783,-9.8387,-9.9712,-9.9823,-10.0434,-10.1746,-10.1857,-10.2299,-10.3183,-10.403,-10.4529,-10.4732,-10.556,-10.5882,-10.5256,-10.6059,-10.6666,-10.6692,-10.7592,-10.8645,-10.9544,-11.0463,-11.1408,-11.2378,-11.3304,-11.4154,-11.4945,-11.5133,-11.6002,-11.7819,-11.8109,-11.8436,-11.9585,-11.9717,-11.9717,-11.9717,-11.9717,-11.9717,-11.9717,-11.9717,-11.9717,-11.9717,-11.9717,-11.9717,-11.9717,-11.9717,-11.9717,-11.9717,-11.9717,-11.9717,-11.9717,-11.9717,-11.9717,-11.9717,-11.9717,-11.9717,-11.9717,-11.9717,-11.9717,-11.9717,-11.9717,-11.9717,-11.9717,-11.9717,-11.9717,-8.6049,-8.6084,-8.6084,-8.6223,-8.6347,-8.6451,-8.6472,-8.6644,-8.6276,-8.6137,-8.6416,-8.6368,-8.7248,-8.8685,-8.9326,-9.0413,-9.1968,-9.2407,-9.2757,-9.2934,-9.3507,-9.3759,-9.3892,-9.6646,-9.7985,-9.8303,-10.1474,-10.3232,-10.3659,-10.5126,-10.6226,-10.6845,-10.8414,-10.9998,-11.1324,-11.0219,-10.9114,-10.8141,-10.4028,-10.1558,-10.068,-9.6862,-9.3737,-9.1476,-9.3111,-9.3376,-9.1967,-9.2413,-9.2153,-9.1223,-9.1186,-9.2325,-9.4842,-9.4833,-9.6477,-9.9586,-9.9955,-10.0233,-10.0843,-10.0934,-10.1229,-10.2038,-10.3616,-10.3648,-10.1623,-10.2225,-10.2733,-10.2793,-10.3329,-10.387,-10.5333,-10.7086,-10.8568,-11.0093,-11.1731,-11.2883,-11.2921,-11.3185,-11.419,-11.6083,-11.6565,-11.7525,-11.896,-11.9528,-11.9717,-11.9717,-11.9717,-11.9717,-11.9717,-11.9717,-11.9717,-11.9717,-11.9717,-11.9717,-11.9717,-11.9717,-11.9717,-11.9717,-11.9717,-11.9717,-11.9717,-11.9717,-11.9717,-11.9717,-11.9717,-11.9717,-11.9717,-11.9717,-11.9717,-11.9717,-11.9717,-11.9717,-11.9717,-11.9111,-11.8884,-8.2997,-8.2997,-8.2997,-8.376,-8.4939,-8.4895,-8.5545,-8.6543,0.0,0.0,0.0,-8.4898,-8.5708,-8.7125,-8.7209,-8.8427,-9.0331,-8.9723,-9.0099,-9.1268,-9.1866,-9.2186,-9.2237,-9.4354,-9.6458,-9.8448,-9.9366,-10.0598,-10.2223,-10.3879,-10.5372,-10.6756,-10.8414,-11.0035,-11.1435,-11.1287,-10.8605,-10.3675,-10.141,-10.2011,-10.5359,-10.4696,-10.102,-9.4277,-9.7102,-9.4942,-8.724,-8.9474,-8.847,-8.3187,-8.2815,-8.3075,-8.3557,-8.3595,-8.5638,-9.0059,-9.059,-9.233,-9.597,-9.625,-9.7857,-10.1617,-10.2407,-10.0544,-9.5451,-10.0208,-10.3449,-10.3458,-10.3453,-10.3765,-10.4409,-10.4802,-10.5231,-10.5844,-10.6185,-10.7036,-10.8379,-10.9704,-11.1198,-11.3013,-11.5287,-11.7256,-11.7634,-11.8808,-11.9717,-11.9717,-11.9717,-11.9717,-11.9717,-11.9641,-11.9603,-11.9679,-11.9717,-11.9717,-11.9717,-11.9717,-11.9717,-11.9717,-11.9717,-11.9717,-11.9717,-11.9717,-11.9717,-11.9603,-11.9717,-11.9603,-11.9679,-11.949,-11.9717,-11.9717,-11.9717,-11.9717,-11.949,-11.7596,-11.6233,-8.2199,-8.2199,-8.2199,-8.265,0.0,-8.3366,-8.3724,-8.4371,-8.288,-8.2639,-8.3389,-8.3367,-8.4246,-8.5633,-8.5928,-8.7259,-8.9328,-8.9115,-8.9582,-9.0651,-9.1717,-9.2237,-9.2304,-9.4388,-9.6029,-9.7323,-9.8615,-9.9702,-10.0752,-10.2299,-10.2667,-10.182,-10.3644,-10.3625,-10.2038,-10.3675,-10.2696,-9.88,-10.0325,-10.1715,-10.2997,-10.0902,-9.7509,-9.3013,-9.509,0.0,0.0,0.0,0.0,0.0,0.0,0.0,0.0,0.0,0.0,-8.4962,-8.1659,-8.0465,-8.2626,-8.2852,-8.4934,-8.9594,-9.0124,-8.8358,-8.3817,-8.9664,-9.3922,-9.481,-9.6596,-9.9094,-10.2526,-10.3115,-10.3631,-10.4627,-10.4757,-10.506,-10.5931,-10.6764,-10.7901,-10.9605,-11.1915,-11.4188,-11.5702,-11.7407,-11.8732,-11.9566,-11.9717,-11.9717,-11.9679,-11.9035,-11.8846,-11.9603,-11.9717,-11.9717,-11.9717,-11.9717,-11.9717,-11.9717,-11.9717,-11.9717,-11.9717,-11.9717,-11.9452,-11.8619,-11.8505,-11.8126,-11.7445,-11.7179,-11.7179,-11.7179,-11.7179,-11.7179,-11.7066,-11.5854,-11.4983,-8.1332,-8.1367,-8.1645,-8.1749,-8.1749,-8.1436,-8.1332,-8.1367,-8.1679,-8.1738,-8.1773,-8.2219,-8.3098,-8.4476,-8.5023,-8.6328,-8.8369,-8.8509,-8.9056,-9.0016,-9.1244,-9.1886,-9.2087,-9.4402,-9.558,-9.5794,-9.7937,-9.9003,-9.9094,-10.0678,-10.0383,-9.8468,-10.0281,-9.9066,-9.5119,0.0,0.0,0.0,-9.931,-10.1397,-10.0532,-9.6973,-9.362,-9.0658,-9.2293,0.0,-8.9402,-8.9812,-8.9067,-8.6834,-8.6685,0.0,0.0,0.0,0.0,0.0,0.0,0.0,0.0,0.0,0.0,0.0,-7.4441,-7.3545,-7.2625,-7.8026,-8.2156,-8.3639,-8.8035,-9.2733,-9.7232,-9.8427,-9.9871,-10.2068,-10.2409,-10.2826,-10.3772,-10.4113,-10.4795,-10.6196,-10.8128,-11.04,-11.2862,-11.5059,-11.6725,-11.7785,-11.8543,-11.8657,-11.8202,-11.7255,-11.7255,-11.8467,-11.8505,-11.8694,-11.877,-11.8657,-11.8467,-11.877,-11.877,-11.8657,-11.8619,-11.8657,-11.8126,-11.7066,-11.6763,-11.6271,-11.5059,-11.468,-11.4869,-11.4718,-11.4756,-11.4377,-11.3468,-11.3279,-11.3506,-7.8176,-7.8315,-7.9633,-8.0188,-8.0118,-7.8731,-7.8176,-7.828,-7.9572,-8.0184,-8.0333,-8.2078,-8.3314,-8.4072,-8.4144,-8.5313,-8.7183,-8.5927,-8.6469,-8.8319,-8.8535,-8.8761,-8.9094,-9.2168,-9.3901,-9.4374,-9.6119,-9.711,-9.7363,-9.902,-10.1046,-10.3441,-10.5082,-10.4991,-10.3002,-9.6739,-9.2785,-9.1334,-9.7159,-10.133,-10.3681,-10.322,-9.8789,-9.0751,-9.3129,-9.1492,-8.4601,-8.6871,-8.6313,-8.1959,-8.1588,-8.1774,-8.2034,-7.7484,-7.4151,0.0,-6.6811,0.0,0.0,0.0,0.0,0.0,0.0,0.0,0.0,-7.1255,-7.361,-7.4081,-8.2233,-8.6201,-8.2964,-8.5277,-8.885,-9.3319,-9.3925,-9.563,-9.9834,-10.1689,-10.2674,-10.2863,-10.5704,-10.7711,-10.8204,-11.093,-11.2786,-11.3316,-11.4053,-11.3788,-11.3409,-11.3864,-11.4621,-11.5248,-11.5324,-11.5324,-11.5362,-11.5362,-11.5362,-11.5324,-11.5324,-11.5324,-11.5324,-11.5324,-11.5248,-11.4983,-11.4756,-11.4756,-11.4756,-11.4491,-11.4491,-11.4188,-11.4112,-11.29,-10.9605,-10.8544,-10.9188,-7.7552,-7.7621,-7.835,-7.7136,-7.4812,-7.503,-7.5102,-7.5101,-7.5783,-7.6618,-7.7467,-7.8379,-8.0085,-8.2268,-8.2516,-8.3711,-8.5641,-8.5032,-8.5527,-8.6973,-8.7902,-8.8397,-8.8756,-9.1289,-9.2579,-9.2831,-9.4648,-9.56,-9.5778,-9.7326,-9.7915,-9.762,-9.9364,-9.8215,-9.4155,-9.2479,-9.3,-9.5758,-9.851,-10.1367,-10.4251,-10.4399,-10.1912,-9.6855,-9.8051,-9.6735,-9.2444,-9.3628,-9.2962,-8.9929,-8.9744,-8.8575,-8.5933,-7.64,-7.0553,0.0,0.0,0.0,0.0,0.0,0.0,0.0,0.0,0.0,0.0,0.0,-6.3485,-6.6619,-7.7476,-8.3101,-8.0165,-8.1957,-8.3889,-8.5252,-8.3738,-8.4949,-9.0782,-9.2941,-9.3585,-9.2713,-9.7182,-10.0743,-10.1614,-10.3772,-10.6537,-11.0362,-10.5943,-10.2655,-10.3868,-10.6184,-10.8128,-10.9113,-11.0774,-11.1991,-11.1991,-11.1991,-11.1991,-11.1991,-11.1991,-11.1991,-11.1991,-11.1953,-11.165,-11.0817,-11.059,-11.0324,-10.9378,-10.9188,-10.9188,-10.9188,-10.9188,-10.8355,-10.6386,-10.5893,-10.6537,-7.5748,-7.5228,-7.3254,-7.1061,-6.8868,-7.0023,-7.1036,-7.2015,-7.2346,-7.3036,-7.4043,-7.49,-7.5999,-7.7399,-7.7488,-7.8851,-8.1092,-8.1871,-8.3145,-8.4916,-8.6555,-8.7693,-8.8354,-9.029,-9.122,-9.1361,-9.2818,-9.3716,-9.4047,-9.4222,-9.2932,-9.0682,-9.1991,-8.9921,-8.4746,-8.8796,-9.3718,-9.9264,-10.0805,-10.2645,-10.4841,-10.4178,-10.2815,-10.0788,-10.0715,-10.0125,-9.8983,-9.891,-9.8173,-9.6515,-9.5034,-9.2129,-8.7369,-7.3923,0.0,0.0,0.0,0.0,0.0,0.0,0.0,0.0,0.0,-4.8631,-3.7524,0.0,-5.5097,0.0,-7.0487,-7.73,-7.6908,-7.7261,0.0,0.0,-7.4724,-7.4913,-8.1086,-8.4003,-8.4987,-8.3738,-8.8813,-9.2903,-9.4077,-9.5682,-9.884,-10.403,-9.799,-9.3383,-9.4724,-9.836,-10.1327,-10.1869,-10.3795,-10.5764,-10.6006,-10.6811,-10.7629,-10.8469,-10.862,-10.862,-10.862,-10.8582,-10.8241,-10.703,-10.6689,-10.6196,-10.5174,-10.4757,-10.4643,-10.3772,-10.3583,-10.3659,-10.4075,-10.4189,-10.4681,-7.0442,-6.8462,-6.0933,-5.9735,-6.2807,-6.3035,-6.5227,-6.8818,-7.0305,-7.0497,-7.0125,-7.3252,-7.1997,-6.7444,-6.6586,0.0,-7.0594,-7.3715,-7.7282,-8.1335,-8.3139,-8.4944,-8.6748,-8.8678,-8.973,-8.9957,-9.0093,-9.0916,-9.2058,-8.8359,-8.6082,-8.5705,-8.5853,-8.4279,-8.1588,-8.8389,-9.3998,-9.7561,-10.3201,-10.624,-10.6461,-10.3625,-10.0567,-9.751,-9.7363,-9.7326,-9.7178,-9.7178,-9.6442,-9.4798,-8.932,-8.3983,-7.876,0.0,0.0,0.0,0.0,0.0,0.0,0.0,0.0,0.0,0.0,0.0,0.0,0.0,0.0,-5.2236,-5.9209,0.0,-6.7972,-6.5672,0.0,0.0,0.0,-6.7717,-7.2754,-7.7526,-8.0443,-8.0291,0.0,0.0,-8.5707,-8.7207,-8.9031,-9.1144,-9.3278,-9.307,-8.8684,-9.3467,-9.6673,-9.3953,-9.3693,-9.437,-9.6677,-9.8693,-10.1104,-10.3727,-10.5212,-10.4909,-10.4833,-10.4984,-10.5136,-10.4871,-10.4984,-10.4795,-10.4757,-10.4227,-10.381,-10.044,-9.9985,-10.0477,-10.1614,-10.1955,-10.2485,-6.125,-5.6292,-5.2041,-5.1776,-5.4163,-5.4255,-5.7169,-6.1963,-6.2638,-6.2633,-6.2313,-6.2595,-6.0279,-5.6042,-5.5714,0.0,0.0,0.0,-6.9698,-7.4381,-7.7136,-7.9935,-8.2728,-8.5422,-8.6794,-8.6941,-8.8878,-9.0105,-9.0732,-8.9834,-8.1232,-6.5352,0.0,0.0,-6.7733,-7.7282,-8.6205,-9.4209,-10.0602,-10.4325,-10.5246,-10.2151,-9.9352,-9.7068,-9.6957,-9.6957,-9.6957,-9.6073,-9.3558,-8.9209,-8.8646,-8.1798,0.0,0.0,0.0,0.0,0.0,0.0,0.0,0.0,0.0,0.0,0.0,-3.5636,-2.7939,0.0,0.0,0.0,-4.6997,-5.0879,-5.6317,-5.9271,0.0,0.0,0.0,0.0,0.0,0.0,0.0,-6.4733,-7.2985,-7.9114,-8.0148,-8.0031,-8.0406,-8.2076,-8.1728,-8.1018,-8.0031,0.0,-8.7452,-8.9075,-8.8505,-8.914,-9.2716,-9.1958,-9.1237,-9.2615,-9.519,-9.7187,-9.7248,-9.8892,-10.0515,-10.1311,-10.0894,-10.0515,-10.1538,-9.8394,-9.5175,-9.4001,-9.3736,-9.3925,-9.4531,-9.5592,-9.7069,-5.0182,0.0,0.0,0.0,0.0,-4.5082,-4.8121,-5.3117,-5.3146,-5.2869,-5.2549,-5.1713,0.0,0.0,0.0,0.0,0.0,0.0,-6.2121,-6.6664,-7.2286,-7.6439,-7.9391,-8.1333,-8.2472,-8.2949,-8.3933,-8.4177,-8.3653,-8.2428,-7.0839,-4.9741,0.0,0.0,0.0,0.0,-7.8135,-8.745,-9.6154,-10.1304,-10.2962,-10.0273,-9.821,-9.6994,-9.611,-9.5594,-9.5557,-9.2821,-8.8535,-8.2761,-8.0286,0.0,0.0,0.0,0.0,0.0,0.0,0.0,0.0,0.0,0.0,0.0,0.0,0.0,0.0,0.0,0.0,0.0,0.0,0.0,-4.7242,-5.2924,-5.4659,0.0,0.0,0.0,0.0,0.0,0.0,0.0,0.0,0.0,-7.2338,-7.3315,-7.4926,0.0,0.0,-7.5811,-7.5074,-7.8625,-8.189,-8.3521,-8.3216,0.0,-8.7519,-8.5891,-8.4381,-8.49,-8.8657,-9.1392,-9.0858,-9.234,-9.3863,-9.4481,-9.4496,-9.4522,-9.5,-9.0765,-8.7381,-8.7467,-8.7239,-8.7039,-8.758,-8.8955,-9.0851,0.0,0.0,0.0,0.0,0.0,0.0,0.0,0.0,-4.22,-4.1791,0.0,-4.2246,0.0,0.0,0.0,0.0,-3.748,-4.8036,0.0,0.0,-6.9103,-7.5522,-7.7273,-7.6205,-7.6554,-7.779,-7.3652,-7.0735,-6.859,-6.1172,0.0,0.0,0.0,0.0,0.0,0.0,-7.1049,-7.6723,-9.016,-9.7989,-9.9573,-9.7952,-9.6994,-9.6847,-9.3973,-9.2279,-9.2021,-8.6371,-8.0835,-7.5761,-6.0228,0.0,0.0,0.0,0.0,0.0,0.0,0.0,0.0,0.0,0.0,0.0,0.0,0.0,0.0,0.0,0.0,0.0,0.0,0.0,0.0,-4.5767,0.0,0.0,0.0,0.0,0.0,0.0,0.0,0.0,0.0,0.0,-6.1159,-6.7417,-7.3628,-7.6858,0.0,0.0,0.0,0.0,-8.2532,-7.6555,-7.6725,-7.775,-7.7983,-8.048,-8.2916,-8.4457,0.0,0.0,-8.7587,-8.6152,-8.4846,-8.3182,-8.5778,-8.7096,-8.5383,-8.1925,-8.0288,-8.17,-8.0632,-8.0556,-8.2043,-8.3029,-8.4473,0.0,0.0,0.0,0.0,0.0,0.0,0.0,0.0,0.0,-3.6913,0.0,-3.5009,0.0,0.0,0.0,0.0,0.0,0.0,0.0,0.0,-5.5707,-6.0936,-6.3718,-6.6389,-6.7413,0.0,-6.5278,-5.8784,0.0,0.0,0.0,0.0,0.0,0.0,0.0,0.0,-6.5415,-7.2753,-8.6578,-9.4637,-9.6184,-9.4673,-9.3826,-9.3789,-9.2684,-8.9723,-8.4553,-7.8395,-7.2412,0.0,0.0,0.0,0.0,0.0,0.0,0.0,0.0,0.0,0.0,0.0,0.0,0.0,0.0,0.0,0.0,0.0,0.0,0.0,0.0,0.0,0.0,0.0,-4.5539,0.0,0.0,0.0,0.0,0.0,0.0,0.0,0.0,0.0,-5.6719,-6.3021,-6.875,-7.2114,-7.4019,-7.5049,-7.4862,0.0,0.0,0.0,0.0,0.0,0.0,0.0,-7.5044,-7.2318,-7.2814,-7.445,-7.7064,-7.9721,-8.1621,-8.2154,0.0,0.0,-7.0296,-6.754,-6.7271,-6.8869,-6.788,-6.7575,-7.0236,-7.1299,-7.2324,0.0,0.0,0.0,0.0,0.0,0.0,0.0,0.0,0.0,-2.9644,-2.8606,0.0,0.0,0.0,0.0,0.0,0.0,0.0,0.0,0.0,0.0,0.0,-5.3112,-5.6394,0.0,0.0,0.0,0.0,0.0,0.0,0.0,0.0,0.0,0.0,0.0,0.0,-6.1195,-6.8627,-8.2995,-9.1321,-9.2942,-9.1911,-9.1358,-9.1321,-9.1358,-8.7373,-7.8871,0.0,0.0,0.0,0.0,0.0,0.0,0.0,0.0,0.0,0.0,0.0,0.0,0.0,0.0,0.0,0.0,0.0,0.0,0.0,0.0,0.0,0.0,0.0,0.0,0.0,-4.1771,0.0,0.0,0.0,0.0,0.0,0.0,0.0,0.0,0.0,0.0,0.0,-6.2414,-6.6847,-6.9849,-7.2389,-7.4547,-7.5344,-7.7245,0.0,0.0,0.0,0.0,0.0,0.0,0.0,0.0,0.0,0.0,0.0,0.0,0.0,0.0,-6.9803,-5.9836,-5.717,-5.6978,-5.8602,0.0,0.0,0.0,0.0,0.0,0.0,0.0,0.0,0.0,0.0,0.0,0.0,0.0,0.0,0.0,-1.9706,0.0,0.0,-1.9781,0.0,0.0,0.0,0.0,0.0,0.0,0.0,0.0,0.0,0.0,0.0,0.0,0.0,0.0,0.0,0.0,0.0,0.0,0.0,0.0,0.0,0.0,-5.8407,-6.3701,-7.9301,-8.8079,-8.9737,-8.9737,-8.9737,-8.9737,-8.959,-8.5085,-7.5614,0.0,0.0,0.0,0.0,0.0,0.0,0.0,0.0,0.0,0.0,0.0,0.0,0.0,0.0,0.0,0.0,0.0,0.0,0.0,0.0,0.0,0.0,0.0,0.0,0.0,0.0,-3.7846,-4.0508,-4.1874,0.0,0.0,0.0,0.0,0.0,0.0,0.0,0.0,0.0,-6.1314,-6.9364,-7.4607,-7.4771,-7.6217,-7.7137,-7.7487,-7.4774,-7.3115,-7.4557,-7.3495,-7.1878,0.0,0.0,0.0,0.0,0.0,0.0,0.0,0.0,0.0,0.0,0.0,0.0,0.0,0.0,0.0,0.0,0.0,0.0,0.0,0.0,0.0,0.0,0.0,0.0,0.0,0.0,0.0,0.0,0.0,0.0,0.0,0.0,0.0,0.0,0.0,0.0,0.0,0.0,0.0,0.0,0.0,0.0,0.0,0.0,0.0,0.0,0.0,0.0,0.0,0.0,0.0,0.0,0.0,0.0,-5.6155,-6.3428,-7.8119,-8.6459,-8.8006,-8.8043,-8.8043,-8.7932,-8.4929,-7.9842,0.0,0.0,0.0,0.0,0.0,0.0,0.0,0.0,0.0,0.0,0.0,0.0,0.0,0.0,0.0,0.0,0.0,0.0,0.0,0.0,0.0,0.0,0.0,0.0,0.0,0.0,0.0,0.0,-4.3844,-4.4793,-4.1912,0.0,0.0,0.0,0.0,0.0,0.0,0.0,0.0,0.0,0.0,-6.9529,-7.4032,-7.4141,-7.4524,-7.69,-7.5403,-7.299,-7.0056,-7.1232,-7.0675,-6.5408,0.0,0.0,0.0,0.0,0.0,0.0,0.0,0.0,0.0,0.0,0.0,0.0,0.0,0.0,0.0,0.0,0.0,0.0,0.0,0.0,0.0,0.0,0.0,0.0,0.0,0.0,0.0,0.0,0.0,0.0,0.0,0.0,0.0,0.0,0.0,0.0,0.0,0.0,0.0,0.0,0.0,0.0,0.0,0.0,0.0,0.0,0.0,0.0,0.0,0.0,0.0,0.0,0.0,-5.4857,-6.2463,-7.6639,-8.4432,-8.5353,-8.5427,-8.5427,-8.5427,-8.1572,-7.5675,0.0,0.0,0.0,0.0,0.0,0.0,0.0,0.0,0.0,0.0,0.0,0.0,0.0,0.0,0.0,0.0,0.0,0.0,0.0,0.0,0.0,0.0,0.0,0.0,0.0,0.0,0.0,0.0,-4.0167,-4.1989,-4.0621,0.0,0.0,0.0,0.0,0.0,0.0,0.0,0.0,0.0,0.0,-6.4579,-6.9205,-6.9514,0.0,0.0,-7.1282,-6.8328,-6.6534,-6.8714,-6.8235,-6.1392,-6.0275,0.0,0.0,0.0,0.0,0.0,0.0,0.0,0.0,0.0,0.0,0.0,0.0,0.0,0.0,0.0,0.0,0.0,0.0,0.0,0.0,0.0,0.0,0.0,0.0,0.0,0.0,0.0,0.0,0.0,0.0,0.0,0.0,0.0,0.0,0.0,0.0,0.0,0.0,0.0,0.0,0.0,0.0,0.0,0.0,0.0,0.0,0.0,0.0,0.0,0.0,0.0,0.0,0.0,-6.121,-7.5054,-8.2333,-8.2406,-8.2406,-8.2406,-8.237,-7.9206,-7.2403,0.0,0.0,0.0,0.0,0.0,0.0,0.0,0.0,0.0,0.0,0.0,0.0,0.0,0.0,0.0,0.0,0.0,0.0,0.0,0.0,0.0,0.0,0.0,0.0,0.0,0.0,0.0,0.0,0.0,0.0,0.0,0.0,0.0,0.0,0.0,0.0,0.0,0.0,0.0,0.0,0.0,-6.0223,-6.2116,-6.3596,-6.5721,0.0,-6.3998,-6.0833,-6.375,-6.5825,-6.4784,-5.8051,0.0,0.0,0.0,0.0,0.0,0.0,0.0,0.0,0.0,0.0,0.0,0.0,0.0,0.0,0.0,0.0,0.0,0.0,0.0,0.0,0.0,0.0,0.0,0.0,0.0,0.0,0.0,0.0,0.0,0.0,0.0,0.0,0.0,0.0,0.0,0.0,0.0,0.0,0.0,0.0,0.0,0.0,0.0,0.0,0.0,0.0,0.0,0.0,0.0,0.0,0.0,0.0,0.0,0.0,-6.1061,-7.3983,-8.1228,-8.237,-8.2406,-8.2406,-8.2296,-7.6164,0.0,0.0,0.0,0.0,0.0,0.0,0.0,0.0,0.0,0.0,0.0,0.0,0.0,0.0,0.0,0.0,0.0,0.0,0.0,0.0,0.0,0.0,0.0,0.0,0.0,0.0,0.0,-2.3815,0.0,0.0,0.0,0.0,0.0,0.0,0.0,0.0,0.0,0.0,0.0,0.0,0.0,0.0,-5.9278,-6.3385,-6.322,-6.3436,0.0,0.0,-5.9369,-5.8831,-6.1433,-6.1572,0.0,0.0,0.0,0.0,0.0,0.0,0.0,0.0,0.0,0.0,0.0,0.0,0.0,0.0,0.0,0.0,0.0,0.0,0.0,0.0,0.0,0.0,0.0,0.0,0.0,0.0,0.0,0.0,0.0,0.0,0.0,0.0,0.0,0.0,0.0,0.0,0.0,0.0,0.0,0.0,0.0,0.0,0.0,0.0,0.0,0.0,0.0,0.0,0.0,0.0,0.0,0.0,0.0,0.0,-4.9741,-5.9935,-6.9877,-7.6709,-8.0159,-8.03,-8.0343,-8.0343,-7.2993,-6.6601,0.0,0.0,0.0,0.0,0.0,0.0,0.0,0.0,0.0,0.0,0.0,0.0,0.0,0.0,0.0,0.0,0.0,0.0,0.0,0.0,0.0,0.0,0.0,0.0,0.0,0.0,0.0,0.0,0.0,0.0,0.0,0.0,0.0,0.0,0.0,0.0,0.0,0.0,0.0,0.0,0.0,0.0,-6.0666,-5.9168,0.0,0.0,0.0,-5.6989,-5.5959,0.0,0.0,0.0,0.0,0.0,0.0,0.0,0.0,0.0,0.0,0.0,0.0,0.0,0.0,0.0,0.0,0.0,0.0,0.0,0.0,0.0,0.0,0.0,0.0,0.0,0.0,0.0,0.0,0.0,0.0,0.0,0.0,0.0,0.0,0.0,0.0,0.0,0.0,0.0,0.0,0.0,0.0,0.0,0.0,0.0,0.0,0.0,0.0,0.0,0.0,0.0,0.0,0.0,0.0,0.0,0.0,0.0,-5.784,-6.4995,-7.1396,-7.6954,-7.7428,-7.7538,-7.747,-7.0586,-6.5043,0.0,0.0,0.0,0.0,0.0,0.0,0.0,0.0,0.0,0.0,0.0,0.0,0.0,0.0,0.0,0.0,0.0,0.0,0.0,0.0,0.0,0.0,0.0,0.0,0.0,0.0,0.0,0.0,0.0,0.0,0.0,0.0,0.0,0.0,0.0,0.0,0.0,0.0,0.0,0.0,0.0,-5.2559,-5.6435,-5.3886,-5.2071,0.0,0.0,-5.3715,-5.3855,-5.6267,0.0,0.0,0.0,0.0,0.0,0.0,0.0,0.0,0.0,0.0,0.0,0.0,0.0,0.0,0.0,0.0,0.0,0.0,0.0,0.0,0.0,0.0,0.0,0.0,0.0,0.0,0.0,0.0,0.0,0.0,0.0,0.0,0.0,0.0,0.0,0.0,0.0,0.0,0.0,0.0,0.0,0.0,0.0,0.0,0.0,0.0,0.0,0.0,0.0,0.0,0.0,0.0,0.0,0.0,0.0,0.0,-5.4784,-6.5018,-7.2024,-7.5522,-7.6918,-7.7538,-7.747,-7.2575,-6.7137,0.0,0.0,0.0,0.0,0.0,0.0,0.0,0.0,0.0,0.0,0.0,0.0,0.0,0.0,0.0,0.0,0.0,0.0,0.0,0.0,0.0,0.0,0.0,0.0,0.0,0.0,0.0,0.0,0.0,0.0,0.0,0.0,0.0,0.0,0.0,0.0,0.0,0.0,0.0,0.0,0.0,-5.0085,-5.6196,-5.2972,0.0,0.0,0.0,0.0,-5.0161,-4.9822,0.0,0.0,0.0,0.0,0.0,0.0,0.0,0.0,0.0,0.0,0.0,0.0,0.0,0.0,0.0,0.0,0.0,0.0,0.0,0.0,0.0,0.0,0.0,0.0,0.0,0.0,0.0,0.0,0.0,0.0,0.0,0.0,0.0,0.0,0.0,0.0,0.0,0.0,0.0,0.0,0.0,0.0,0.0,0.0,0.0,0.0,0.0,0.0,0.0,0.0,0.0,0.0,0.0,0.0,0.0,0.0,-5.5618,-6.1998,-6.7904,-7.3705,-7.4777,-7.5223,-7.5112,-7.0837,-6.5821,0.0,0.0,0.0,0.0,0.0,0.0,0.0,0.0,0.0,0.0,0.0,0.0,0.0,0.0,0.0,0.0,0.0,0.0,0.0,0.0,0.0,0.0,0.0,0.0,0.0,0.0,0.0,0.0,0.0,0.0,0.0,0.0,0.0,0.0,0.0,0.0,0.0,0.0,0.0,0.0,-4.419,-4.6604,-5.3403,0.0,0.0,0.0,0.0,0.0,0.0,-4.6958,-4.4773,0.0,0.0,0.0,0.0,0.0,0.0,0.0,0.0,0.0,0.0,0.0,0.0,0.0,0.0,0.0,0.0,0.0,0.0,0.0,0.0,0.0,0.0,0.0,0.0,0.0,0.0,0.0,0.0,0.0,0.0,0.0,0.0,0.0,0.0,0.0,0.0,0.0,0.0,0.0,0.0,0.0,0.0,0.0,0.0,0.0,0.0,0.0,0.0,0.0,0.0,0.0,0.0,0.0,0.0,0.0,-5.5939,-5.7926,-6.2916,-7.1087,-7.2156,-7.2601,-7.2531,-6.8251,-6.3375,-5.8071,0.0,0.0,0.0,0.0,0.0,0.0,0.0,0.0,0.0,0.0,0.0,0.0,0.0,0.0,0.0,0.0,0.0,0.0,0.0,0.0,0.0,0.0,0.0,0.0,0.0,0.0,0.0,0.0,0.0,0.0,0.0,0.0,0.0,0.0,0.0,0.0,0.0,0.0,0.0,-4.0868,-4.2769,0.0,0.0,0.0,0.0,0.0,0.0,0.0,0.0,-4.2997,0.0,0.0,0.0,0.0,0.0,0.0,0.0,0.0,0.0,0.0,0.0,0.0,0.0,0.0,0.0,0.0,0.0,0.0,0.0,0.0,0.0,0.0,0.0,0.0,0.0,0.0,0.0,0.0,0.0,0.0,0.0,0.0,0.0,0.0,0.0,0.0,0.0,0.0,0.0,0.0,0.0,0.0,0.0,0.0,0.0,0.0,0.0,0.0,0.0,0.0,0.0,0.0,0.0,0.0,0.0,0.0,-5.4472,-6.1151,-6.645,-7.0231,-7.2305,-7.2438,-6.8002,-6.2078,-5.4838,0.0,0.0,0.0,0.0,0.0,0.0,0.0,0.0,0.0,0.0,0.0,0.0,0.0,0.0,0.0,0.0,0.0,0.0,0.0,0.0,0.0,0.0,0.0,0.0,0.0,0.0,0.0,0.0,0.0,0.0,0.0,0.0,0.0,0.0,0.0,0.0,0.0,0.0,-2.9355,-3.3885,0.0,0.0,0.0,0.0,0.0,0.0,0.0,0.0,-4.1054,0.0,0.0,0.0,0.0,0.0,0.0,0.0,0.0,0.0,0.0,0.0,0.0,0.0,0.0,0.0,0.0,0.0,0.0,0.0,0.0,0.0,0.0,0.0,0.0,0.0,0.0,0.0,0.0,0.0,0.0,0.0,0.0,0.0,0.0,0.0,0.0,0.0,0.0,0.0,0.0,0.0,0.0,0.0,0.0,0.0,0.0,0.0,0.0,0.0,0.0,0.0,0.0,0.0,0.0,0.0,0.0,0.0,0.0,-5.9613,-6.4087,-6.7889,-6.9904,-6.9803,-6.3743,-5.7885,0.0,0.0,0.0,0.0,0.0,0.0,0.0,0.0,0.0,0.0,0.0,0.0,0.0,0.0,0.0,0.0,0.0,0.0,0.0,0.0,0.0,0.0,0.0,0.0,0.0,0.0,0.0,0.0,0.0,0.0,0.0,0.0,0.0,0.0,0.0,0.0,0.0,0.0,0.0,0.0,0.0,0.0,0.0,0.0,0.0,0.0,0.0,0.0,0.0,0.0,0.0,0.0,0.0,0.0,0.0,0.0,0.0,0.0,0.0,0.0,0.0,0.0,0.0,0.0,0.0,0.0,0.0,0.0,0.0,0.0,0.0,0.0,0.0,0.0,0.0,0.0,0.0,0.0,0.0,0.0,0.0,0.0,0.0,0.0,0.0,0.0,0.0,0.0,0.0,0.0,0.0,0.0,0.0,0.0,0.0,0.0,0.0,0.0,0.0,0.0,0.0,0.0,0.0,0.0,0.0,0.0,0.0,0.0,-5.7757,-6.1909,-6.572,-6.763,-6.7706,-6.003,-5.4181,0.0,0.0,0.0,0.0,0.0,0.0,0.0,0.0,0.0,0.0,0.0,0.0,0.0,0.0,0.0,0.0,0.0,0.0,0.0,0.0,0.0,0.0,0.0,0.0,0.0,0.0,0.0,0.0,0.0,0.0,0.0,0.0,0.0,0.0,0.0,0.0,0.0,0.0,0.0,0.0,0.0,0.0,0.0,0.0,0.0,0.0,0.0,0.0,-3.7229,0.0,0.0,0.0,0.0,0.0,0.0,0.0,0.0,0.0,0.0,0.0,0.0,0.0,0.0,0.0,0.0,0.0,0.0,0.0,0.0,0.0,0.0,0.0,0.0,0.0,0.0,0.0,0.0,0.0,0.0,0.0,0.0,0.0,0.0,0.0,0.0,0.0,0.0,0.0,0.0,0.0,0.0,0.0,0.0,0.0,0.0,0.0,0.0,0.0,0.0,0.0,0.0,0.0,0.0,0.0,0.0,0.0,0.0,0.0,-5.5386,-5.8786,-6.4099,-6.706,-6.7051,-6.0077,-5.3449,0.0,0.0,0.0,0.0,0.0,0.0,0.0,0.0,0.0,0.0,0.0,0.0,0.0,0.0,0.0,0.0,0.0,0.0,0.0,0.0,0.0,0.0,0.0,0.0,0.0,0.0,0.0,0.0,0.0,0.0,0.0,0.0,0.0,0.0,0.0,0.0,0.0,0.0,0.0,0.0,0.0,0.0,0.0,0.0,0.0,0.0,0.0,0.0,0.0,0.0,0.0,0.0,0.0,0.0,0.0,0.0,0.0,0.0,0.0,0.0,0.0,0.0,0.0,0.0,0.0,0.0,0.0,0.0,0.0,0.0,0.0,0.0,0.0,0.0,0.0,0.0,0.0,0.0,0.0,0.0,0.0,0.0,0.0,0.0,0.0,0.0,0.0,0.0,0.0,0.0,0.0,0.0,0.0,0.0,0.0,0.0,0.0,0.0,0.0,0.0,0.0,0.0,0.0,0.0,0.0,0.0,0.0,0.0,-5.2001,-5.6896,-6.1958,-6.3877,-6.2351,-5.4747,-4.9038,0.0,0.0,0.0,0.0,0.0,0.0,0.0,0.0,0.0,0.0,0.0,0.0,0.0,0.0,0.0,0.0,0.0,0.0,0.0,0.0,0.0,0.0,0.0,0.0,0.0,0.0,0.0,0.0,0.0,0.0,0.0,0.0,0.0,0.0,0.0,0.0,0.0,0.0,0.0,0.0,0.0,0.0,0.0,0.0,0.0,0.0,0.0,0.0,0.0,0.0,0.0,0.0,0.0,0.0,0.0,0.0,0.0,0.0,0.0,0.0,0.0,0.0,0.0,0.0,0.0,0.0,0.0,0.0,0.0,0.0,0.0,0.0,0.0,0.0,0.0,0.0,0.0,0.0,0.0,0.0,0.0,0.0,0.0,0.0,0.0,0.0,0.0,0.0,0.0,0.0,0.0,0.0,0.0,0.0,0.0,0.0,0.0,0.0,0.0,0.0,0.0,0.0,0.0,0.0,0.0,0.0,0.0,0.0,0.0,-5.4106,-5.8423,-5.9005,-5.5546,-4.9352,-4.4364,0.0,0.0,0.0,0.0,0.0,0.0,0.0,0.0,0.0,0.0,0.0,0.0,0.0,0.0,0.0,0.0,0.0,0.0,0.0,0.0,0.0,0.0,0.0,0.0,0.0,0.0,0.0,0.0,0.0,0.0,0.0,0.0,0.0,0.0,0.0,0.0,0.0,0.0,0.0,0.0,0.0,0.0,0.0,0.0,0.0,0.0,0.0,0.0,0.0,0.0,0.0,0.0,0.0,0.0,0.0,0.0,0.0,0.0,0.0,0.0,0.0,0.0,0.0,0.0,0.0,0.0,0.0,0.0,0.0,0.0,0.0,0.0,0.0,0.0,0.0,0.0,0.0,0.0,0.0,0.0,0.0,0.0,0.0,0.0,0.0,0.0,0.0,0.0,0.0,0.0,0.0,0.0,0.0,0.0,0.0,0.0,0.0,0.0,0.0,0.0,0.0,0.0,0.0,0.0,0.0,0.0,0.0,0.0,0.0,-4.9518,-5.2817,-5.2181,-4.7503,-4.5302,-4.0032,0.0,0.0,0.0,0.0,0.0,0.0,0.0,0.0,0.0,0.0,0.0,0.0,0.0,0.0,0.0,0.0,0.0,0.0,0.0,0.0,0.0,0.0,0.0,0.0,0.0,0.0,0.0,0.0,0.0,0.0,0.0,0.0,0.0,0.0,0.0,0.0,0.0,0.0,0.0,0.0,0.0,0.0,0.0,0.0,0.0,0.0,0.0,0.0,0.0,0.0,0.0,0.0,0.0,0.0,0.0,0.0,0.0,0.0,0.0,0.0,0.0,0.0,0.0,0.0,0.0,0.0,0.0,0.0,0.0,0.0,0.0,0.0,0.0,0.0,0.0,0.0,0.0,0.0,0.0,0.0,0.0,0.0,0.0,0.0,0.0,0.0,0.0,0.0,0.0,0.0,0.0,0.0,0.0,0.0,0.0,0.0,0.0,0.0,0.0,0.0,0.0,0.0,0.0,0.0,0.0,0.0,0.0,0.0,0.0,-3.7416,-4.0364,-4.2697,-4.4035,-3.83,-3.5042,-3.4557,0.0,0.0,0.0,0.0,0.0,0.0,0.0,0.0,0.0,0.0,0.0,0.0,0.0,0.0,0.0,0.0,0.0,0.0,0.0,0.0,0.0,0.0,0.0,0.0,0.0,0.0,0.0,0.0,0.0,0.0,0.0,0.0,0.0,0.0,0.0,0.0,0.0,0.0,0.0,0.0,0.0,0.0,0.0,0.0,0.0,0.0,0.0,0.0,0.0,0.0,0.0,0.0,0.0,0.0,0.0,0.0,0.0,0.0,0.0,0.0,0.0,0.0,0.0,0.0,0.0,0.0,0.0,0.0,0.0,0.0,0.0,0.0,0.0,0.0,0.0,0.0,0.0,0.0,0.0,0.0,0.0,0.0,0.0,0.0,0.0,0.0,0.0,0.0,0.0,0.0,0.0,0.0,0.0,0.0,0.0,0.0,0.0,0.0,0.0,0.0,0.0,0.0,0.0,0.0,0.0,0.0,0.0,0.0,-3.1627,-3.4781,-3.7481,-3.9154,-3.425,-3.1703,0.0,0.0,0.0,0.0,0.0,0.0,0.0,0.0,0.0,0.0,0.0,0.0,0.0,0.0,0.0,0.0,0.0,0.0,0.0,0.0,0.0,0.0,0.0,0.0,0.0,0.0,0.0,0.0,0.0,0.0,0.0,0.0,0.0,0.0,0.0,0.0,0.0,0.0,0.0,0.0,0.0,0.0,0.0,0.0,0.0,0.0,0.0,0.0,0.0,0.0,0.0,0.0,0.0,0.0,0.0,0.0,0.0,0.0,0.0,0.0,0.0,0.0,0.0,0.0,0.0,0.0,0.0,0.0,0.0,0.0,0.0,0.0,0.0,0.0,0.0,0.0,0.0,0.0,0.0,0.0,0.0,0.0,0.0,0.0,0.0,0.0,0.0,0.0,0.0,0.0,0.0,0.0,0.0,0.0,0.0,0.0,0.0,0.0,0.0,0.0,0.0,0.0,0.0,0.0,0.0,0.0,0.0,0.0,-2.824,-3.4493,-3.7682,-3.7197,-3.2929,-3.4012,-3.0252,0.0,0.0,0.0,0.0,0.0,0.0,0.0,0.0,0.0,0.0,0.0,0.0,0.0,0.0,0.0,0.0,0.0,0.0,0.0,0.0,0.0,0.0,0.0,0.0,0.0,0.0,0.0,0.0,0.0,0.0,0.0,0.0,0.0,0.0,0.0,0.0,0.0,0.0,0.0,0.0,0.0,0.0,0.0,0.0,0.0,0.0,0.0,0.0,0.0,0.0,0.0,0.0,0.0,0.0,0.0,0.0,0.0,0.0,0.0,0.0,0.0,0.0,0.0,0.0,0.0,0.0,0.0,0.0,0.0,0.0,0.0,0.0,0.0,0.0,0.0,0.0,0.0,0.0,0.0,0.0,0.0,0.0,0.0,0.0,0.0,0.0,0.0,0.0,0.0,0.0,0.0,0.0,0.0,0.0,0.0,0.0,0.0,0.0,0.0,0.0,0.0,0.0,0.0,0.0,0.0,0.0,0.0,0.0,0.0,-2.4768,0.0,-3.2637,0.0,-3.1957,-2.8721,0.0,0.0,0.0,0.0,0.0,0.0,0.0,0.0,0.0,0.0,0.0,0.0,0.0,0.0,0.0,0.0,0.0,0.0,0.0,0.0,0.0,0.0,0.0,0.0,0.0,0.0,0.0,0.0,0.0,0.0,0.0,0.0,0.0,0.0,0.0,0.0,0.0,0.0,0.0,0.0,0.0,0.0,0.0,0.0,0.0,0.0,0.0,0.0,0.0,0.0,0.0,0.0,0.0,0.0,0.0,0.0,0.0,0.0,0.0,0.0,0.0,0.0,0.0,0.0,0.0,0.0,0.0,0.0,0.0,0.0,0.0,0.0,0.0,0.0,0.0,0.0,0.0,0.0,0.0,0.0,0.0,0.0,0.0,0.0,0.0,0.0,0.0,0.0,0.0,0.0,0.0,0.0,0.0,0.0,0.0,0.0,0.0,0.0,0.0,0.0,0.0,0.0,0.0,0.0,0.0,0.0,0.0,0.0,0.0,-2.3286,-2.4189,-2.8825,-3.6953,-3.1665,-2.9188,0.0,0.0,0.0,0.0,0.0,0.0,0.0,0.0,0.0,0.0,0.0,0.0,0.0,0.0,0.0,0.0,0.0,0.0,0.0,0.0,0.0,0.0,0.0,0.0,0.0,0.0,0.0,0.0,0.0,0.0,0.0,0.0,0.0,0.0,0.0,0.0,0.0,0.0,0.0,0.0,0.0,0.0,0.0,0.0,0.0,0.0,0.0,0.0,0.0,0.0,0.0,0.0,0.0,0.0,0.0,0.0,0.0,0.0,0.0,0.0,0.0,0.0,0.0,0.0,0.0,0.0,0.0,0.0,0.0,0.0,0.0,0.0,0.0,0.0,0.0,0.0,0.0,0.0,0.0,0.0,0.0,0.0,0.0,0.0,0.0,0.0,0.0,0.0,0.0,0.0,0.0,0.0,0.0,0.0,0.0,0.0,0.0,0.0,0.0,0.0,0.0,0.0,0.0,0.0,0.0,0.0,0.0,0.0,0.0,0.0,-2.622,-2.6338,-2.9594,-3.2493,-3.1195,0.0,0.0,0.0,0.0,0.0,0.0,0.0,0.0,0.0,0.0,0.0,0.0,0.0,0.0,0.0,0.0,0.0,0.0,0.0,0.0,0.0,0.0,0.0,0.0,0.0,0.0,0.0,0.0,0.0,0.0,0.0,0.0,0.0,0.0,0.0,0.0,0.0,0.0,0.0,0.0,0.0,0.0,0.0,0.0,0.0,0.0,0.0,0.0,0.0,0.0,0.0,0.0,0.0,0.0,0.0,0.0,0.0,0.0,0.0,0.0,0.0,0.0,0.0,0.0,0.0,0.0,0.0,0.0,0.0,0.0,0.0,0.0,0.0,0.0,0.0,0.0,0.0,0.0,0.0,0.0,0.0,0.0,0.0,0.0,0.0,0.0,0.0,0.0,0.0,0.0,0.0,0.0,0.0,0.0,0.0,0.0,0.0,0.0,0.0,0.0,0.0,0.0,0.0,0.0,0.0,0.0,0.0,0.0,0.0,0.0,-2.487,0.0,-2.6019,-2.6845,-2.6936,-2.63,0.0,0.0,0.0,0.0,0.0,0.0,0.0,0.0,0.0,0.0,0.0,0.0,0.0,0.0,0.0,0.0,0.0,0.0,0.0,0.0,0.0,0.0,0.0,0.0,0.0,0.0,0.0,0.0,0.0,0.0,0.0,0.0,0.0,0.0,0.0,0.0,0.0,0.0,0.0,0.0,0.0,0.0,0.0,0.0,0.0,0.0,0.0,0.0,0.0,0.0,0.0,0.0,0.0,0.0,0.0,0.0,0.0,0.0,0.0,0.0,0.0,0.0,0.0,0.0,0.0,0.0,0.0,0.0,0.0,0.0,0.0,0.0,0.0,0.0,0.0,0.0,0.0,0.0,0.0,0.0,0.0,0.0,0.0,0.0,0.0,0.0,0.0,0.0,0.0,0.0,0.0,0.0,0.0,0.0,0.0,0.0,0.0,0.0,0.0,0.0,0.0,0.0,0.0,0.0,0.0,0.0,0.0,0.0,0.0,0.0,0.0,-2.4414,-2.4424,-2.4832,0.0,0.0,0.0,0.0,0.0,0.0,0.0,0.0,0.0,0.0,0.0,0.0,0.0,0.0,0.0,0.0,0.0,0.0,0.0,0.0,0.0,0.0,0.0,0.0,0.0,0.0,0.0,0.0,0.0,0.0,0.0,0.0,0.0,0.0,0.0,0.0,0.0,0.0,0.0,0.0,0.0,0.0,0.0,0.0,0.0,0.0,0.0,0.0,0.0,0.0,0.0,0.0,0.0,0.0,0.0,0.0,0.0,0.0,0.0,0.0,0.0,0.0,0.0,0.0,0.0,0.0,0.0,0.0,0.0,0.0,0.0,0.0,0.0,0.0,0.0,0.0,0.0,0.0,0.0,0.0,0.0,0.0,0.0,0.0,0.0,0.0,0.0,0.0,0.0,0.0,0.0,0.0,0.0,0.0,0.0,0.0,0.0,0.0,0.0,0.0,0.0,0.0,0.0,0.0,0.0,0.0,0.0,0.0,0.0,0.0,0.0,-2.1001,-2.3749,-2.44,0.0,-2.4021,0.0,0.0,0.0,0.0,0.0,0.0,0.0,0.0,0.0,0.0,0.0,0.0,0.0,0.0,0.0,0.0,0.0,0.0,0.0,0.0,0.0,0.0,0.0,0.0,0.0,0.0,0.0,0.0,0.0,0.0,0.0,0.0,0.0,0.0,0.0,0.0,0.0,0.0,0.0,0.0,0.0,0.0,0.0,0.0,0.0,0.0,0.0,0.0,0.0,0.0,0.0,0.0,0.0,0.0,0.0,0.0,0.0,0.0,0.0,0.0,0.0,0.0,0.0,0.0,0.0,0.0,0.0,0.0,0.0,0.0,0.0,0.0,0.0,0.0,0.0,0.0,0.0,0.0,0.0,0.0,0.0,0.0,0.0,0.0,0.0,0.0,0.0,0.0,0.0,0.0,0.0,0.0,0.0,0.0,0.0,0.0,0.0,0.0,0.0,0.0,0.0,0.0,0.0,0.0,0.0,0.0,0.0,0.0,0.0,0.0,0.0,0.0,-2.5077,-2.5368,-2.0708,0.0,0.0,0.0,0.0,0.0,0.0,0.0,0.0,0.0,0.0,0.0,0.0,0.0,0.0,0.0,0.0,0.0,0.0,0.0,0.0,0.0,0.0,0.0,0.0,0.0,0.0,0.0,0.0,0.0,0.0,0.0,0.0,0.0,0.0,0.0,0.0,0.0,0.0,0.0,0.0,0.0,0.0,0.0,0.0,0.0,0.0,0.0,0.0,0.0,0.0,0.0,0.0,0.0,0.0,0.0,0.0,0.0,0.0,0.0,0.0,0.0,0.0,0.0,0.0,0.0,0.0,0.0,0.0,0.0,0.0,0.0,0.0,0.0,0.0,0.0,0.0,0.0,0.0,0.0,0.0,0.0,0.0,0.0,0.0,0.0,0.0,0.0,0.0,0.0,0.0,0.0,0.0,0.0,0.0,0.0,0.0,0.0,0.0,0.0,0.0,0.0,0.0,0.0,0.0,0.0,0.0,0.0,0.0,0.0,0.0,-2.2247,-1.9253,-2.3756,-2.3992,-1.9339,0.0,0.0,0.0,0.0,0.0,0.0,0.0,0.0,0.0,0.0,0.0,0.0,0.0,0.0,0.0,0.0,0.0,0.0,0.0,0.0,0.0,0.0,0.0,0.0,0.0,0.0,0.0,0.0,0.0,0.0,0.0,0.0,0.0,0.0,0.0,0.0,0.0,0.0,0.0,0.0,0.0,0.0,0.0,0.0,0.0,0.0,0.0,0.0,0.0,0.0,0.0,0.0,0.0,0.0,0.0,0.0,0.0,0.0,0.0,0.0,0.0,0.0,0.0,0.0,0.0,0.0,0.0,0.0,0.0,0.0,0.0,0.0,0.0,0.0,0.0,0.0,0.0,0.0,0.0,0.0,0.0,0.0,0.0,0.0,0.0,0.0,0.0,0.0,0.0,0.0,0.0,0.0,0.0,0.0,0.0,0.0,0.0,0.0,0.0,0.0,0.0,0.0,0.0,0.0,0.0,0.0,0.0,0.0,0.0,0.0,0.0,0.0,0.0,0.0,-1.9722,0.0,0.0,0.0,0.0,0.0,0.0,0.0,0.0,0.0,0.0,0.0,0.0,0.0,0.0,0.0,0.0,0.0,0.0,0.0,0.0,0.0,0.0,0.0,0.0,0.0,0.0,0.0,0.0,0.0,0.0,0.0,0.0,0.0,0.0,0.0,0.0,0.0,0.0,0.0,0.0,0.0,0.0,0.0,0.0,0.0,0.0,0.0,0.0,0.0,0.0,0.0,0.0,0.0,0.0,0.0,0.0,0.0,0.0,0.0,0.0,0.0,0.0,0.0,0.0,0.0,0.0,0.0,0.0,0.0,0.0,0.0,0.0,0.0,0.0,0.0,0.0,0.0,0.0,0.0,0.0,0.0,0.0,0.0,0.0,0.0,0.0,0.0,0.0,0.0,0.0,0.0,0.0,0.0,0.0,0.0,0.0,0.0,0.0,0.0,0.0,0.0,0.0,0.0,0.0,0.0,0.0,0.0,0.0,0.0,0.0,0.0,0.0,0.0,0.0,0.0,0.0,0.0,0.0,0.0,0.0,0.0,0.0,0.0,0.0,0.0,0.0,0.0,0.0,0.0,0.0,0.0,0.0,0.0,0.0,0.0,0.0,0.0,0.0,0.0,0.0,0.0,0.0,0.0,0.0,0.0,0.0,0.0,0.0,0.0,0.0,0.0,0.0,0.0,0.0,0.0,0.0,0.0,0.0,0.0,0.0,0.0,0.0,0.0,0.0,0.0,0.0,0.0,0.0,0.0,0.0,0.0,0.0,0.0,0.0,0.0,0.0,0.0,0.0,0.0,0.0,0.0,0.0,0.0,0.0,0.0,0.0,0.0,0.0,0.0,0.0,0.0,0.0,0.0,0.0,0.0,0.0,0.0,0.0,0.0,0.0,0.0,0.0,0.0,0.0,0.0,0.0,0.0,0.0,0.0,0.0,0.0,0.0,0.0,0.0,0.0,0.0,0.0,0.0,0.0,0.0,0.0,0.0,0.0,0.0,0.0,0.0,0.0,0.0,0.0,0.0,0.0,0.0,0.0,0.0,0.0,0.0,0.0,0.0,0.0,0.0,0.0,0.0,0.0,0.0,0.0,0.0,0.0,0.0,0.0,0.0,0.0,0.0,0.0,0.0,0.0,0.0,0.0,0.0,0.0,0.0,0.0,0.0,0.0,0.0,0.0,0.0,0.0,0.0,0.0,0.0,0.0,0.0,0.0,0.0,0.0,0.0,0.0,0.0,0.0,0.0,0.0,0.0,0.0,0.0,0.0,0.0,0.0,0.0,0.0,0.0,0.0,0.0,0.0,0.0,0.0,0.0,0.0,0.0,0.0,0.0,0.0,0.0,0.0,0.0,0.0,0.0,0.0,0.0,0.0,0.0,0.0,0.0,0.0,0.0,0.0,0.0,0.0,0.0,0.0,0.0,0.0,0.0,0.0,0.0,0.0,0.0,0.0,0.0,0.0,0.0,0.0,0.0,0.0,0.0,0.0,0.0,0.0,0.0,0.0,0.0,0.0,0.0,0.0,0.0,0.0,0.0,0.0,0.0,0.0,0.0,0.0,0.0,0.0,0.0,0.0,0.0,0.0,0.0,0.0,0.0,0.0,0.0,0.0,0.0,0.0,0.0,0.0,0.0,0.0,0.0,0.0,0.0,0.0,0.0,0.0,0.0,0.0,0.0,0.0,0.0,0.0,0.0,0.0,0.0,0.0,0.0,0.0,0.0,0.0,0.0,0.0,0.0,0.0,0.0,0.0,0.0,0.0,0.0,0.0,0.0,0.0,0.0,0.0,0.0,0.0,0.0,0.0,0.0,0.0,0.0,0.0,0.0,0.0,0.0,0.0,0.0,0.0,0.0,0.0,0.0,0.0,0.0,0.0,0.0,0.0,0.0,0.0,0.0,0.0,0.0,0.0,0.0,0.0,0.0,0.0,0.0,0.0,0.0,0.0,0.0,0.0,0.0,0.0,0.0,0.0,0.0,0.0,0.0,0.0,0.0,0.0,0.0,0.0,0.0,0.0,0.0,0.0,0.0,0.0,0.0,0.0,0.0,0.0,0.0,0.0,0.0,0.0,0.0,0.0,0.0,0.0,0.0,0.0,0.0,0.0,0.0,0.0,0.0,0.0,0.0,0.0,0.0,0.0,0.0,0.0,0.0,0.0,0.0,0.0,0.0,0.0,0.0,0.0,0.0,0.0,0.0,0.0,0.0,0.0,0.0,0.0,0.0,0.0,0.0,0.0,0.0,0.0,0.0,0.0,0.0,0.0,0.0,0.0,0.0,0.0,0.0,0.0,0.0,0.0,0.0,0.0,0.0,0.0,0.0,0.0,0.0,0.0,0.0,0.0,0.0,0.0,0.0,0.0,0.0,0.0,0.0,0.0,0.0,0.0,0.0,0.0,0.0,0.0,0.0,0.0,0.0,0.0,0.0,0.0,0.0,0.0,0.0,0.0,0.0,0.0,0.0,0.0,0.0,0.0,0.0,0.0,0.0,0.0,0.0,0.0,0.0,0.0,0.0,0.0,0.0,0.0,0.0,0.0,0.0,0.0,0.0,0.0,0.0,0.0,0.0,0.0,0.0,0.0,0.0,0.0,0.0,0.0,0.0,0.0,0.0,0.0,0.0,0.0,0.0,0.0,0.0,0.0,0.0,0.0,0.0,0.0,0.0,0.0,0.0,0.0,0.0,0.0,0.0,0.0,0.0,0.0,0.0,0.0,0.0,0.0,0.0,0.0,0.0,0.0,0.0,0.0,0.0,0.0,0.0,0.0,0.0,0.0,0.0,0.0,0.0,0.0,0.0,0.0,0.0,0.0,0.0,0.0,0.0,0.0,0.0,0.0,0.0,0.0,0.0,0.0,0.0,0.0,0.0,0.0,0.0,0.0,0.0,0.0,0.0,0.0,0.0,0.0,0.0,0.0,0.0,0.0,0.0,0.0,0.0,0.0,0.0,0.0,0.0,0.0,0.0,0.0,0.0,0.0,0.0,0.0,0.0,0.0,0.0,0.0,0.0,0.0,0.0,0.0,0.0,0.0,0.0,0.0,0.0,0.0,0.0,0.0,0.0,0.0,0.0,0.0,0.0,0.0,0.0,0.0,0.0,0.0,0.0,0.0,0.0,0.0,0.0,0.0,0.0,0.0,0.0,0.0,0.0,0.0,0.0,0.0,0.0,0.0,0.0,0.0,0.0,0.0,0.0,0.0,0.0,0.0,0.0,0.0,0.0,0.0,0.0,0.0,0.0,0.0,0.0,0.0,0.0,0.0,0.0,0.0,0.0,0.0,0.0,0.0,0.0,0.0,0.0,0.0,0.0,0.0,0.0,0.0,0.0,0.0,0.0,0.0,0.0,0.0,0.0,0.0,0.0,0.0,0.0,0.0,0.0,0.0,0.0,0.0,0.0,0.0,0.0,0.0,0.0,0.0,0.0,0.0,0.0,0.0,0.0,0.0,0.0,0.0,0.0,0.0,0.0,0.0,0.0,0.0,0.0,0.0,0.0,0.0,0.0,0.0,0.0,0.0,0.0,0.0,0.0,0.0,0.0,0.0,0.0,0.0,0.0,0.0,0.0,0.0,0.0,0.0,0.0,0.0,0.0,0.0,0.0,0.0,0.0,0.0,0.0,0.0,0.0,0.0,0.0,0.0,0.0,0.0,0.0,0.0,0.0,0.0,0.0,0.0,0.0,0.0,0.0,0.0,0.0,0.0,0.0,0.0,0.0,0.0,0.0,0.0,0.0,0.0,0.0,0.0,0.0,0.0,0.0,0.0,0.0,0.0,0.0,0.0,0.0,0.0,0.0,0.0,0.0,0.0,0.0,0.0,0.0,0.0,0.0,0.0,0.0,0.0,0.0,0.0,0.0,0.0,0.0,0.0,0.0,0.0,0.0,0.0,0.0,0.0,0.0,0.0,0.0,0.0,0.0,0.0,0.0,0.0,0.0,0.0,0.0,0.0,0.0,0.0,0.0,0.0,0.0,0.0,0.0,0.0,0.0,0.0,0.0,0.0,0.0,0.0,0.0,0.0,0.0,0.0,0.0,0.0,0.0,0.0,0.0,0.0,0.0,0.0,0.0,0.0,0.0,0.0,0.0,0.0,0.0,0.0,0.0,0.0,0.0,0.0,0.0,0.0,0.0,0.0,0.0,0.0,0.0,0.0,0.0,0.0,0.0,0.0,0.0,0.0,0.0,0.0,0.0,0.0,0.0,0.0,0.0,0.0,0.0,0.0,0.0,0.0,0.0,0.0,0.0,0.0,0.0,0.0,0.0,0.0,0.0,0.0,0.0,0.0,0.0,0.0,0.0,0.0,0.0,0.0,0.0,0.0,0.0,0.0,0.0,0.0,0.0,0.0,0.0,0.0,0.0,0.0,0.0]}]]]